Date StartTime U_cm/s V_cm/s W_cm/s Ustd_cm/s Vstd_cm/s Wstd_cm/s Uvar_(cm/s)^2 Vvar_(cm/s)^2 Wvar_(cm/s)^2 KE_(m/s)^2 TurbulentKE_(m/s)^2 HorizWindSpeed_cm/s FrictionSpeec_cm/s DragCoef SpeedOfSound_m/s SonicTemperature_C Pressure_mb 
06/28/2013  00:00:00      -48.894       65.689      -11.804       26.616       26.259       10.356      708.438      689.541      107.250        0.417        0.075       81.888        3.327        0.002      347.502       26.519      867.146
06/28/2013  00:01:00      -16.705       90.118        0.687       35.761       23.826       22.813     1278.837      567.698      520.456        0.538        0.118       91.653       19.578        0.046      347.349       26.253      867.165
06/28/2013  00:02:00        2.767       57.052       -6.434       34.509       28.259       22.646     1190.884      798.546      512.837        0.290        0.125       57.119       18.708        0.107      347.114       25.849      867.164
06/28/2013  00:03:00       47.748       47.936       -6.519       28.832       19.286       17.143      831.310      371.935      293.888        0.306        0.075       67.659       12.237        0.033      346.982       25.622      867.174
06/28/2013  00:04:00       69.720       52.501        6.551       27.977       31.465       20.111      782.700      990.037      404.446        0.492        0.109       87.276       15.882        0.033      346.974       25.607      867.185
06/28/2013  00:05:00       42.110       43.679       -8.429       33.505       33.215       17.407     1122.575     1103.235      303.010        0.314        0.126       60.673       20.632        0.116      347.001       25.654      867.214
06/28/2013  00:06:00       88.809       34.294       11.469       42.827       28.579       26.706     1834.118      816.786      713.189        0.628        0.168       95.201        9.426        0.010      346.966       25.594      867.229
06/28/2013  00:07:00       72.179       37.990        1.622       80.789       29.097       34.133     6526.831      846.631     1165.034        0.760        0.427       81.567       31.794        0.152      347.294       26.159      867.235
06/28/2013  00:08:00       49.817       13.460        9.923       51.689       25.905       17.113     2671.749      671.048      292.863        0.320        0.182       51.603       15.928        0.095      347.228       26.047      867.245
06/28/2013  00:09:00       96.981       47.044       20.846       56.127       37.425       25.301     3150.272     1400.634      640.163        0.862        0.260      107.789       25.142        0.054      346.963       25.588      867.262
06/28/2013  00:10:00       87.682       57.420       45.679       65.353       34.673       34.689     4271.020     1202.228     1203.317        0.987        0.334      104.810       39.738        0.144      346.840       25.377      867.268
06/28/2013  00:11:00      118.844       55.931       33.345       49.664       54.265       29.700     2466.486     2944.671      882.108        1.233        0.315      131.347       26.454        0.041      346.865       25.420      867.279
06/28/2013  00:12:00       18.092        6.766       10.034       35.423       18.972       17.371     1254.795      359.940      301.746        0.119        0.096       19.316       17.094        0.783      346.797       25.303      867.281
06/28/2013  00:13:00       23.293       40.460      -12.794       15.278       16.557       11.438      233.417      274.123      130.829        0.149        0.032       46.686        7.505        0.026      346.751       25.224      867.277
06/28/2013  00:14:00       -0.895       11.059        2.566       12.497       10.838        7.871      156.166      117.452       61.948        0.023        0.017       11.095        6.400        0.333      346.676       25.098      867.289
06/28/2013  00:15:00       -2.308      -24.303        9.365       13.298       17.459       15.827      176.830      304.829      250.496        0.071        0.037       24.413        7.682        0.099      346.677       25.096      867.287
06/28/2013  00:16:00       -6.196      -29.321       16.153       14.528       18.123       15.407      211.049      328.456      237.369        0.097        0.039       29.968        8.418        0.079      346.690       25.119      867.290
06/28/2013  00:17:00        0.239       42.281       54.195       20.477       21.527       18.998      419.308      463.408      360.926        0.298        0.062       42.282       15.971        0.143      346.660       25.068      867.288
06/28/2013  00:18:00       37.681       44.388       37.638       22.709       19.706       19.366      515.690      388.328      375.025        0.304        0.064       58.225        4.526        0.006      346.678       25.099      867.292
06/28/2013  00:19:00       65.126       40.052       11.052       22.658       19.122       23.529      513.372      365.658      553.615        0.370        0.072       76.456       11.850        0.024      346.692       25.123      867.284
06/28/2013  00:20:00       41.645       42.647        5.026       32.539       28.123       22.223     1058.789      790.910      493.861        0.296        0.117       59.608       16.954        0.081      346.756       25.233      867.278
06/28/2013  00:21:00       18.629       80.955       -4.846       26.687       38.664       26.571      712.183     1494.873      706.004        0.492        0.146       83.071       26.750        0.104      346.821       25.344      867.282
06/28/2013  00:22:00       14.688       68.646       -7.488       27.133       38.071       24.173      736.190     1449.420      584.330        0.388        0.138       70.200       24.454        0.121      346.667       25.078      867.288
06/28/2013  00:23:00       18.386       75.801       -9.109       26.189       35.161       21.849      685.861     1236.263      477.398        0.428        0.120       77.999       22.563        0.084      346.588       24.944      867.296
06/28/2013  00:24:00       -0.230       68.313       -9.803       16.188       24.540       11.685      262.058      602.190      136.537        0.288        0.050       68.313       12.307        0.032      346.547       24.872      867.316
06/28/2013  00:25:00       -9.773       71.408       -7.769       10.356       12.185        6.905      107.253      148.485       47.679        0.278        0.015       72.074        5.222        0.005      346.553       24.883      867.325
06/28/2013  00:26:00       -2.823       63.633      -11.380       12.349       14.157        6.078      152.497      200.432       36.944        0.229        0.019       63.695        5.984        0.009      346.542       24.864      867.333
06/28/2013  00:27:00       10.622       52.318       -7.103       14.958       10.672        6.450      223.727      113.899       41.597        0.164        0.019       53.385        5.814        0.012      346.520       24.827      867.339
06/28/2013  00:28:00       19.168       54.789       -6.549       12.392       13.423        6.854      153.559      180.189       46.979        0.190        0.019       58.045        4.944        0.007      346.494       24.779      867.352
06/28/2013  00:29:00       28.235       36.601       -4.870       12.978       22.492       12.731      168.423      505.880      162.072        0.150        0.042       46.226       11.103        0.058      346.435       24.680      867.385
06/28/2013  00:30:00       56.720       34.658       -2.899       11.545       11.837       12.395      133.276      140.121      153.631        0.243        0.021       66.470        6.036        0.008      346.414       24.644      867.403
06/28/2013  00:31:00       71.706       41.966        3.379       18.955       17.204       14.508      359.291      295.989      210.489        0.389        0.043       83.084        4.940        0.004      346.412       24.643      867.407
06/28/2013  00:32:00       56.222       36.571        4.804       14.855       11.767       18.000      220.684      138.456      324.017        0.260        0.034       67.070       11.586        0.030      346.429       24.671      867.425
06/28/2013  00:33:00       26.516       26.439        9.446       21.723       15.335       16.699      471.904      235.169      278.859        0.124        0.049       37.445       12.224        0.107      346.543       24.867      867.419
06/28/2013  00:34:00       15.313       27.868       25.216       16.224       16.007       10.119      263.213      256.240      102.400        0.113        0.031       31.798        7.192        0.051      346.365       24.561      867.419
06/28/2013  00:35:00       32.326       10.247        2.098        9.246       11.321       10.512       85.489      128.168      110.509        0.074        0.016       33.911        7.929        0.055      346.288       24.428      867.430
06/28/2013  00:36:00       19.470      -33.372       -0.820       10.908       18.060       15.649      118.978      326.171      244.905        0.109        0.035       38.636        9.810        0.064      346.338       24.512      867.434
06/28/2013  00:37:00        4.808       18.719        4.385       27.149       18.972       18.759      737.041      359.919      351.900        0.092        0.072       19.326       15.787        0.667      346.553       24.884      867.423
06/28/2013  00:38:00      -33.003        9.202       -6.911       16.072       11.246       10.171      258.324      126.476      103.442        0.085        0.024       34.262       10.037        0.086      346.533       24.849      867.406
06/28/2013  00:39:00      -55.442      -10.532       -7.600       11.731        7.431        8.694      137.616       55.222       75.580        0.176        0.013       56.433        7.592        0.018      346.321       24.486      867.398
06/28/2013  00:40:00      -65.114      -23.429      -10.008       10.010       16.496        9.079      100.205      272.105       82.431        0.267        0.023       69.201        2.398        0.001      346.232       24.332      867.380
06/28/2013  00:41:00      -77.176      -39.283       -3.809       20.219       17.241       11.968      408.826      297.256      143.234        0.418        0.042       86.598        5.826        0.005      346.238       24.341      867.366
06/28/2013  00:42:00      -60.260      -35.899       -3.967       23.259       15.415       12.855      540.968      237.622      165.264        0.294        0.047       70.143        9.735        0.019      346.166       24.218      867.356
06/28/2013  00:43:00      -43.989      -20.684        4.167       34.730       17.204       11.417     1206.171      295.980      130.338        0.201        0.082       48.609       13.488        0.077      346.121       24.142      867.350
06/28/2013  00:44:00      -14.962      -31.933       12.242       35.978       22.031       13.634     1294.408      485.348      185.887        0.168        0.098       35.265       17.453        0.245      346.201       24.278      867.347
06/28/2013  00:45:00      -19.029      -10.654        6.284       20.788       11.594       12.128      432.156      134.410      147.097        0.061        0.036       21.809       11.879        0.297      346.173       24.228      867.351
06/28/2013  00:46:00      -27.130      -25.618        1.907       15.418       15.538        9.636      237.702      241.437       92.859        0.098        0.029       37.314        8.268        0.049      346.184       24.250      867.352
06/28/2013  00:47:00      -26.731      -32.761       -3.469        9.843        7.905        6.422       96.885       62.495       41.236        0.100        0.010       42.283        1.220        0.001      346.269       24.397      867.349
06/28/2013  00:48:00      -54.406      -34.958       -4.398       17.465       14.425        8.746      305.025      208.085       76.491        0.240        0.029       64.668        6.788        0.011      346.133       24.161      867.358
06/28/2013  00:49:00      -52.052      -44.447       -4.983       16.803       16.426        9.624      282.340      269.815       92.620        0.268        0.032       68.446        9.515        0.019      346.070       24.053      867.361
06/28/2013  00:50:00      -56.579      -36.024       -2.448       17.131       11.410        8.561      293.475      130.198       73.298        0.250        0.025       67.074        6.657        0.010      346.116       24.131      867.364
06/28/2013  00:51:00      -56.200      -17.934       -3.784       16.741       11.528        9.286      280.257      132.900       86.233        0.200        0.025       58.992        9.681        0.027      346.138       24.169      867.382
06/28/2013  00:52:00      -69.656       -7.319       -4.993       10.297       10.011        8.017      106.035      100.216       64.273        0.260        0.014       70.040        5.010        0.005      346.113       24.126      867.385
06/28/2013  00:53:00      -84.702       -5.106       -7.448       13.225        9.930        6.587      174.888       98.614       43.394        0.379        0.016       84.856        3.482        0.002      346.045       24.009      867.385
06/28/2013  00:54:00      -79.941      -10.219       -2.082       31.967       16.980       13.030     1021.903      288.314      169.779        0.399        0.074       80.591       16.135        0.040      345.916       23.788      867.390
06/28/2013  00:55:00      -96.494      -14.941      -11.460       27.257       20.310       14.251      742.940      412.495      203.081        0.551        0.068       97.644       11.678        0.014      345.771       23.539      867.391
06/28/2013  00:56:00      -89.118        1.941       -7.268       22.293       18.555       16.326      496.998      344.273      266.551        0.455        0.055       89.139       13.940        0.024      345.753       23.510      867.381
06/28/2013  00:57:00      -68.199      -24.971        1.774       26.950       26.797       14.507      726.279      718.080      210.440        0.347        0.083       72.627       13.889        0.037      345.634       23.305      867.377
06/28/2013  00:58:00      -76.015      -67.993        2.509       35.894       22.033       19.059     1288.394      485.453      363.246        0.627        0.107      101.987       14.275        0.020      345.687       23.395      867.375
06/28/2013  00:59:00      -96.407      -82.754        3.456       52.045       25.681       29.965     2708.706      659.489      897.900        1.021        0.213      127.053       22.921        0.033      346.030       23.984      867.370
06/28/2013  01:00:00      -95.348      -80.000        0.195       58.211       30.532       22.497     3388.563      932.207      506.136        1.016        0.241      124.464       23.947        0.037      346.203       24.281      867.372
06/28/2013  01:01:00      -63.178      -67.195       12.307       55.950       49.277       28.265     3130.363     2428.242      798.897        0.751        0.318       92.232       29.742        0.104      346.068       24.050      867.364
06/28/2013  01:02:00      -63.776      -64.198       10.103       51.188       37.673       28.682     2620.192     1419.256      822.673        0.658        0.243       90.492       25.106        0.077      346.078       24.067      867.348
06/28/2013  01:03:00     -118.372     -113.914        0.201       45.594       40.487       27.186     2078.847     1639.200      739.065        1.572        0.223      164.281       26.751        0.027      346.134       24.162      867.345
06/28/2013  01:04:00      -91.298      -62.016        4.880       58.144       31.831       25.391     3380.766     1013.233      644.721        0.862        0.252      110.368       29.028        0.069      346.016       23.960      867.345
06/28/2013  01:05:00      -80.426      -65.291        5.255       56.367       35.093       24.854     3177.223     1231.523      617.713        0.789        0.251      103.592       26.467        0.065      345.962       23.868      867.345
06/28/2013  01:06:00     -109.840      -61.581        2.816       45.654       33.143       23.465     2084.323     1098.451      550.597        0.980        0.187      125.925       26.526        0.044      345.995       23.925      867.363
06/28/2013  01:07:00     -118.384      -46.724       -3.982       29.261       30.400       16.522      856.235      924.172      272.991        0.913        0.103      127.271       13.801        0.012      345.925       23.805      867.371
06/28/2013  01:08:00     -117.318      -21.510       -2.307       43.006       32.617       22.401     1849.557     1063.888      501.814        0.882        0.171      119.273       22.214        0.035      345.563       23.182      867.382
06/28/2013  01:09:00      -88.774      -36.383        1.733       40.034       24.365       17.608     1602.726      593.633      310.037        0.586        0.125       95.941       18.012        0.035      345.593       23.233      867.388
06/28/2013  01:10:00      -69.322     -103.307       -1.214       34.420       32.247       19.622     1184.719     1039.879      385.029        0.904        0.130      124.410       19.128        0.024      345.903       23.766      867.389
06/28/2013  01:11:00      -72.096     -130.880       -1.820       35.648       35.420       19.821     1270.755     1254.564      392.856        1.262        0.146      149.424       18.641        0.016      345.942       23.834      867.404
06/28/2013  01:12:00      -52.376      -79.717        1.776       40.850       33.985       16.911     1668.693     1154.962      285.995        0.610        0.155       95.384        9.709        0.010      346.051       24.020      867.404
06/28/2013  01:13:00      -20.209      -69.450        1.395       27.797       29.208       23.626      772.646      853.100      558.170        0.371        0.109       72.330       15.893        0.048      346.059       24.034      867.419
06/28/2013  01:14:00      -15.670      -21.109        9.683       13.704       20.257       17.199      187.802      410.333      295.795        0.084        0.045       26.289       12.297        0.219      345.893       23.749      867.433
06/28/2013  01:15:00      -12.850       41.244       -1.290       13.513       24.362        9.550      182.594      593.531       91.204        0.137        0.043       43.199        9.278        0.046      345.616       23.275      867.419
06/28/2013  01:16:00      -13.330       54.496       -6.691        6.953       13.066        5.118       48.340      170.731       26.190        0.172        0.012       56.103        2.576        0.002      345.580       23.212      867.412
06/28/2013  01:17:00      -15.347       45.873       -6.010       13.004       12.140        6.906      169.114      147.377       47.688        0.137        0.018       48.372        4.302        0.008      345.500       23.073      867.404
06/28/2013  01:18:00      -41.167       22.359        2.214       24.610       13.301       13.098      605.651      176.906      171.562        0.158        0.048       46.847       11.479        0.060      345.436       22.964      867.391
06/28/2013  01:19:00      -51.274       32.529       -6.474       15.224       17.565        9.693      231.772      308.519       93.957        0.218        0.032       60.722        8.631        0.020      345.468       23.020      867.398
06/28/2013  01:20:00      -75.027        8.994      -10.764       34.373       24.104       22.493     1181.536      580.998      505.943        0.405        0.113       75.564       22.756        0.091      345.272       22.685      867.402
06/28/2013  01:21:00      -74.971        5.736       -8.081       19.358       24.815       12.431      374.734      615.806      154.528        0.343        0.057       75.190        5.623        0.006      345.330       22.782      867.389
06/28/2013  01:22:00      -84.254       30.821      -11.701       25.809       15.374       13.802      666.106      236.358      190.498        0.464        0.055       89.715        9.038        0.010      345.576       23.207      867.398
06/28/2013  01:23:00      -32.756       -1.769       -4.202       19.587       14.677        8.251      383.639      215.401       68.079        0.088        0.033       32.804       10.157        0.096      345.442       22.973      867.391
06/28/2013  01:24:00      -42.877      -18.177        1.097       30.023       13.368       12.242      901.364      178.692      149.871        0.170        0.061       46.571        8.664        0.035      345.460       23.005      867.388
06/28/2013  01:25:00      -73.352      -31.251       -4.898       12.708       11.617       10.995      161.498      134.951      120.901        0.340        0.021       79.732        5.869        0.005      345.396       22.894      867.382
06/28/2013  01:26:00      -68.405       -8.091       -1.869       17.588       16.678       11.371      309.331      278.156      129.301        0.273        0.036       68.882        9.993        0.021      345.326       22.777      867.378
06/28/2013  01:27:00     -120.935      -16.983       -8.824       31.760       17.129       14.962     1008.679      293.408      223.863        0.826        0.076      122.121       15.725        0.017      345.264       22.670      867.354
06/28/2013  01:28:00     -110.998      -25.464       -3.102       49.398       26.671       22.105     2440.116      711.364      488.626        0.831        0.182      113.881       23.950        0.044      345.128       22.438      867.337
06/28/2013  01:29:00     -133.050        2.701       -8.754       46.377       30.608       26.908     2150.858      936.873      724.047        1.080        0.191      133.077       25.531        0.037      344.979       22.184      867.330
06/28/2013  01:30:00     -126.008      -29.961       -7.843       35.009       41.275       21.451     1225.615     1703.602      460.144        1.011        0.169      129.521       15.672        0.015      344.932       22.101      867.306
06/28/2013  01:31:00     -152.005      -49.181       -5.135       33.703       22.762       17.096     1135.888      518.127      292.290        1.375        0.097      159.763       16.272        0.010      344.991       22.202      867.297
06/28/2013  01:32:00     -124.348      -91.978       -5.572       51.392       34.269       23.020     2641.137     1174.392      529.927        1.415        0.217      154.668       20.275        0.017      345.315       22.757      867.286
06/28/2013  01:33:00     -116.245      -71.943        2.282       56.737       45.097       26.814     3219.102     2033.708      719.009        1.233        0.299      136.706       25.799        0.036      345.328       22.779      867.284
06/28/2013  01:34:00     -122.728      -85.789        2.533       55.991       45.239       27.545     3134.942     2046.547      758.707        1.418        0.297      149.740       24.952        0.028      345.421       22.937      867.293
06/28/2013  01:35:00      -32.945      -29.847        7.620       35.738       26.689       20.716     1277.225      712.302      429.141        0.223        0.121       44.454       18.746        0.178      345.407       22.915      867.290
06/28/2013  01:36:00      -62.064        5.405       -3.087       36.149       30.723       19.012     1306.749      943.907      361.461        0.325        0.131       62.299       20.065        0.104      345.264       22.671      867.291
06/28/2013  01:37:00      -64.457       22.273       -5.024       25.247       17.293       13.402      637.428      299.038      179.609        0.290        0.056       68.197        9.469        0.019      345.096       22.383      867.306
06/28/2013  01:38:00      -80.523      -10.485       -6.231       28.557       19.097       14.519      815.507      364.694      210.814        0.401        0.070       81.203       12.373        0.023      345.214       22.585      867.292
06/28/2013  01:39:00     -115.655      -27.445       -6.341       24.276       18.010       17.616      589.316      324.361      310.327        0.770        0.061      118.867       16.401        0.019      345.275       22.688      867.289
06/28/2013  01:40:00      -77.251      -38.234        5.292       44.726       30.381       19.985     2000.445      923.007      399.395        0.539        0.166       86.195       18.480        0.046      345.187       22.538      867.281
06/28/2013  01:41:00      -70.852      -57.513        2.382       43.719       33.292       19.222     1911.366     1108.351      369.469        0.586        0.169       91.256       15.472        0.029      345.178       22.522      867.271
06/28/2013  01:42:00     -107.829      -91.998       -5.468       25.869       26.760       19.375      669.202      716.087      375.406        1.094        0.088      141.741       12.540        0.008      345.358       22.831      867.264
06/28/2013  01:43:00      -61.639      -49.343        4.654       42.288       31.224       19.922     1788.275      974.915      396.901        0.471        0.158       78.956       19.491        0.061      345.204       22.567      867.258
06/28/2013  01:44:00      -63.506      -38.258        4.467       43.998       29.677       20.025     1935.820      880.742      401.018        0.437        0.161       74.140       22.500        0.092      345.215       22.587      867.251
06/28/2013  01:45:00      -84.569        3.868       -0.817       24.895       25.946       15.657      619.781      673.206      245.138        0.435        0.077       84.657       16.362        0.037      345.169       22.507      867.261
06/28/2013  01:46:00     -109.333       14.352       -9.591       17.206       11.000        9.435      296.057      120.991       89.019        0.638        0.025      110.271        5.598        0.003      345.173       22.514      867.279
06/28/2013  01:47:00      -66.180       17.803        1.636       28.048       18.852       13.304      786.663      355.391      176.998        0.301        0.066       68.533       13.238        0.037      345.018       22.250      867.284
06/28/2013  01:48:00      -92.222       21.931       -3.961       31.075       20.472       17.571      965.633      419.123      308.752        0.535        0.085       94.794       18.365        0.038      345.030       22.270      867.289
06/28/2013  01:49:00      -85.075       -0.033      -13.356       18.712       15.301        9.944      350.133      234.125       98.879        0.405        0.034       85.075        5.997        0.005      345.047       22.299      867.279
06/28/2013  01:50:00      -72.395      -39.215       -7.472       27.550       17.261       10.827      758.983      297.937      117.218        0.400        0.059       82.333        8.967        0.012      345.092       22.375      867.267
06/28/2013  01:51:00     -106.161      -56.422       -0.749       27.914       20.182       22.438      779.196      407.313      503.442        0.807        0.084      120.223       13.782        0.013      344.942       22.119      867.253
06/28/2013  01:52:00     -138.267      -41.732       -5.757       19.845       17.420       11.523      393.840      303.451      132.776        1.086        0.042      144.428        6.881        0.002      344.885       22.022      867.241
06/28/2013  01:53:00      -99.453      -34.518       -2.973       47.447       19.805       16.611     2251.237      392.235      275.926        0.700        0.146      105.273       19.452        0.034      344.781       21.843      867.221
06/28/2013  01:54:00      -72.770      -23.250       -8.396       42.801       23.148       16.601     1831.926      535.841      275.595        0.427        0.132       76.394       18.537        0.059      344.823       21.915      867.208
06/28/2013  01:55:00      -84.723      -49.516        0.297       29.864       25.584       20.486      891.860      654.528      419.686        0.580        0.098       98.132       14.698        0.022      344.870       21.994      867.198
06/28/2013  01:56:00      -81.865      -62.384       -1.737       38.111       29.653       20.909     1452.429      879.325      437.190        0.668        0.138      102.925       22.922        0.050      344.846       21.955      867.197
06/28/2013  01:57:00      -72.001      -53.998        3.979       33.069       37.883       19.620     1093.531     1435.104      384.931        0.551        0.146       89.999       20.903        0.054      344.819       21.908      867.213
06/28/2013  01:58:00      -79.302      -30.172       -0.111       13.332       14.851       10.211      177.738      220.546      104.258        0.385        0.025       84.848        6.106        0.005      344.848       21.960      867.211
06/28/2013  01:59:00      -76.666      -32.151        0.601       35.519       17.045       18.322     1261.598      290.520      335.686        0.440        0.094       83.134       10.471        0.016      344.835       21.937      867.205
06/28/2013  02:00:00      -96.113      -60.842        0.787       29.328       28.924       20.917      860.109      836.602      437.509        0.754        0.107      113.751       16.856        0.022      344.808       21.890      867.217
06/28/2013  02:01:00     -121.732      -71.840       -2.240       28.360       32.056       19.192      804.304     1027.571      368.316        1.109        0.110      141.349       17.172        0.015      344.843       21.951      867.217
06/28/2013  02:02:00     -115.429      -43.733        1.323       37.323       26.226       18.697     1392.987      687.796      349.594        0.883        0.122      123.436       20.616        0.028      344.778       21.837      867.217
06/28/2013  02:03:00      -70.514      -37.751        8.060       40.662       26.589       18.986     1653.428      706.994      360.455        0.459        0.136       79.984       19.843        0.062      344.743       21.778      867.226
06/28/2013  02:04:00      -97.727      -42.160       -3.656       15.965       16.169        9.502      254.882      261.450       90.285        0.597        0.030      106.433        5.355        0.003      344.752       21.792      867.226
06/28/2013  02:05:00      -87.972      -21.741       -1.376       28.677       19.878       12.814      822.373      395.139      164.201        0.480        0.069       90.619       13.655        0.023      344.752       21.794      867.214
06/28/2013  02:06:00      -73.680       -5.591        2.195       28.693       21.142       16.687      823.291      446.966      278.466        0.351        0.077       73.892       16.075        0.047      344.651       21.620      867.221
06/28/2013  02:07:00      -94.988      -10.952       -1.123       29.061       20.562       16.898      844.534      422.811      285.529        0.535        0.078       95.617       17.503        0.034      344.688       21.683      867.215
06/28/2013  02:08:00      -64.672       -8.990        3.232       32.069       24.754       16.571     1028.410      612.753      274.603        0.309        0.096       65.294       15.317        0.055      344.643       21.606      867.205
06/28/2013  02:09:00      -88.446      -13.089       -2.359       36.539       20.106       14.502     1335.096      404.244      210.305        0.497        0.097       89.409       17.970        0.040      344.651       21.620      867.200
06/28/2013  02:10:00      -79.775       -6.224       -1.534       28.716       18.944       16.775      824.586      358.875      281.388        0.393        0.073       80.017       17.158        0.046      344.573       21.486      867.187
06/28/2013  02:11:00      -89.209      -17.668       -3.852       38.376       23.998       15.384     1472.714      575.922      236.657        0.528        0.114       90.942       18.113        0.040      344.588       21.512      867.178
06/28/2013  02:12:00      -98.577      -20.738       -1.288       37.738       21.890       15.320     1424.186      479.187      234.718        0.614        0.107      100.735       15.380        0.023      344.607       21.545      867.187
06/28/2013  02:13:00     -111.695      -37.895      -12.738       20.133       21.171       15.234      405.352      448.224      232.060        0.758        0.054      117.948       11.980        0.010      344.584       21.505      867.180
06/28/2013  02:14:00     -113.901      -51.266       -8.649       19.297       25.651       13.872      372.367      657.991      192.430        0.845        0.061      124.907        7.792        0.004      344.494       21.352      867.189
06/28/2013  02:15:00      -90.135      -30.818       -6.144       36.425       32.784       15.592     1326.805     1074.797      243.114        0.588        0.132       95.258       14.213        0.022      344.495       21.354      867.199
06/28/2013  02:16:00     -122.014      -56.881       -5.631       22.746       28.417       16.110      517.382      807.518      259.522        0.987        0.079      134.621       12.471        0.009      344.470       21.311      867.190
06/28/2013  02:17:00     -118.721      -44.263       -4.322       24.129       18.816       14.904      582.208      354.024      222.117        0.862        0.058      126.704       13.510        0.011      344.480       21.328      867.188
06/28/2013  02:18:00      -61.055      -44.139       -1.223       40.840       22.375       15.888     1667.866      500.646      252.416        0.405        0.121       75.339       16.831        0.050      344.442       21.263      867.177
06/28/2013  02:19:00      -89.958      -43.711       -2.079       47.175       38.595       21.339     2225.514     1489.606      455.365        0.709        0.209      100.015       16.409        0.027      344.377       21.151      867.160
06/28/2013  02:20:00     -145.419       -7.277      -10.834       13.709       15.199       11.290      187.930      231.001      127.461        1.093        0.027      145.601        7.660        0.003      344.469       21.309      867.158
06/28/2013  02:21:00     -132.707      -16.267      -13.801       35.806       16.286       14.732     1282.098      265.228      217.043        0.991        0.088      133.700       19.040        0.020      344.513       21.386      867.150
06/28/2013  02:22:00      -99.215      -20.580       -7.464       19.162       13.913       12.409      367.201      193.559      153.977        0.552        0.036      101.327       10.987        0.012      344.499       21.361      867.136
06/28/2013  02:23:00      -95.631      -25.500       -4.875       23.441       17.836       10.288      549.472      318.126      105.835        0.540        0.049       98.973        8.802        0.008      344.505       21.371      867.141
06/28/2013  02:24:00     -115.199      -27.564       -7.543       24.744       18.360       13.889      612.270      337.075      192.904        0.761        0.057      118.451       12.107        0.010      344.410       21.210      867.161
06/28/2013  02:25:00      -98.935      -42.287       -4.745       13.000        9.735        9.867      168.991       94.770       97.350        0.598        0.018      107.594        8.670        0.006      344.367       21.134      867.158
06/28/2013  02:26:00       -7.650      -25.664       13.562       23.597       13.478       11.856      556.830      181.669      140.565        0.089        0.044       26.780       12.978        0.235      344.418       21.224      867.170
06/28/2013  02:27:00      -24.541      -26.804        2.906       22.186       15.868       11.844      492.218      251.800      140.287        0.111        0.044       36.342        9.596        0.070      344.509       21.378      867.176
06/28/2013  02:28:00      -44.617      -29.612        4.693       32.972       14.849       12.931     1087.128      220.503      167.221        0.218        0.074       53.549       15.588        0.085      344.583       21.506      867.176
06/28/2013  02:29:00      -15.907      -19.143        8.234       30.371       18.447       12.530      922.380      340.293      157.000        0.105        0.071       24.890       10.598        0.181      344.585       21.508      867.188
06/28/2013  02:30:00      -88.120      -36.043       -6.216        9.679        9.053        9.421       93.674       81.951       88.749        0.468        0.013       95.206        4.471        0.002      344.489       21.344      867.189
06/28/2013  02:31:00      -93.912      -39.704       -1.026        9.846       10.848        8.762       96.946      117.674       76.769        0.534        0.015      101.960        5.628        0.003      344.466       21.303      867.175
06/28/2013  02:32:00      -91.728      -41.286       -1.006       19.096       10.195        9.182      364.654      103.928       84.302        0.534        0.028      100.591        9.155        0.008      344.460       21.294      867.175
06/28/2013  02:33:00      -97.067      -49.908       -0.477       23.048       20.025       14.514      531.199      401.000      210.666        0.653        0.057      109.146       13.266        0.015      344.437       21.255      867.181
06/28/2013  02:34:00      -42.641      -21.040        3.053       25.164       23.309       16.311      633.249      543.329      266.061        0.186        0.072       47.550       15.622        0.108      344.403       21.196      867.174
06/28/2013  02:35:00      -60.149      -36.578       -5.295       11.381        9.882        8.346      129.517       97.654       69.653        0.264        0.015       70.398        4.530        0.004      344.513       21.385      867.177
06/28/2013  02:36:00      -49.661      -29.754       -2.695       12.295        8.273        7.168      151.156       68.435       51.380        0.181        0.014       57.892        5.612        0.009      344.524       21.403      867.192
06/28/2013  02:37:00      -40.898      -26.069       -6.715        6.700        8.063        5.187       44.884       65.006       26.907        0.127        0.007       48.500        4.145        0.007      344.593       21.522      867.198
06/28/2013  02:38:00      -68.977      -23.638      -11.768       14.941       11.026        9.604      223.226      121.575       92.228        0.295        0.022       72.915        8.357        0.013      344.585       21.508      867.207
06/28/2013  02:39:00      -76.823      -17.480      -10.229       17.000       10.813        8.096      289.004      116.910       65.553        0.339        0.024       78.786        6.212        0.006      344.474       21.318      867.221
06/28/2013  02:40:00      -71.790      -22.957      -10.736       15.246       15.116        9.160      232.444      228.498       83.897        0.317        0.027       75.371        6.811        0.008      344.357       21.119      867.216
06/28/2013  02:41:00      -66.517      -32.966      -11.921       23.672        8.277        7.403      560.376       68.505       54.803        0.317        0.034       74.238        5.869        0.006      344.430       21.244      867.212
06/28/2013  02:42:00      -33.484      -28.309       -2.188       13.476       14.844        8.703      181.602      220.352       75.744        0.120        0.024       43.848        6.574        0.022      344.450       21.276      867.210
06/28/2013  02:43:00      -18.271      -18.870       -5.078       14.192       11.635        9.353      201.404      135.366       87.473        0.057        0.021       26.266        7.930        0.091      344.458       21.291      867.198
06/28/2013  02:44:00      -31.956      -31.283       -7.576       19.401       17.196       12.145      376.405      295.709      147.506        0.144        0.041       44.719       12.288        0.076      344.454       21.283      867.183
06/28/2013  02:45:00      -49.923      -24.595       -1.514        8.930       10.249        7.190       79.746      105.038       51.701        0.167        0.012       55.653        2.949        0.003      344.499       21.362      867.189
06/28/2013  02:46:00      -60.569      -13.645       -0.951        8.413       14.707        6.925       70.786      216.297       47.955        0.210        0.017       62.086        5.220        0.007      344.527       21.410      867.200
06/28/2013  02:47:00      -36.223      -23.057        1.522       16.069       11.537       10.443      258.207      133.112      109.056        0.117        0.025       42.938       10.336        0.058      344.434       21.251      867.207
06/28/2013  02:48:00      -58.152      -22.980       -2.961       20.770       14.731       11.075      431.395      216.990      122.646        0.234        0.039       62.528       13.123        0.044      344.402       21.195      867.210
06/28/2013  02:49:00      -77.432      -44.930       -6.751       24.656       23.322       13.192      607.898      543.924      174.038        0.469        0.066       89.523       10.283        0.013      344.359       21.121      867.212
06/28/2013  02:50:00      -79.459      -52.505       -6.321       20.992       32.151       11.902      440.660     1033.703      141.657        0.536        0.081       95.239        7.816        0.007      344.372       21.145      867.225
06/28/2013  02:51:00      -66.806      -46.780       -4.038       28.180       25.929       15.633      794.091      672.315      244.400        0.419        0.086       81.556       18.277        0.050      344.318       21.052      867.213
06/28/2013  02:52:00      -49.722      -47.543       -2.084       28.059       22.650       16.974      787.304      513.042      288.104        0.316        0.079       68.794       14.283        0.043      344.368       21.136      867.207
06/28/2013  02:53:00     -133.212      -82.262      -12.319       55.576       39.101       28.400     3088.640     1528.904      806.545        1.504        0.271      156.564       22.133        0.020      344.399       21.189      867.193
06/28/2013  02:54:00     -131.583      -76.218        7.562       75.643       46.506       27.211     5721.881     2162.800      740.425        1.590        0.431      152.063       34.437        0.051      344.345       21.096      867.190
06/28/2013  02:55:00     -103.774      -43.368        4.689       47.050       36.542       20.977     2213.673     1335.294      440.030        0.833        0.199      112.472       19.700        0.031      344.262       20.956      867.182
06/28/2013  02:56:00      -95.774      -64.289       -0.023       41.325       27.660       23.918     1707.720      765.102      572.062        0.817        0.152      115.351       21.518        0.035      344.320       21.054      867.182
06/28/2013  02:57:00      -90.415      -55.961        7.710       43.405       35.705       20.235     1884.009     1274.823      409.466        0.747        0.178      106.333       20.674        0.038      344.310       21.038      867.186
06/28/2013  02:58:00     -106.083      -47.426       -7.427       24.688       24.351       15.778      609.508      592.991      248.954        0.750        0.073      116.202        8.738        0.006      344.343       21.095      867.192
06/28/2013  02:59:00      -65.891      -31.591        4.602       40.603       35.632       21.958     1648.567     1269.651      482.166        0.438        0.170       73.073       24.047        0.108      344.297       21.015      867.187
06/28/2013  03:00:00      -53.398      -59.444        2.027       36.925       33.686       17.018     1363.474     1134.718      289.610        0.459        0.139       79.906       20.880        0.068      344.416       21.218      867.183
06/28/2013  03:01:00      -75.116      -29.686        3.084       34.468       26.032       19.368     1188.041      677.669      375.121        0.439        0.112       80.769       16.856        0.044      344.352       21.109      867.199
06/28/2013  03:02:00      -71.505      -93.935       -3.060       46.108       27.561       17.807     2125.947      759.597      317.095        0.857        0.160      118.054       18.607        0.025      344.395       21.184      867.198
06/28/2013  03:03:00      -64.724      -63.487        8.119       34.398       30.848       23.575     1183.224      951.572      555.797        0.549        0.135       90.663       22.852        0.064      344.323       21.060      867.198
06/28/2013  03:04:00      -76.007      -62.707        1.246       38.741       21.668       20.579     1500.849      469.515      423.479        0.605        0.120       98.535       17.925        0.033      344.320       21.054      867.202
06/28/2013  03:05:00      -30.363      -24.324        8.138       29.125       19.917       16.840      848.243      396.674      283.578        0.155        0.076       38.904       18.349        0.222      344.168       20.794      867.204
06/28/2013  03:06:00      -30.976      -33.047       14.163       28.881       23.660       18.831      834.085      559.781      354.624        0.200        0.087       45.295       18.279        0.163      344.177       20.812      867.198
06/28/2013  03:07:00      -45.929      -32.733        3.757       23.069       22.068       12.734      532.160      487.000      162.156        0.219        0.059       56.400       11.617        0.042      344.160       20.781      867.197
06/28/2013  03:08:00      -87.897      -26.088        7.368       28.808       23.123       20.150      829.880      534.682      406.014        0.512        0.089       91.686       15.040        0.027      344.122       20.716      867.200
06/28/2013  03:09:00      -40.945      -41.909       11.100       46.495       24.516       22.039     2161.798      601.038      485.706        0.340        0.162       58.591       19.255        0.108      344.079       20.642      867.195
06/28/2013  03:10:00      -35.205      -60.851        4.490       36.554       44.512       18.577     1336.218     1981.326      345.088        0.431        0.183       70.302       20.082        0.082      344.116       20.708      867.178
06/28/2013  03:11:00      -66.311      -80.478       -3.908       38.395       33.274       20.772     1474.175     1107.140      431.461        0.695        0.151      104.278       21.109        0.041      344.144       20.754      867.173
06/28/2013  03:12:00      -78.446      -63.472       -4.002       28.183       30.784       21.583      794.305      947.627      465.833        0.620        0.110      100.908       18.521        0.034      344.149       20.765      867.180
06/28/2013  03:13:00      -61.407      -51.949        2.569       40.130       38.234       20.946     1610.444     1461.826      438.756        0.499        0.176       80.433       21.723        0.073      344.138       20.745      867.192
06/28/2013  03:14:00      -83.689      -30.189      -15.226       15.821       32.204       12.341      250.288     1037.118      152.310        0.479        0.072       88.968        8.316        0.009      344.111       20.701      867.202
06/28/2013  03:15:00      -68.532       -9.471       -4.081       23.847       20.904       14.563      568.681      436.979      212.070        0.301        0.061       69.184       14.141        0.042      344.064       20.619      867.206
06/28/2013  03:16:00      -55.879      -31.522        4.599       33.258       16.370       12.622     1106.077      267.982      159.307        0.284        0.077       64.157       15.002        0.055      344.037       20.573      867.201
06/28/2013  03:17:00      -79.601      -26.004        4.625       36.832       19.333       14.701     1356.610      373.757      216.110        0.449        0.097       83.741       17.119        0.042      343.976       20.468      867.188
06/28/2013  03:18:00     -105.616      -25.248       -3.476       25.145       20.689       15.944      632.280      428.047      254.221        0.656        0.066      108.592        8.994        0.007      344.007       20.520      867.181
06/28/2013  03:19:00      -95.020      -22.601        2.402       33.264       30.514       17.006     1106.506      931.074      289.219        0.594        0.116       97.671       14.853        0.023      343.902       20.341      867.192
06/28/2013  03:20:00     -117.524      -41.069       -2.945       20.177       18.047       13.833      407.102      325.690      191.355        0.822        0.046      124.493        8.741        0.005      343.807       20.180      867.188
06/28/2013  03:21:00      -69.981      -48.240       -0.482       36.236       25.283       16.174     1313.026      639.243      261.591        0.472        0.111       84.997       14.122        0.028      343.890       20.319      867.179
06/28/2013  03:22:00     -104.802      -54.996        0.956       47.276       24.459       20.809     2235.015      598.245      433.028        0.864        0.163      118.355       21.426        0.033      343.951       20.424      867.179
06/28/2013  03:23:00      -80.795      -68.595        4.182       45.096       35.995       21.002     2033.680     1295.643      441.101        0.751        0.189      105.987       20.785        0.038      343.973       20.462      867.192
06/28/2013  03:24:00      -99.001      -55.590       -3.768       26.973       21.487       15.743      727.561      461.701      247.844        0.717        0.072      113.540       15.456        0.019      343.965       20.449      867.192
06/28/2013  03:25:00      -52.306      -55.892        2.686       40.671       31.562       22.910     1654.126      996.183      524.867        0.452        0.159       76.550       23.924        0.098      343.948       20.421      867.180
06/28/2013  03:26:00      -67.906      -51.897       -1.452       35.277       24.353       14.458     1244.442      593.086      209.032        0.468        0.102       85.467       15.125        0.031      343.992       20.498      867.184
06/28/2013  03:27:00      -83.166      -49.009        2.669       44.085       24.721       18.128     1943.461      611.115      328.636        0.610        0.144       96.532       16.646        0.030      344.010       20.525      867.185
06/28/2013  03:28:00      -97.440      -60.170        6.535       52.534       38.565       25.809     2759.838     1487.287      666.127        0.903        0.246      114.521       25.468        0.049      343.945       20.415      867.176
06/28/2013  03:29:00     -127.067      -26.385       -7.051       34.642       26.501       17.491     1200.066      702.318      305.931        0.955        0.110      129.777       16.140        0.015      343.865       20.278      867.167
06/28/2013  03:30:00     -114.777      -34.518       -0.994       32.345       37.312       20.499     1046.177     1392.172      420.208        0.861        0.143      119.855       19.505        0.026      343.823       20.205      867.160
06/28/2013  03:31:00      -95.498      -18.518        4.867       40.662       44.958       20.498     1653.434     2021.193      420.183        0.679        0.205       97.276       17.171        0.031      343.806       20.179      867.152
06/28/2013  03:32:00     -109.592      -21.758       -4.671       31.787       25.851       19.012     1010.430      668.255      361.469        0.727        0.102      111.732       17.362        0.024      343.726       20.041      867.151
06/28/2013  03:33:00      -99.297       -4.048       -7.336       33.803       32.794       21.904     1142.638     1075.431      479.782        0.631        0.135       99.380       20.755        0.044      343.672       19.949      867.166
06/28/2013  03:34:00     -113.356       19.717       -9.614       21.259       21.099       12.536      451.956      445.175      157.151        0.719        0.053      115.058        8.441        0.005      343.796       20.160      867.180
06/28/2013  03:35:00      -93.912       -9.322       -8.298       23.900       24.880       10.786      571.201      619.014      116.347        0.514        0.065       94.374        7.156        0.006      343.828       20.216      867.175
06/28/2013  03:36:00      -79.657      -38.253       -0.309       19.668       17.783       13.673      386.841      316.226      186.958        0.435        0.045       88.366        9.838        0.012      343.780       20.134      867.188
06/28/2013  03:37:00      -91.865      -51.804       -8.558       23.835       24.632       12.206      568.088      606.759      148.975        0.626        0.066      105.465       10.697        0.010      343.748       20.078      867.185
06/28/2013  03:38:00      -91.767      -44.329       -4.411       19.306       21.167       12.221      372.730      448.039      149.365        0.569        0.049      101.913        6.598        0.004      343.678       19.958      867.177
06/28/2013  03:39:00     -102.698      -54.216       -5.090       16.165       21.506       13.143      261.319      462.512      172.738        0.720        0.045      116.130        5.778        0.002      343.554       19.746      867.179
06/28/2013  03:40:00      -99.455      -41.627       -5.034       30.031       31.473       14.899      901.874      990.573      221.985        0.688        0.106      107.815       13.067        0.015      343.545       19.730      867.182
06/28/2013  03:41:00      -71.867       -1.964       -4.043       32.890       30.293       22.731     1081.752      917.659      516.692        0.385        0.126       71.894       20.196        0.079      343.605       19.833      867.170
06/28/2013  03:42:00      -64.862      -35.447       -4.472       24.059       21.312       14.081      578.859      454.198      198.269        0.336        0.062       73.916       13.814        0.035      343.667       19.939      867.161
06/28/2013  03:43:00      -91.014      -76.124       -6.361       23.693       23.663       12.373      561.350      559.952      153.101        0.770        0.064      118.653        7.413        0.004      343.606       19.836      867.164
06/28/2013  03:44:00     -113.961      -54.557       -6.036       44.550       28.047       19.561     1984.730      786.648      382.644        0.958        0.158      126.347       18.647        0.022      343.543       19.729      867.154
06/28/2013  03:45:00     -106.657      -54.252       -6.441       45.677       27.088       24.181     2086.359      733.770      584.743        0.888        0.170      119.662       25.434        0.045      343.497       19.651      867.137
06/28/2013  03:46:00     -127.717      -27.846       -8.382       48.590       30.006       23.977     2361.010      900.339      574.876        1.050        0.192      130.717       26.159        0.040      343.487       19.633      867.128
06/28/2013  03:47:00     -113.853      -40.711       -2.485       33.394       26.224       19.299     1115.154      687.717      372.459        0.840        0.109      120.913       10.794        0.008      343.441       19.553      867.117
06/28/2013  03:48:00     -128.756      -49.406       -7.515       28.420       29.762       16.836      807.715      885.755      283.441        1.053        0.099      137.910       13.855        0.010      343.499       19.654      867.099
06/28/2013  03:49:00      -83.677      -21.569        3.980       52.486       30.903       20.061     2754.736      954.969      402.455        0.580        0.206       86.412       20.897        0.058      343.390       19.468      867.096
06/28/2013  03:50:00     -127.793      -27.364        0.641       40.242       26.475       24.083     1619.449      700.904      579.975        0.999        0.145      130.690       24.297        0.035      343.398       19.481      867.092
06/28/2013  03:51:00     -108.785      -27.260       -2.389       46.155       28.636       22.377     2130.251      820.029      500.728        0.802        0.173      112.149       26.725        0.057      343.450       19.572      867.087
06/28/2013  03:52:00     -118.591      -22.323      -10.305       23.929       20.662       15.741      572.577      426.904      247.778        0.796        0.062      120.674       14.556        0.015      343.509       19.671      867.090
06/28/2013  03:53:00      -93.639      -36.798        0.093       25.748       21.164       15.962      662.945      447.906      254.801        0.574        0.068      100.610       13.453        0.018      343.566       19.766      867.105
06/28/2013  03:54:00      -97.721      -37.089       -2.654       18.446       19.754       10.631      340.255      390.226      113.024        0.589        0.042      104.523        8.056        0.006      343.595       19.817      867.114
06/28/2013  03:55:00      -61.565      -33.495       -2.546       42.986       23.934       18.562     1847.784      572.831      344.543        0.384        0.138       70.086       23.915        0.116      343.544       19.730      867.128
06/28/2013  03:56:00      -95.991      -27.095       -4.726       47.626       29.496       19.511     2268.216      870.027      380.679        0.674        0.176       99.742       26.577        0.071      343.664       19.935      867.133
06/28/2013  03:57:00      -73.415      -22.698       -6.333       37.422       28.280       16.590     1400.380      799.739      275.239        0.421        0.124       76.844       15.837        0.042      343.649       19.910      867.131
06/28/2013  03:58:00     -110.238      -15.450       -6.526       42.941       31.134       22.766     1843.887      969.310      518.303        0.788        0.167      111.316       22.399        0.040      343.802       20.170      867.119
06/28/2013  03:59:00      -94.856      -12.769       -6.148       48.507       38.184       22.727     2352.935     1458.002      516.505        0.676        0.216       95.712       26.339        0.076      343.873       20.291      867.113
06/28/2013  04:00:00     -110.503      -19.508       -6.983       26.060       27.439       16.437      679.112      752.923      270.176        0.717        0.085      112.212       15.725        0.020      343.851       20.253      867.125
06/28/2013  04:01:00      -76.961      -51.718       -2.538       43.523       19.962       16.784     1894.257      398.483      281.718        0.559        0.129       92.725        6.963        0.006      343.736       20.058      867.127
06/28/2013  04:02:00      -80.831      -61.142       -1.453       32.317       22.405       20.289     1044.361      501.991      411.643        0.612        0.098      101.350       17.525        0.030      343.590       19.808      867.130
06/28/2013  04:03:00     -103.820      -48.882       -8.761       15.409       24.397       11.458      237.430      595.237      131.297        0.710        0.048      114.752        8.652        0.006      343.617       19.853      867.145
06/28/2013  04:04:00     -101.658      -42.625      -10.662       14.692       18.000        9.339      215.855      324.002       87.210        0.645        0.031      110.232        5.808        0.003      343.556       19.750      867.149
06/28/2013  04:05:00      -89.385      -27.385       -4.095       18.338       19.397       13.418      336.274      376.251      180.050        0.482        0.045       93.486       11.025        0.014      343.511       19.675      867.149
06/28/2013  04:06:00     -117.083      -45.672       -1.021       18.062       18.441        9.160      326.228      340.077       83.904        0.827        0.038      125.676        7.518        0.004      343.557       19.751      867.148
06/28/2013  04:07:00     -100.371      -49.162        1.947       32.156       25.338       17.843     1034.008      641.998      318.380        0.724        0.100      111.765       16.099        0.021      343.520       19.690      867.163
06/28/2013  04:08:00      -79.924      -47.527        0.808       35.541       27.015       15.185     1263.161      729.792      230.594        0.544        0.111       92.988       17.126        0.034      343.518       19.686      867.165
06/28/2013  04:09:00     -107.699      -60.062       -1.134       15.367       17.834       13.756      236.156      318.068      189.225        0.798        0.037      123.315        9.976        0.007      343.570       19.775      867.160
06/28/2013  04:10:00     -105.777      -50.743       -5.976       16.434       18.089       12.541      270.067      327.202      157.274        0.728        0.038      117.319        9.420        0.006      343.515       19.680      867.164
06/28/2013  04:11:00      -84.838      -47.956       -0.341       22.285       21.658       13.645      496.616      469.067      186.174        0.532        0.058       97.454       13.370        0.019      343.549       19.738      867.159
06/28/2013  04:12:00      -66.902      -51.253       -1.456       33.036       18.532       15.067     1091.358      343.427      227.008        0.438        0.083       84.278       19.404        0.053      343.480       19.622      867.149
06/28/2013  04:13:00      -65.444      -44.289        1.664       32.034       23.894       17.846     1026.192      570.944      318.477        0.408        0.096       79.022       15.750        0.040      343.434       19.542      867.145
06/28/2013  04:14:00      -84.529      -48.258       -1.865       19.508       17.605       10.316      380.576      309.947      106.420        0.514        0.040       97.335        8.027        0.007      343.434       19.542      867.149
06/28/2013  04:15:00     -102.926      -36.957       -0.156       24.284       16.653       12.847      589.725      277.334      165.058        0.650        0.052      109.360       13.098        0.014      343.449       19.567      867.153
06/28/2013  04:16:00     -101.757      -58.117        4.767       32.436       21.383       15.416     1052.122      457.212      237.641        0.775        0.087      117.184       13.430        0.013      343.517       19.684      867.155
06/28/2013  04:17:00     -106.716      -68.315        4.468       40.842       31.596       24.084     1668.041      998.325      580.019        0.966        0.162      126.709       23.922        0.036      343.558       19.754      867.158
06/28/2013  04:18:00     -106.998      -76.381        0.252       49.075       37.724       24.627     2408.402     1423.132      606.465        1.086        0.222      131.463       24.769        0.035      343.603       19.830      867.161
06/28/2013  04:19:00      -75.262      -44.325        0.844       38.018       42.944       22.739     1445.397     1844.185      517.054        0.572        0.190       87.345       22.886        0.069      343.552       19.744      867.156
06/28/2013  04:20:00      -62.530      -44.478        8.174       50.163       37.732       27.151     2516.320     1423.724      737.166        0.532        0.234       76.735       30.351        0.156      343.461       19.588      867.144
06/28/2013  04:21:00      -48.041      -51.204        6.610       47.963       35.622       23.035     2300.437     1268.914      530.614        0.454        0.205       70.212       17.553        0.063      343.459       19.586      867.139
06/28/2013  04:22:00     -101.714      -60.247        3.079       33.572       28.401       18.404     1127.072      806.640      338.726        0.813        0.114      118.218       17.858        0.023      343.486       19.630      867.142
06/28/2013  04:23:00      -75.944      -52.767        4.167       37.370       26.228       17.767     1396.490      687.915      315.658        0.548        0.120       92.476       12.223        0.017      343.472       19.607      867.131
06/28/2013  04:24:00      -61.254      -58.930        4.295       39.864       34.570       22.410     1589.125     1195.069      502.217        0.526        0.164       84.999       17.068        0.040      343.440       19.552      867.117
06/28/2013  04:25:00      -68.245      -65.663        9.365       53.961       36.959       28.300     2911.838     1365.938      800.894        0.707        0.254       94.705       29.717        0.098      343.401       19.486      867.113
06/28/2013  04:26:00      -73.549      -64.461        8.770       40.229       44.816       21.877     1618.366     2008.493      478.615        0.687        0.205       97.799       22.008        0.051      343.381       19.452      867.105
06/28/2013  04:27:00      -86.735      -84.590        4.370       41.121       37.505       27.148     1690.946     1406.610      737.039        0.927        0.192      121.155       24.705        0.042      343.475       19.612      867.093
06/28/2013  04:28:00      -68.652      -71.954       14.528       49.687       42.714       27.323     2468.754     1824.455      746.563        0.757        0.252       99.451       28.904        0.084      343.428       19.534      867.087
06/28/2013  04:29:00      -71.612      -84.502       -0.243       39.766       29.593       20.918     1581.342      875.727      437.542        0.758        0.145      110.765       21.492        0.038      343.445       19.562      867.083
06/28/2013  04:30:00      -62.831     -102.553       -6.908       30.674       28.116       26.357      940.876      790.529      694.701        0.847        0.121      120.270       19.044        0.025      343.413       19.505      867.095
06/28/2013  04:31:00     -108.189      -74.406       -7.749       33.812       37.675       21.152     1143.244     1419.426      447.420        1.016        0.151      131.306       14.349        0.012      343.368       19.432      867.090
06/28/2013  04:32:00     -105.820      -72.173       -2.113       36.621       22.893       17.466     1341.077      524.094      305.062        0.929        0.109      128.089       13.495        0.011      343.342       19.387      867.089
06/28/2013  04:33:00     -113.846      -39.249      -12.648       17.352       20.202       16.250      301.100      408.135      264.061        0.782        0.049      120.422       11.663        0.009      343.367       19.427      867.092
06/28/2013  04:34:00      -82.085      -27.535       -2.031       20.531       20.477       13.645      421.514      419.320      186.178        0.426        0.051       86.580       10.467        0.015      343.361       19.420      867.102
06/28/2013  04:35:00      -97.985      -28.136        0.765       24.896       20.912       14.018      619.797      437.321      196.498        0.582        0.063      101.945       12.885        0.016      343.258       19.243      867.094
06/28/2013  04:36:00      -79.612      -38.453        1.415       49.585       20.381       18.856     2458.660      415.391      355.560        0.552        0.161       88.412       21.258        0.058      343.260       19.246      867.084
06/28/2013  04:37:00      -77.462      -55.396        2.637       48.410       36.022       20.005     2343.512     1297.573      400.191        0.656        0.202       95.232       22.967        0.058      343.257       19.241      867.068
06/28/2013  04:38:00      -56.153      -56.487        3.589       62.088       30.733       27.890     3854.897      944.496      777.853        0.597        0.279       79.648       31.628        0.158      343.268       19.260      867.060
06/28/2013  04:39:00      -73.207       -7.887       -3.470       31.966       22.257       20.608     1021.818      495.395      424.703        0.369        0.097       73.630       18.124        0.061      343.155       19.067      867.046
06/28/2013  04:40:00      -82.577       10.118       -2.656       24.992       25.894       17.569      624.601      670.508      308.685        0.427        0.080       83.195       15.395        0.034      343.125       19.017      867.039
06/28/2013  04:41:00      -96.479       12.861      -11.116       17.129       20.492       15.413      293.415      419.933      237.560        0.527        0.048       97.333        7.370        0.006      343.127       19.020      867.028
06/28/2013  04:42:00      -62.992      -33.541        2.914       31.418       27.990       18.889      987.104      783.451      356.808        0.361        0.106       71.365       19.823        0.077      343.108       18.988      867.027
06/28/2013  04:43:00      -65.363      -47.369        4.835       29.390       19.217       16.875      863.791      369.295      284.770        0.403        0.076       80.723       16.753        0.043      343.122       19.011      867.024
06/28/2013  04:44:00      -94.880      -49.837       -3.178       33.271       16.195       18.692     1106.936      262.268      349.400        0.661        0.086      107.173       20.411        0.036      343.119       19.006      867.017
06/28/2013  04:45:00      -84.652      -52.728       -4.152       34.160       18.981       15.419     1166.919      360.281      237.750        0.586        0.088       99.730       13.260        0.018      343.129       19.024      867.019
06/28/2013  04:46:00      -41.038      -32.821        9.756       29.875       24.748       18.204      892.497      612.484      331.373        0.235        0.092       52.549       15.669        0.089      343.107       18.985      867.038
06/28/2013  04:47:00      -66.467      -43.742        0.348       33.824       20.289       14.704     1144.068      411.651      216.212        0.405        0.089       79.569       13.153        0.027      343.129       19.022      867.045
06/28/2013  04:48:00      -75.687      -65.437       -0.206       24.637       17.177       14.827      606.998      295.035      219.840        0.557        0.056      100.052       13.900        0.019      343.149       19.056      867.063
06/28/2013  04:49:00      -59.648      -72.372       -4.487       20.671       22.273       13.448      427.272      496.085      180.844        0.496        0.055       93.785       12.367        0.017      343.237       19.208      867.071
06/28/2013  04:50:00      -47.721      -47.800       -2.569       16.642       20.687        9.617      276.949      427.968       92.496        0.268        0.040       67.544        7.336        0.012      343.218       19.177      867.089
06/28/2013  04:51:00      -23.913      -23.010        2.201       31.532       11.912       11.087      994.262      141.890      122.932        0.118        0.063       33.186       12.570        0.143      343.219       19.177      867.099
06/28/2013  04:52:00       -0.366      -27.130       -0.397       19.875       14.543       12.656      395.010      211.497      160.165        0.075        0.038       27.133       11.892        0.192      343.208       19.156      867.090
06/28/2013  04:53:00       -3.241      -17.534       13.911       19.745       13.599       10.522      389.849      184.943      110.720        0.060        0.034       17.831        6.682        0.140      343.164       19.083      867.084
06/28/2013  04:54:00      -64.256      -36.264       -2.835       25.552       14.765       11.849      652.881      218.008      140.397        0.323        0.051       73.783       12.153        0.027      343.102       18.977      867.081
06/28/2013  04:55:00      -64.502      -38.578       -1.673       21.236       15.631       13.179      450.948      244.313      173.686        0.326        0.043       75.158        8.617        0.013      343.018       18.834      867.079
06/28/2013  04:56:00      -41.873      -32.360        2.596       28.991       20.102       12.469      840.494      404.109      155.473        0.210        0.070       52.920        9.002        0.029      343.009       18.820      867.063
06/28/2013  04:57:00      -59.928      -34.554       -6.817       27.146       15.558       10.794      736.904      242.062      116.502        0.296        0.055       69.176        7.387        0.011      343.013       18.825      867.060
06/28/2013  04:58:00      -67.432      -38.307        1.276       24.947       15.963       19.476      622.331      254.814      379.297        0.364        0.063       77.554       17.649        0.052      342.994       18.794      867.071
06/28/2013  04:59:00      -65.660      -43.748        1.022       22.606       13.503       14.035      511.044      182.328      196.981        0.356        0.045       78.900        8.999        0.013      342.970       18.753      867.083
06/28/2013  05:00:00      -59.921      -31.465       -5.645       18.559       18.215       12.451      344.437      331.801      155.036        0.272        0.042       67.680        5.627        0.007      342.999       18.803      867.083
06/28/2013  05:01:00      -79.442      -36.097       -0.731       16.154       18.326       13.975      260.949      335.844      195.295        0.420        0.040       87.259       10.568        0.015      343.054       18.896      867.084
06/28/2013  05:02:00     -100.816      -35.888       -3.438       14.520       14.393       13.042      210.823      207.170      170.090        0.603        0.029      107.013        9.871        0.009      342.993       18.792      867.085
06/28/2013  05:03:00      -84.680      -41.017       -4.244       22.330       13.189        8.978      498.627      173.945       80.604        0.481        0.038       94.091        7.599        0.007      342.918       18.665      867.093
06/28/2013  05:04:00      -58.602      -56.179       -4.829       34.869       32.576       19.373     1215.842     1061.221      375.295        0.463        0.133       81.181       23.926        0.087      342.913       18.656      867.089
06/28/2013  05:05:00      -89.231      -60.784       -1.324       28.356       23.553       15.083      804.043      554.751      227.508        0.662        0.079      107.967       13.165        0.015      342.881       18.599      867.077
06/28/2013  05:06:00     -115.374      -29.536      -15.176       16.027       14.918        9.404      256.850      222.556       88.429        0.749        0.028      119.095        2.517        0.000      342.894       18.624      867.075
06/28/2013  05:07:00     -122.090      -40.110      -10.933       17.118       22.576       14.658      293.042      509.673      214.859        0.883        0.051      128.510        8.540        0.004      342.863       18.572      867.073
06/28/2013  05:08:00     -133.974      -40.724       -1.057       34.687       23.622       18.077     1203.208      558.001      326.763        1.085        0.104      140.027       16.846        0.014      342.730       18.345      867.064
06/28/2013  05:09:00     -159.207      -55.102       -1.944       39.875       25.187       21.757     1590.025      634.364      473.374        1.554        0.135      168.473       19.532        0.013      342.776       18.423      867.042
06/28/2013  05:10:00     -143.221      -42.448       -7.710       41.243       33.172       19.684     1701.011     1100.386      387.463        1.278        0.159      149.379       18.531        0.015      342.733       18.347      867.020
06/28/2013  05:11:00     -160.100      -54.637       -2.938       36.606       31.122       21.103     1339.973      968.581      445.345        1.569        0.138      169.166       18.979        0.013      342.682       18.262      867.008
06/28/2013  05:12:00     -132.063      -39.995        1.807       52.528       29.027       20.321     2759.170      842.547      412.961        1.153        0.201      137.987       22.534        0.027      342.692       18.279      867.007
06/28/2013  05:13:00     -114.160      -45.307        6.058       48.644       35.490       27.965     2366.216     1259.538      782.022        0.976        0.220      122.822       26.968        0.048      342.755       18.386      866.994
06/28/2013  05:14:00      -97.418      -60.611        0.270       42.835       24.891       17.490     1834.841      619.545      305.883        0.796        0.138      114.734       18.569        0.026      342.781       18.432      866.988
06/28/2013  05:15:00      -91.665      -44.927       -0.653       43.373       28.279       20.093     1881.205      799.686      403.725        0.675        0.154      102.083       18.363        0.032      342.738       18.358      866.986
06/28/2013  05:16:00     -101.549      -47.028        0.225       39.238       25.206       18.576     1539.656      635.361      345.053        0.752        0.126      111.910       18.584        0.028      342.769       18.410      866.975
06/28/2013  05:17:00      -75.549      -56.463        1.877       41.369       23.396       21.148     1711.387      547.390      447.259        0.580        0.135       94.317       18.484        0.038      342.776       18.422      866.966
06/28/2013  05:18:00      -80.498      -51.846        2.036       36.365       23.253       19.984     1322.378      540.689      399.347        0.572        0.113       95.749       20.417        0.045      342.767       18.407      866.953
06/28/2013  05:19:00      -46.105      -56.376        3.122       41.097       36.625       23.919     1689.004     1341.381      572.116        0.446        0.180       72.828       21.145        0.084      342.779       18.427      866.959
06/28/2013  05:20:00      -48.511      -76.164        8.645       51.467       39.665       30.355     2648.834     1573.319      921.407        0.669        0.257       90.301       34.133        0.143      342.746       18.372      866.973
06/28/2013  05:21:00      -61.910      -75.088        3.989       41.177       39.016       28.855     1695.507     1522.233      832.622        0.677        0.203       97.319       28.224        0.084      342.762       18.400      866.978
06/28/2013  05:22:00      -60.126      -62.347        4.744       38.973       32.538       18.147     1518.861     1058.699      329.318        0.522        0.145       86.616       20.157        0.054      342.835       18.523      866.984
06/28/2013  05:23:00      -52.205      -48.357        0.904       28.917       23.222       16.133      836.186      539.243      260.276        0.335        0.082       71.160       15.026        0.045      342.843       18.537      866.994
06/28/2013  05:24:00      -50.972      -59.116        3.143       25.338       23.119       21.660      642.036      534.485      469.134        0.387        0.082       78.057       15.318        0.039      342.896       18.628      867.001
06/28/2013  05:25:00      -77.868      -49.088        5.982       36.500       25.011       20.222     1332.275      625.560      408.936        0.544        0.118       92.050       16.051        0.030      342.847       18.544      866.999
06/28/2013  05:26:00      -92.802      -69.046       -0.143       38.372       35.327       22.527     1472.445     1247.967      507.460        0.830        0.161      115.671       23.492        0.041      342.947       18.715      866.998
06/28/2013  05:27:00      -68.864      -51.444       -7.943       47.879       32.930       22.872     2292.357     1084.407      523.112        0.568        0.195       85.958       19.763        0.053      342.996       18.796      867.016
06/28/2013  05:28:00      -79.558      -58.536       -6.996       37.032       37.439       22.151     1371.374     1401.655      490.667        0.653        0.163       98.773       21.986        0.050      343.000       18.804      867.022
06/28/2013  05:29:00      -79.922      -70.120       -2.331       32.846       35.469       18.757     1078.838     1258.042      351.839        0.700        0.134      106.322       17.752        0.028      342.954       18.725      867.028
06/28/2013  05:30:00      -73.180      -56.449       -2.391       32.947       32.649       17.772     1085.531     1065.977      315.856        0.551        0.123       92.422       17.703        0.037      342.950       18.718      867.039
06/28/2013  05:31:00      -80.746      -50.533       -2.475       23.534       19.956       13.154      553.872      398.245      173.033        0.510        0.056       95.255       13.248        0.019      343.009       18.820      867.054
06/28/2013  05:32:00      -61.712      -43.263       -4.699       34.376       20.313       20.212     1181.740      412.616      408.540        0.385        0.100       75.367       20.390        0.073      343.034       18.860      867.061
06/28/2013  05:33:00      -79.843      -37.962       -6.255       14.871       12.818       11.321      221.136      164.293      128.171        0.418        0.026       88.408        7.574        0.007      343.060       18.909      867.077
06/28/2013  05:34:00      -77.542      -29.660       -7.317       14.946       11.897        9.863      223.380      141.527       97.274        0.370        0.023       83.021        7.082        0.007      343.020       18.836      867.094
06/28/2013  05:35:00      -44.694      -29.087        2.144       15.105       11.731       12.455      228.161      137.607      155.125        0.168        0.026       53.325       10.565        0.039      343.025       18.846      867.093
06/28/2013  05:36:00      -29.114      -27.688       -4.658       22.024       16.322       11.677      485.055      266.396      136.356        0.126        0.044       40.178        9.367        0.054      342.950       18.718      867.093
06/28/2013  05:37:00      -64.524      -23.039      -10.992        4.812        7.213        6.632       23.156       52.022       43.982        0.247        0.006       68.514        2.298        0.001      342.930       18.686      867.097
06/28/2013  05:38:00      -65.083      -27.286       -5.947        5.529        7.198        5.445       30.568       51.805       29.645        0.256        0.006       70.571        2.910        0.002      342.913       18.659      867.099
06/28/2013  05:39:00      -64.881      -14.222       -4.543        6.899       11.276        4.345       47.593      127.157       18.875        0.231        0.010       66.421        0.768        0.000      342.873       18.585      867.104
06/28/2013  05:40:00      -45.544      -15.884       -6.457       10.297       11.761        5.471      106.023      138.331       29.933        0.132        0.014       48.234        2.736        0.003      342.869       18.582      867.116
06/28/2013  05:41:00      -33.256      -13.986       -2.590       20.465       14.057       10.121      418.812      197.604      102.433        0.101        0.036       36.077        8.948        0.062      342.862       18.569      867.134
06/28/2013  05:42:00      -21.883      -19.861        6.511       19.985       22.049       10.141      399.396      486.178      102.845        0.095        0.049       29.552       10.998        0.139      342.894       18.621      867.154
06/28/2013  05:43:00      -24.424      -52.067        2.061       35.524       28.692       20.018     1261.937      823.215      400.735        0.290        0.124       57.511       22.276        0.150      342.976       18.765      867.163
06/28/2013  05:44:00      -27.323      -15.959        5.972       35.385       22.300       19.002     1252.100      497.301      361.089        0.157        0.106       31.643       18.762        0.352      342.859       18.562      867.173
06/28/2013  05:45:00      -49.027      -35.078        0.745       31.857       27.376       20.190     1014.873      749.472      407.648        0.290        0.109       60.283       18.557        0.095      342.878       18.596      867.168
06/28/2013  05:46:00      -20.770      -15.247       10.007       33.300       18.281       15.772     1108.866      334.195      248.759        0.123        0.085       25.765       15.229        0.349      342.828       18.511      867.166
06/28/2013  05:47:00      -73.573      -29.946       -3.344       26.474       18.538       13.890      700.847      343.669      192.923        0.378        0.062       79.434       15.464        0.038      342.791       18.445      867.163
06/28/2013  05:48:00      -83.033      -34.815       -1.728       20.664       16.167       10.409      427.016      261.369      108.346        0.445        0.040       90.036        9.887        0.012      342.813       18.486      867.153
06/28/2013  05:49:00      -87.523      -16.012       -6.106       30.050       21.049       15.745      902.999      443.061      247.915        0.477        0.080       88.976       13.332        0.022      342.745       18.370      867.140
06/28/2013  05:50:00     -112.929      -11.848       -1.618       40.244       23.522       17.769     1619.545      553.305      315.736        0.769        0.124      113.549       15.210        0.018      342.651       18.210      867.126
06/28/2013  05:51:00     -112.845      -38.772        4.638       46.042       25.016       18.021     2119.911      625.793      324.739        0.866        0.154      119.321       18.285        0.023      342.611       18.142      867.123
06/28/2013  05:52:00     -147.197      -47.411        4.147       45.885       36.633       21.624     2105.401     1341.973      467.614        1.392        0.196      154.644       22.978        0.022      342.665       18.233      867.118
06/28/2013  05:53:00     -152.883      -56.083       -2.079       31.374       31.349       22.161      984.307      982.778      491.091        1.449        0.123      162.845       15.230        0.009      342.656       18.218      867.114
06/28/2013  05:54:00     -128.885      -41.337       -5.177       39.805       32.417       19.462     1584.408     1050.870      378.783        1.068        0.151      135.352       17.005        0.016      342.662       18.228      867.118
06/28/2013  05:55:00     -116.585      -52.926       -0.114       41.110       32.005       20.512     1690.010     1024.320      420.728        0.976        0.157      128.036       21.207        0.027      342.631       18.177      867.116
06/28/2013  05:56:00      -70.875      -49.461        5.883       39.623       33.790       26.582     1570.005     1141.733      706.606        0.546        0.171       86.427       21.596        0.062      342.639       18.188      867.108
06/28/2013  05:57:00      -76.686      -44.598        3.344       35.092       25.073       19.183     1231.444      628.638      367.991        0.505        0.111       88.711       18.440        0.043      342.716       18.320      867.100
06/28/2013  05:58:00      -90.334      -46.792        0.907       32.752       22.692       15.191     1072.673      514.931      230.753        0.608        0.091      101.734       12.028        0.014      342.767       18.406      867.099
06/28/2013  05:59:00      -65.851      -39.231        2.603       28.075       23.159       15.552      788.231      536.354      241.852        0.372        0.078       76.651        9.546        0.016      342.833       18.520      867.097
06/28/2013  06:00:00      -91.987      -22.169       -8.385       19.687       20.258       15.523      387.576      410.370      240.972        0.503        0.052       94.621       11.288        0.014      342.756       18.389      867.109
06/28/2013  06:01:00      -32.350      -22.874        7.646       31.467       20.012       15.943      990.192      400.497      254.168        0.164        0.082       39.620       17.276        0.190      342.829       18.513      867.121
06/28/2013  06:02:00      -28.599      -38.822       13.798       29.290       23.358       19.588      857.887      545.607      383.703        0.215        0.089       48.219       19.182        0.158      342.861       18.567      867.124
06/28/2013  06:03:00      -53.823      -69.923        1.813       32.797       20.507       22.354     1075.649      420.552      499.702        0.489        0.100       88.239       21.294        0.058      342.808       18.476      867.135
06/28/2013  06:04:00      -31.272      -40.692        3.615       27.183       24.532       17.927      738.892      601.819      321.385        0.215        0.083       51.321       14.212        0.077      342.892       18.620      867.138
06/28/2013  06:05:00      -48.694      -41.395        7.480       39.885       29.763       16.479     1590.803      885.832      271.570        0.344        0.137       63.911       18.595        0.085      342.878       18.596      867.139
06/28/2013  06:06:00      -85.811      -46.476        1.772       39.989       27.593       17.083     1599.081      761.379      291.823        0.609        0.133       97.589       16.043        0.027      342.830       18.514      867.140
06/28/2013  06:07:00      -69.188      -81.700       -2.231       55.842       47.836       23.770     3118.381     2288.237      565.026        0.872        0.299      107.060       25.619        0.057      342.795       18.454      867.140
06/28/2013  06:08:00      -85.055      -84.547       -0.655       40.990       50.759       23.646     1680.194     2576.474      559.110        0.960        0.241      119.928       24.334        0.041      342.816       18.488      867.135
06/28/2013  06:09:00      -80.157      -77.800        5.008       48.938       37.248       24.995     2394.935     1387.396      624.768        0.845        0.220      111.705       24.968        0.050      342.909       18.649      867.149
06/28/2013  06:10:00     -104.580     -111.219      -12.612       39.627       27.117       25.490     1570.274      735.335      649.733        1.321        0.148      152.665       23.764        0.024      342.930       18.684      867.168
06/28/2013  06:11:00     -117.008      -94.692      -13.928       45.266       32.638       28.839     2048.966     1065.242      831.660        1.340        0.197      150.524       17.937        0.014      342.903       18.640      867.172
06/28/2013  06:12:00     -101.384      -85.427       -5.044       51.225       34.362       28.194     2623.957     1180.715      794.913        1.110        0.230      132.577       18.686        0.020      342.925       18.675      867.174
06/28/2013  06:13:00     -107.944      -81.227       -5.072       41.077       33.704       25.673     1687.331     1135.986      659.113        1.088        0.174      135.091       18.365        0.018      342.895       18.625      867.192
06/28/2013  06:14:00     -109.407      -72.701       -5.494       61.115       44.601       31.001     3735.077     1989.278      961.056        1.198        0.334      131.360       33.828        0.066      342.957       18.729      867.202
06/28/2013  06:15:00      -77.124      -74.382       -2.756       63.887       40.728       27.021     4081.526     1658.801      730.155        0.898        0.324      107.148       27.283        0.065      342.943       18.708      867.210
06/28/2013  06:16:00     -101.566      -79.163       -4.790       61.985       38.437       35.315     3842.146     1477.383     1247.134        1.158        0.328      128.773       36.240        0.079      342.941       18.704      867.219
06/28/2013  06:17:00      -74.908      -56.752        6.221       75.764       41.563       34.929     5740.123     1727.447     1220.044        0.878        0.434       93.979       37.498        0.159      342.983       18.775      867.233
06/28/2013  06:18:00      -14.948      -39.154        9.458       44.710       37.653       20.006     1998.987     1417.750      400.257        0.283        0.191       41.910       19.903        0.226      343.040       18.871      867.233
06/28/2013  06:19:00      -96.545      -71.590        6.781       77.558       41.759       36.028     6015.182     1743.845     1298.028        1.177        0.453      120.192       31.641        0.069      342.930       18.683      867.235
06/28/2013  06:20:00     -141.611     -103.553        0.242       58.859       50.186       35.303     3464.325     2518.595     1246.286        1.900        0.361      175.433       36.038        0.042      342.901       18.635      867.233
06/28/2013  06:21:00     -184.549     -135.204      -19.649       52.900       47.223       31.797     2798.462     2230.002     1011.040        2.938        0.302      228.776       21.346        0.009      342.933       18.688      867.232
06/28/2013  06:22:00     -147.486     -125.690       -3.858       64.949       53.517       35.940     4218.367     2864.066     1291.665        2.297        0.419      193.778       30.522        0.025      342.938       18.694      867.218
06/28/2013  06:23:00     -130.391     -106.695        3.894       60.724       63.543       31.566     3687.359     4037.664      996.391        1.856        0.436      168.480       30.682        0.033      342.978       18.765      867.220
06/28/2013  06:24:00     -140.220     -119.187       -6.692       55.733       41.513       29.721     3106.209     1723.289      883.365        1.981        0.286      184.031       20.651        0.013      343.032       18.856      867.223
06/28/2013  06:25:00     -151.920      -84.976       -9.065       47.866       42.063       29.094     2291.108     1769.326      846.448        1.764        0.245      174.070       16.864        0.009      343.138       19.036      867.236
06/28/2013  06:26:00     -125.278      -80.817       -0.422       40.758       31.446       29.976     1661.242      988.857      898.552        1.289        0.177      149.084       26.927        0.033      343.102       18.978      867.245
06/28/2013  06:27:00     -131.573      -98.985       -4.699       31.311       42.229       21.015      980.373     1783.273      441.613        1.517        0.160      164.650       20.888        0.016      343.080       18.940      867.251
06/28/2013  06:28:00     -127.973     -103.437       -3.499       38.188       38.827       28.356     1458.310     1507.532      804.075        1.543        0.188      164.549       20.441        0.015      343.093       18.962      867.258
06/28/2013  06:29:00     -109.004      -83.867        3.305       56.632       48.626       30.117     3207.203     2364.519      907.031        1.270        0.324      137.534       31.066        0.051      343.161       19.077      867.251
06/28/2013  06:30:00     -100.768      -92.397       -4.638       32.297       23.904       20.706     1043.088      571.379      428.719        1.038        0.102      136.716       18.590        0.018      343.189       19.126      867.264
06/28/2013  06:31:00      -69.171      -52.976       -0.018       44.486       33.351       23.139     1978.970     1112.294      535.428        0.561        0.181       87.127       24.924        0.082      343.239       19.212      867.268
06/28/2013  06:32:00      -40.206      -39.409        5.434       30.360       26.721       18.300      921.726      714.030      334.891        0.258        0.099       56.300       18.434        0.107      343.297       19.308      867.276
06/28/2013  06:33:00      -31.666      -35.696        8.014       35.098       23.806       18.525     1231.894      566.748      343.163        0.224        0.107       47.717       21.575        0.204      343.323       19.353      867.299
06/28/2013  06:34:00      -70.781      -32.766       -4.687       34.492       14.866       15.357     1189.718      221.003      235.834        0.388        0.082       77.997       15.834        0.041      343.329       19.364      867.304
06/28/2013  06:35:00      -43.524      -26.252       -0.917       34.916       22.919       16.090     1219.153      525.298      258.893        0.229        0.100       50.829       14.797        0.085      343.400       19.485      867.316
06/28/2013  06:36:00      -48.190      -41.084       -0.197       33.725       22.707       15.680     1137.391      515.598      245.874        0.295        0.095       63.326       18.813        0.088      343.427       19.530      867.330
06/28/2013  06:37:00      -68.589      -40.032       -4.380       18.022       20.875        9.593      324.793      435.758       92.028        0.359        0.043       79.417        7.951        0.010      343.328       19.362      867.325
06/28/2013  06:38:00      -70.746        0.168        2.456       22.908       19.398       14.821      524.754      376.266      219.670        0.307        0.056       70.746       10.374        0.022      343.262       19.251      867.334
06/28/2013  06:39:00      -60.913        3.036        2.471       21.783       19.306       13.989      474.483      372.729      195.706        0.238        0.052       60.989       12.449        0.042      343.300       19.314      867.329
06/28/2013  06:40:00      -36.516       -5.678        7.988       22.386       20.295       15.726      501.143      411.896      247.299        0.129        0.058       36.955       14.292        0.150      343.474       19.613      867.334
06/28/2013  06:41:00      -88.727       -6.316        4.417       34.896       25.667       18.555     1217.701      658.816      344.301        0.508        0.111       88.952       18.542        0.043      343.387       19.463      867.341
06/28/2013  06:42:00      -62.965      -11.141        4.616       33.816       22.626       16.555     1143.548      511.932      274.084        0.302        0.096       63.943       16.488        0.066      343.540       19.722      867.343
06/28/2013  06:43:00      -71.827      -27.918        2.383       28.302       24.281       14.014      801.021      589.558      196.394        0.377        0.079       77.062       14.625        0.036      343.455       19.579      867.362
06/28/2013  06:44:00      -77.306      -10.807        4.448       31.957       18.334       18.703     1021.267      336.133      349.785        0.391        0.085       78.058       20.061        0.066      343.533       19.712      867.358
06/28/2013  06:45:00      -84.099      -29.387       -0.303       22.307       19.356       15.712      497.623      374.637      246.866        0.453        0.056       89.085        9.480        0.011      343.568       19.769      867.369
06/28/2013  06:46:00      -79.891      -14.616       -1.505       11.212       14.280       10.089      125.703      203.926      101.790        0.351        0.022       81.217        6.259        0.006      343.536       19.716      867.369
06/28/2013  06:47:00      -72.494      -24.053       -6.278       13.983       14.515       10.055      195.536      210.692      101.111        0.319        0.025       76.381        4.401        0.003      343.587       19.801      867.378
06/28/2013  06:48:00      -93.627      -22.945      -11.896       19.236       15.467        8.878      370.021      239.232       78.827        0.506        0.034       96.398        6.682        0.005      343.626       19.872      867.368
06/28/2013  06:49:00      -60.290      -29.351       -0.673       28.834       16.182       15.773      831.371      261.853      248.789        0.292        0.067       67.055       17.132        0.065      343.631       19.878      867.363
06/28/2013  06:50:00      -88.747      -54.283       -3.186       17.399       19.977       11.994      302.715      399.099      143.848        0.584        0.042      104.032        9.534        0.008      343.646       19.906      867.348
06/28/2013  06:51:00     -107.038      -41.538       -4.521       21.048       21.771       16.235      443.011      473.971      263.567        0.719        0.059      114.816       11.682        0.010      343.661       19.927      867.353
06/28/2013  06:52:00      -85.875      -13.034       -3.245       27.039       14.553       18.221      731.118      211.803      331.999        0.441        0.064       86.859       18.074        0.043      343.728       20.043      867.348
06/28/2013  06:53:00      -90.238      -10.717       -8.097       28.451       15.310       15.186      809.462      234.382      230.629        0.480        0.064       90.872       11.641        0.016      343.713       20.020      867.358
06/28/2013  06:54:00      -40.651      -20.546        1.431       19.191       16.613       12.694      368.291      275.996      161.126        0.144        0.040       45.549       13.283        0.085      343.751       20.083      867.358
06/28/2013  06:55:00      -83.970       -8.749       -2.235       19.911       17.703       11.932      396.436      313.379      142.367        0.399        0.043       84.425        9.511        0.013      343.785       20.144      867.359
06/28/2013  06:56:00      -78.124      -13.435       -3.157       26.092       22.326       15.710      680.794      498.451      246.796        0.386        0.071       79.271       12.362        0.024      343.810       20.184      867.348
06/28/2013  06:57:00      -97.187      -11.954        2.833       26.836       36.965       17.769      720.170     1366.390      315.720        0.600        0.120       97.919       17.018        0.030      343.818       20.197      867.346
06/28/2013  06:58:00      -75.751      -22.633       -0.637       22.090       21.222       11.992      487.974      450.372      143.798        0.367        0.054       79.060        7.165        0.008      343.900       20.339      867.353
06/28/2013  06:59:00      -35.340       -6.335        1.023       38.098       15.010       14.838     1451.455      225.308      220.177        0.159        0.095       35.903       16.612        0.214      344.338       21.086      867.355
06/28/2013  07:00:00      -29.849      -14.841        7.076       22.706       16.207       14.659      515.580      262.668      214.878        0.108        0.050       33.334       17.126        0.264      344.154       20.770      867.363
06/28/2013  07:01:00      -39.954       -8.883        7.152       31.724       18.021       14.120     1006.430      324.745      199.364        0.163        0.077       40.930        9.621        0.055      344.114       20.705      867.361
06/28/2013  07:02:00      -70.751       -2.637       -2.806       19.683       13.697       12.409      387.403      187.597      153.987        0.287        0.036       70.801        9.191        0.017      343.996       20.500      867.363
06/28/2013  07:03:00      -51.673      -32.044        2.222       25.283       18.132       12.794      639.221      328.779      163.697        0.242        0.057       60.802       13.069        0.046      344.078       20.642      867.368
06/28/2013  07:04:00      -53.878      -26.025        1.649       17.834       15.773        8.156      318.050      248.780       66.515        0.211        0.032       59.834        6.678        0.012      344.164       20.788      867.369
06/28/2013  07:05:00      -27.876      -17.264        1.140       15.297       11.095        8.617      234.011      123.092       74.244        0.075        0.022       32.789        5.398        0.027      344.255       20.943      867.377
06/28/2013  07:06:00      -17.696      -20.741        4.896       20.366       22.930       14.156      414.787      525.797      200.398        0.095        0.057       27.264       12.313        0.204      344.390       21.173      867.378
06/28/2013  07:07:00      -39.902      -76.383        0.314       24.021       26.078       17.749      576.995      680.087      315.034        0.450        0.079       86.177       16.615        0.037      344.163       20.787      867.375
06/28/2013  07:08:00      -49.531      -77.181       -0.922       18.210       24.082       16.781      331.615      579.938      281.603        0.480        0.060       91.707       15.498        0.029      344.165       20.790      867.372
06/28/2013  07:09:00      -59.363      -74.655       -0.347       29.819       30.045       19.524      889.195      902.714      381.177        0.563        0.109       95.380       20.152        0.045      344.204       20.858      867.367
06/28/2013  07:10:00      -55.757      -75.018       -8.855       21.558       22.353       12.232      464.730      499.634      149.621        0.496        0.056       93.470        8.501        0.008      344.180       20.815      867.369
06/28/2013  07:11:00      -45.078      -74.411        1.128       16.400       23.336       17.634      268.962      544.563      310.969        0.435        0.056       87.000        8.706        0.010      344.234       20.908      867.368
06/28/2013  07:12:00      -70.670      -76.517       -2.467       28.790       22.108       16.484      828.877      488.753      271.728        0.622        0.079      104.159       14.320        0.019      344.216       20.878      867.370
06/28/2013  07:13:00      -62.338      -50.632        2.020       28.671       28.316       19.432      822.048      801.795      377.599        0.423        0.100       80.310       19.959        0.062      344.320       21.055      867.371
06/28/2013  07:14:00      -36.995      -27.483       14.755       32.370       25.665       15.807     1047.820      658.711      249.858        0.215        0.098       46.086       16.177        0.123      344.427       21.238      867.372
06/28/2013  07:15:00      -64.810      -64.036       -4.520       25.216       19.012       13.404      635.837      361.440      179.677        0.475        0.059       91.109        6.378        0.005      344.313       21.044      867.384
06/28/2013  07:16:00      -21.166      -19.792       12.525       27.809       18.851       14.842      773.333      355.364      220.271        0.117        0.067       28.978       16.269        0.315      344.543       21.437      867.383
06/28/2013  07:17:00      -41.385      -50.296        2.196       18.648       22.495       10.007      347.731      506.004      100.141        0.260        0.048       65.133        9.030        0.019      344.354       21.114      867.392
06/28/2013  07:18:00      -41.443      -39.452       -6.731       15.395       22.400        9.459      237.018      501.753       89.470        0.207        0.041       57.219        6.082        0.011      344.349       21.105      867.385
06/28/2013  07:19:00      -28.366      -52.408        4.336       27.982       33.706       13.101      782.983     1136.087      171.648        0.283        0.105       59.592        9.468        0.025      344.432       21.247      867.379
06/28/2013  07:20:00      -33.892      -81.592        1.829       19.720       21.572       14.707      388.894      465.354      216.302        0.444        0.054       88.351        8.172        0.009      344.369       21.142      867.378
06/28/2013  07:21:00        9.382      -41.372       10.843       19.152       24.063       17.135      366.788      579.041      293.616        0.158        0.062       42.423       12.442        0.086      344.666       21.648      867.369
06/28/2013  07:22:00      -21.173      -56.521        3.169       25.927       22.413       16.068      672.220      502.331      258.190        0.254        0.072       60.357       12.786        0.045      344.568       21.479      867.370
06/28/2013  07:23:00      -18.057      -35.305        1.454       22.943       21.187       12.926      526.377      448.897      167.086        0.136        0.057       39.655       11.160        0.079      344.516       21.389      867.376
06/28/2013  07:24:00      -26.962      -29.917        1.068       27.801       32.686       15.212      772.878     1068.385      231.412        0.185        0.104       40.273       11.519        0.082      344.604       21.542      867.378
06/28/2013  07:25:00      -38.801      -33.820       12.714       30.970       22.741       18.551      959.143      517.141      344.142        0.232        0.091       51.472       15.898        0.095      344.504       21.369      867.373
06/28/2013  07:26:00      -31.029      -68.331        8.222       36.900       55.730       21.226     1361.585     3105.788      450.531        0.531        0.246       75.046       31.552        0.177      344.595       21.526      867.363
06/28/2013  07:27:00      -24.911      -72.777        3.081       33.764       40.724       23.425     1140.034     1658.449      548.752        0.464        0.167       76.922       21.966        0.082      344.384       21.164      867.358
06/28/2013  07:28:00      -50.613      -61.785        1.836       31.839       30.982       20.139     1013.694      959.878      405.596        0.438        0.119       79.870       17.608        0.049      344.390       21.175      867.349
06/28/2013  07:29:00      -20.053      -43.494        7.969       25.041       31.482       15.493      627.075      991.127      240.024        0.211        0.093       47.894       15.844        0.109      344.683       21.675      867.348
06/28/2013  07:30:00      -45.944      -26.937        1.872       27.070       24.933       13.705      732.771      621.650      187.824        0.219        0.077       53.258        6.980        0.017      344.556       21.460      867.335
06/28/2013  07:31:00      -49.506      -23.059       -2.198       17.333       15.913       12.209      300.437      253.235      149.062        0.184        0.035       54.613       10.877        0.040      344.565       21.474      867.324
06/28/2013  07:32:00      -29.645      -18.130        7.497       19.175       14.570       13.893      367.680      212.296      193.017        0.102        0.039       34.750       12.113        0.121      344.943       22.121      867.328
06/28/2013  07:33:00      -15.078      -20.124        5.336       13.653       12.200       10.356      186.414      148.844      107.237        0.055        0.022       25.146        5.519        0.048      344.767       21.820      867.329
06/28/2013  07:34:00      -31.291      -10.085        1.388       17.527       13.071       11.968      307.211      170.851      143.237        0.085        0.031       32.876       10.111        0.095      344.673       21.659      867.342
06/28/2013  07:35:00      -32.505       23.985       11.882       16.640       16.729       16.761      276.891      279.854      280.947        0.131        0.042       40.396       12.703        0.099      344.960       22.150      867.355
06/28/2013  07:36:00      -14.359       10.688       29.840       14.534       24.401       14.006      211.230      595.393      196.157        0.111        0.050       17.900        9.028        0.254      345.625       23.290      867.358
06/28/2013  07:37:00       -2.633        2.787       41.109       17.535       22.386       11.892      307.473      501.147      141.428        0.133        0.048        3.834        8.455        4.863      345.529       23.123      867.362
06/28/2013  07:38:00       -5.301        6.570       35.590        8.880       15.923        9.750       78.857      253.534       95.061        0.088        0.021        8.442        5.644        0.447      345.950       23.848      867.351
06/28/2013  07:39:00      -18.199       12.219       26.049       14.318       11.692       14.812      205.014      136.709      219.399        0.086        0.028       21.920        9.689        0.195      345.414       22.930      867.349
06/28/2013  07:40:00      -12.123        8.036       22.182       12.876       16.928       14.265      165.791      286.567      203.503        0.068        0.033       14.545        7.816        0.289      345.651       23.335      867.334
06/28/2013  07:41:00       -3.327       28.011       22.680       24.493       23.564       19.455      599.901      555.252      378.480        0.142        0.077       28.207       18.686        0.439      345.378       22.866      867.331
06/28/2013  07:42:00        2.706       28.179       39.326       30.634       30.046       12.702      938.415      902.783      161.334        0.217        0.100       28.309        8.850        0.098      345.291       22.717      867.322
06/28/2013  07:43:00      -10.126        8.700       37.538       15.392       30.043       16.143      236.926      902.601      260.581        0.149        0.070       13.350       16.157        1.465      345.631       23.302      867.321
06/28/2013  07:44:00       -0.215       44.166       57.873       25.588       24.838       13.266      654.765      616.909      175.990        0.337        0.072       44.167       11.586        0.069      345.364       22.843      867.330
06/28/2013  07:45:00       -7.750        8.308       32.422       15.283       29.029       12.716      233.569      842.686      161.692        0.121        0.062       11.362        6.788        0.357      345.505       23.084      867.328
06/28/2013  07:46:00       -7.660       -2.670       26.996       13.334       11.648       11.193      177.809      135.668      125.289        0.062        0.022        8.112        3.666        0.204      345.821       23.626      867.335
06/28/2013  07:47:00      -15.882       -8.913       10.107        9.594       11.009       17.029       92.039      121.189      289.991        0.047        0.025       18.212       11.047        0.368      345.342       22.805      867.330
06/28/2013  07:48:00      -15.078      -15.897       -2.820       11.389       11.064        9.700      129.699      122.410       94.086        0.042        0.017       21.911        7.332        0.112      345.074       22.344      867.319
06/28/2013  07:49:00       -4.315        3.128       16.196       17.096        9.983       13.875      292.288       99.659      192.518        0.044        0.029        5.330        5.285        0.983      345.704       23.425      867.323
06/28/2013  07:50:00       14.033        5.294       29.505       21.428       13.626       18.593      459.164      185.662      345.691        0.104        0.050       14.998       13.354        0.793      346.122       24.145      867.324
06/28/2013  07:51:00      -17.976        9.234       10.410       22.772        8.782       15.672      518.568       77.132      245.614        0.068        0.042       20.209       12.829        0.403      345.385       22.879      867.325
06/28/2013  07:52:00      -41.549       10.544        8.098       11.814        8.853       14.758      139.578       78.368      217.786        0.117        0.022       42.866        9.635        0.051      345.076       22.348      867.333
06/28/2013  07:53:00      -38.496       -0.709       -0.316        9.472       12.519        7.805       89.712      156.732       60.913        0.089        0.015       38.503        6.699        0.030      344.966       22.160      867.327
06/28/2013  07:54:00      -35.913       -4.147        1.256       11.876       11.530       13.695      141.039      132.932      187.557        0.088        0.023       36.152        9.890        0.075      345.211       22.579      867.332
06/28/2013  07:55:00      -22.730       -5.221        1.531       11.383       10.522       10.763      129.571      110.706      115.837        0.045        0.018       23.322        7.945        0.116      345.360       22.837      867.335
06/28/2013  07:56:00      -11.502       -8.837       17.638       14.214       15.577       13.641      202.039      242.647      186.074        0.058        0.032       14.505        8.850        0.372      346.112       24.127      867.344
06/28/2013  07:57:00      -51.621      -13.837       -5.230       13.656        8.636        7.071      186.496       74.577       50.002        0.160        0.016       53.444        4.693        0.008      345.114       22.413      867.349
06/28/2013  07:58:00      -45.281      -20.959        3.358       18.063       20.822       16.219      326.259      433.543      263.058        0.176        0.051       49.896       14.730        0.087      345.339       22.800      867.351
06/28/2013  07:59:00      -40.303      -10.395       -6.828       11.614       15.708        8.770      134.893      246.748       76.916        0.112        0.023       41.622        6.345        0.023      345.195       22.552      867.350
06/28/2013  08:00:00      -23.581       -0.665        0.951        9.622       14.768        8.041       92.588      218.095       64.650        0.047        0.019       23.590        5.774        0.060      345.285       22.706      867.349
06/28/2013  08:01:00      -34.569        0.926       -0.922        8.605        6.934        7.944       74.048       48.078       63.105        0.069        0.009       34.582        2.348        0.005      345.233       22.618      867.350
06/28/2013  08:02:00      -44.729      -32.226        0.005       13.874       15.069       11.696      192.481      227.068      136.797        0.180        0.028       55.128        9.664        0.031      345.212       22.580      867.350
06/28/2013  08:03:00       -7.190      -13.987       -4.294       12.938       12.298        8.290      167.400      151.250       68.727        0.033        0.019       15.727        6.028        0.147      345.545       23.153      867.348
06/28/2013  08:04:00      -31.513      -28.546       -5.152       17.160       16.370       17.101      294.465      267.967      292.437        0.134        0.043       42.520       13.964        0.108      345.373       22.856      867.351
06/28/2013  08:05:00      -57.407      -15.175       -6.692       15.707        9.891        9.319      246.717       97.828       86.838        0.200        0.022       59.379        5.585        0.009      345.250       22.646      867.347
06/28/2013  08:06:00     -102.921      -53.916       -6.632       23.492       18.332        9.697      551.881      336.066       94.040        0.726        0.049      116.188        6.057        0.003      345.252       22.648      867.353
06/28/2013  08:07:00      -79.709      -44.613       -2.067       23.807       21.538       14.348      566.765      463.885      205.867        0.479        0.062       91.345       13.908        0.023      345.306       22.743      867.340
06/28/2013  08:08:00      -84.760      -40.527        7.601       33.671       34.138       20.859     1133.736     1165.398      435.100        0.581        0.137       93.951       21.851        0.054      345.493       23.062      867.326
06/28/2013  08:09:00      -44.285      -35.137       11.262       35.040       43.098       24.936     1227.788     1857.454      621.819        0.351        0.185       56.531       23.516        0.173      345.810       23.607      867.319
06/28/2013  08:10:00      -37.074      -49.788        7.570       51.617       32.397       29.672     2664.298     1049.575      880.443        0.425        0.230       62.075       32.117        0.268      345.706       23.427      867.304
06/28/2013  08:11:00      -61.163      -29.669       -5.359       48.083       25.954       17.930     2311.994      673.588      321.484        0.398        0.165       67.979       18.414        0.073      345.500       23.075      867.299
06/28/2013  08:12:00      -11.083      -18.767       21.866       24.677       26.910       20.634      608.978      724.138      425.769        0.136        0.088       21.795       21.961        1.015      346.494       24.783      867.288
06/28/2013  08:13:00        4.348      -44.490       -3.616       26.991       28.372       24.035      728.522      804.969      577.704        0.206        0.106       44.702       16.462        0.136      345.708       23.433      867.265
06/28/2013  08:14:00      -45.662      -37.468        4.183       26.370       22.650       22.011      695.392      513.013      484.470        0.260        0.085       59.067        9.089        0.024      345.570       23.195      867.259
06/28/2013  08:15:00      -48.152       -0.429       -1.253       16.277       18.713       12.803      264.932      350.185      163.910        0.155        0.039       48.154       10.833        0.051      345.547       23.155      867.262
06/28/2013  08:16:00      -25.905      -32.434       -1.110       13.099       18.779       13.016      171.588      352.660      169.422        0.121        0.035       41.510        6.064        0.021      345.529       23.123      867.265
06/28/2013  08:17:00      -51.121        9.613       12.975       32.237       17.735       20.758     1039.244      314.542      430.881        0.233        0.089       52.017       20.781        0.160      345.837       23.654      867.277
06/28/2013  08:18:00       36.921       -1.127       21.155       39.798       22.531       22.114     1583.852      507.636      489.023        0.220        0.129       36.938       15.244        0.170      345.712       23.441      867.287
06/28/2013  08:19:00       -7.606      -35.854        2.602       29.997       28.078       22.391      899.796      788.374      501.363        0.177        0.109       36.652       18.440        0.253      345.665       23.358      867.289
06/28/2013  08:20:00      -64.172      -20.945       -4.465       24.835       22.972       16.168      616.757      527.730      261.408        0.299        0.070       67.504       11.891        0.031      345.620       23.283      867.290
06/28/2013  08:21:00     -101.325       16.965        1.696       31.595       18.067       14.027      998.227      326.406      196.749        0.604        0.076      102.736       13.804        0.018      345.507       23.087      867.293
06/28/2013  08:22:00      -32.681        8.400       31.915       39.067       21.963       18.750     1526.258      482.371      351.570        0.226        0.118       33.743        7.183        0.045      346.317       24.479      867.292
06/28/2013  08:23:00      -27.781       -5.066        3.089       21.820       29.197       24.547      476.124      852.479      602.548        0.137        0.097       28.239       10.896        0.149      346.097       24.100      867.297
06/28/2013  08:24:00      -21.120      -11.348        6.206       12.936       18.418       13.329      167.347      339.239      177.657        0.065        0.034       23.976        8.416        0.123      345.854       23.682      867.296
06/28/2013  08:25:00      -13.898      -32.050        3.648       29.532       19.921       19.233      872.136      396.828      369.894        0.144        0.082       34.934        8.668        0.062      345.841       23.660      867.299
06/28/2013  08:26:00      -70.213      -27.073        4.234       28.332       31.567       17.951      802.724      996.446      322.223        0.390        0.106       75.251        6.836        0.008      345.703       23.422      867.294
06/28/2013  08:27:00      -39.066      -35.074        4.727       28.321       25.938       17.339      802.072      672.787      300.629        0.228        0.089       52.500       19.415        0.137      346.154       24.198      867.297
06/28/2013  08:28:00      -19.945      -10.802       13.579       22.555       15.901       22.470      508.746      252.849      504.917        0.098        0.063       22.682       19.246        0.720      346.437       24.685      867.292
06/28/2013  08:29:00      -10.663        4.689       27.632       18.376       16.969       17.384      337.686      287.958      302.202        0.091        0.046       11.649       12.829        1.213      347.042       25.727      867.279
06/28/2013  08:30:00      -14.357       11.746       21.777       23.165       19.857       22.201      536.612      394.318      492.870        0.112        0.071       18.550       10.619        0.328      346.286       24.425      867.277
06/28/2013  08:31:00        2.021       39.787       59.374       37.459       36.315       29.481     1403.178     1318.811      869.126        0.435        0.180       39.838       18.681        0.220      346.404       24.627      867.273
06/28/2013  08:32:00       36.769       33.373       50.027       37.914       44.081       27.332     1437.470     1943.098      747.045        0.455        0.206       49.656       22.664        0.208      346.191       24.261      867.274
06/28/2013  08:33:00       11.159       27.153       47.327       33.517       32.337       23.195     1123.404     1045.706      537.988        0.290        0.135       29.357       19.058        0.421      346.373       24.575      867.279
06/28/2013  08:34:00       10.605       15.510        4.595       44.467       26.997       30.717     1977.326      728.859      943.517        0.201        0.182       18.788        9.994        0.283      346.063       24.041      867.280
06/28/2013  08:35:00       12.911       33.187       -5.389       19.438       21.160       23.974      377.855      447.741      574.749        0.135        0.070       35.610       15.935        0.200      346.089       24.086      867.277
06/28/2013  08:36:00        2.383       14.809      -10.967       13.030       27.564       26.336      169.787      759.789      693.587        0.098        0.081       15.000       22.170        2.184      346.359       24.551      867.261
06/28/2013  08:37:00      -34.240       16.137        1.807       20.102       20.732       18.341      404.092      429.800      336.392        0.130        0.059       37.852       14.739        0.152      346.229       24.326      867.252
06/28/2013  08:38:00      -32.625        9.744      -15.959        9.463       11.294       11.989       89.539      127.544      143.730        0.089        0.018       34.049       10.037        0.087      346.069       24.050      867.235
06/28/2013  08:39:00      -16.656       13.094       35.581       13.160       16.029       19.314      173.186      256.934      373.049        0.126        0.040       21.187       10.620        0.251      347.322       26.210      867.238
06/28/2013  08:40:00      -18.039       10.321       29.487       14.751       23.324       21.303      217.594      544.029      453.805        0.126        0.061       20.783       17.303        0.693      347.039       25.721      867.237
06/28/2013  08:41:00      -51.033      -41.287        5.336       27.578       36.931       20.658      760.532     1363.878      426.753        0.344        0.128       65.643       16.694        0.065      346.262       24.383      867.243
06/28/2013  08:42:00      -43.439      -37.166       15.216       41.241       38.780       20.178     1700.798     1503.892      407.139        0.356        0.181       57.169       19.414        0.115      346.600       24.964      867.243
06/28/2013  08:43:00      -67.949      -44.383       -6.787       20.478       26.071       16.115      419.341      679.679      259.699        0.400        0.068       81.159       13.393        0.027      346.156       24.201      867.247
06/28/2013  08:44:00      -52.262       -1.086       11.632       35.836       21.702       19.340     1284.190      470.961      374.027        0.250        0.106       52.274       19.530        0.140      346.772       25.262      867.246
06/28/2013  08:45:00      -23.863      -14.616        7.729       31.076       17.628       19.849      965.740      310.743      393.983        0.126        0.084       27.984       18.297        0.428      346.630       25.015      867.248
06/28/2013  08:46:00      -59.053      -43.795        7.053       40.603       42.162       21.092     1648.607     1777.605      444.859        0.466        0.194       73.521       23.944        0.106      346.396       24.615      867.249
06/28/2013  08:47:00      -78.192      -12.626       -8.034       23.621       18.865       21.081      557.972      355.892      444.410        0.385        0.068       79.205       13.417        0.029      346.186       24.253      867.247
06/28/2013  08:48:00      -49.613       21.459        3.031       15.605       21.049       13.937      243.527      443.073      194.230        0.191        0.044       54.055       13.333        0.061      346.236       24.339      867.233
06/28/2013  08:49:00      -48.048       18.036        8.761       26.985       21.261       19.904      728.201      452.044      396.155        0.214        0.079       51.322       15.890        0.096      346.502       24.795      867.232
06/28/2013  08:50:00       -3.756      -25.300        8.353       22.710       33.231       33.036      515.765     1104.285     1091.374        0.172        0.136       25.577       17.474        0.467      346.980       25.619      867.227
06/28/2013  08:51:00       19.112        0.153       42.856       33.158       41.233       30.429     1099.435     1700.187      925.895        0.296        0.186       19.112       27.724        2.104      347.553       26.608      867.225
06/28/2013  08:52:00       -0.221      -15.055        0.553       67.284       33.833       25.061     4527.192     1144.653      628.059        0.326        0.315       15.057       21.826        2.101      346.629       25.015      867.220
06/28/2013  08:53:00      -81.280       -6.222        2.001       29.435       22.424       14.592      866.394      502.819      212.938        0.412        0.079       81.517       15.439        0.036      346.403       24.627      867.227
06/28/2013  08:54:00      -41.507       -3.261        7.018       31.012       26.248       21.168      961.752      688.953      448.102        0.194        0.105       41.635       12.586        0.091      346.859       25.412      867.218
06/28/2013  08:55:00      -27.911        4.131        6.213       32.577       25.839       31.858     1061.289      667.656     1014.946        0.179        0.137       28.216       26.237        0.865      347.417       26.374      867.215
06/28/2013  08:56:00      -10.297        3.988        5.876       41.085       26.402       25.127     1687.946      697.042      631.389        0.159        0.151       11.042       10.253        0.862      347.064       25.764      867.200
06/28/2013  08:57:00      -54.882      -24.462       10.040       43.170       49.453       20.169     1863.679     2445.624      406.806        0.421        0.236       60.087       19.403        0.104      346.699       25.135      867.191
06/28/2013  08:58:00      -33.573      -32.604       -2.552       13.589       36.164       15.165      184.650     1307.809      229.977        0.196        0.086       46.800       12.727        0.074      346.464       24.728      867.177
06/28/2013  08:59:00      -24.435       -1.758       -0.058       25.703       19.284       12.906      660.640      371.882      166.571        0.090        0.060       24.498       11.919        0.237      346.981       25.620      867.167
06/28/2013  09:00:00      -25.168       -9.518       12.355       29.141       15.039       20.058      849.214      226.164      402.339        0.118        0.074       26.907       20.811        0.598      347.427       26.391      867.162
06/28/2013  09:01:00      -20.603        2.823       13.974       18.302       17.196       17.941      334.965      295.717      321.889        0.079        0.048       20.796       15.752        0.574      347.383       26.315      867.160
06/28/2013  09:02:00      -10.809       -6.360        1.257       30.159       16.476       17.522      909.591      271.473      307.010        0.082        0.074       12.541       10.046        0.642      347.212       26.019      867.156
06/28/2013  09:03:00      -60.795      -47.184       -5.469       35.574       23.147       21.399     1265.489      535.763      457.910        0.411        0.113       76.957       17.610        0.052      346.719       25.168      867.154
06/28/2013  09:04:00      -62.599      -32.188       -7.518       15.443       17.359       13.054      238.480      301.334      170.398        0.286        0.036       70.390        5.723        0.007      346.554       24.885      867.147
06/28/2013  09:05:00      -18.184       13.326       15.875       15.747       18.294       22.094      247.962      334.678      488.141        0.092        0.054       22.544       13.502        0.359      347.549       26.600      867.134
06/28/2013  09:06:00      -21.598        8.421       13.627       24.714       17.177       20.433      610.785      295.033      417.489        0.102        0.066       23.182       18.237        0.619      347.440       26.413      867.122
06/28/2013  09:07:00      -37.365       -8.963       13.523       31.073       32.030       25.365      965.515     1025.932      643.365        0.215        0.132       38.425       23.521        0.375      347.310       26.188      867.109
06/28/2013  09:08:00      -61.874      -31.913       -1.927       34.663       21.112       14.738     1201.508      445.714      217.211        0.336        0.093       69.619       15.088        0.047      346.914       25.505      867.108
06/28/2013  09:09:00      -75.330      -47.726        1.367       39.278       21.418       20.866     1542.760      458.743      435.403        0.520        0.122       89.176       14.430        0.026      346.859       25.411      867.090
06/28/2013  09:10:00      -86.683      -46.681        2.581       38.016       36.869       19.820     1445.197     1359.331      392.850        0.645        0.160       98.454       19.548        0.039      346.900       25.481      867.073
06/28/2013  09:11:00      -87.055      -45.166        0.965       27.131       28.209       20.692      736.104      795.763      428.140        0.579        0.098       98.074       11.689        0.014      346.833       25.363      867.051
06/28/2013  09:12:00      -92.058       -6.648       -4.222       23.738       43.608       16.278      563.510     1901.658      264.964        0.563        0.137       92.298       18.956        0.042      346.758       25.234      867.046
06/28/2013  09:13:00      -20.306      -42.448        4.848       26.704       36.466       15.725      713.123     1329.799      247.284        0.226        0.115       47.055       18.860        0.161      347.059       25.756      867.026
06/28/2013  09:14:00        2.599      -57.795       13.638       20.322       32.871       19.778      412.994     1080.488      391.186        0.271        0.094       57.853       18.700        0.104      347.052       25.743      867.019
06/28/2013  09:15:00        1.736      -55.885        4.213       11.272       24.840       11.734      127.055      617.007      137.690        0.201        0.044       55.912        6.381        0.013      346.912       25.500      867.005
06/28/2013  09:16:00      -30.774      -45.023        8.721       27.803       30.511       21.406      772.980      930.906      458.198        0.261        0.108       54.535       19.293        0.125      347.029       25.703      867.008
06/28/2013  09:17:00      -47.679       -7.857        0.656       29.722       22.866       13.681      883.421      522.867      187.178        0.196        0.080       48.322        4.681        0.009      347.063       25.762      866.997
06/28/2013  09:18:00      -56.322        4.591      -10.715       15.416        9.788        9.761      237.647       95.805       95.287        0.187        0.021       56.508        5.647        0.010      346.899       25.479      867.002
06/28/2013  09:19:00      -16.976        9.545       10.026       20.986       17.945       19.639      440.396      322.010      385.683        0.081        0.057       19.476        7.395        0.144      347.666       26.803      866.991
06/28/2013  09:20:00      -27.296      -16.644      -12.211       30.542       29.295       27.697      932.807      858.202      767.103        0.186        0.128       31.970       17.201        0.290      347.182       25.965      866.984
06/28/2013  09:21:00      -31.210       17.241        4.059       22.003       19.485       20.188      484.112      379.673      407.570        0.128        0.064       35.656       14.020        0.155      347.680       26.828      866.975
06/28/2013  09:22:00      -26.744       13.109       14.928       17.478       13.690       19.821      305.490      187.425      392.857        0.100        0.044       29.784       14.338        0.232      347.866       27.148      866.964
06/28/2013  09:23:00      -23.365       -2.296        3.070       18.300       22.184       17.784      334.878      492.123      316.254        0.085        0.057       23.478       13.586        0.335      347.671       26.812      866.965
06/28/2013  09:24:00       33.433      -22.029       37.511       37.147       54.539       25.178     1379.902     2974.493      633.949        0.400        0.249       40.038       20.645        0.266      347.451       26.431      866.952
06/28/2013  09:25:00       24.065      -11.298       -1.788       23.910       21.631       22.783      571.704      467.879      519.044        0.113        0.078       26.585        5.160        0.038      347.423       26.383      866.939
06/28/2013  09:26:00       49.147      -21.809        9.147       38.588       39.714       40.520     1489.035     1577.240     1641.840        0.384        0.235       53.768       24.918        0.215      347.384       26.315      866.923
06/28/2013  09:27:00       69.306       -2.429       15.565       36.804       26.831       35.461     1354.540      719.920     1257.464        0.419        0.167       69.349       26.515        0.146      347.250       26.084      866.917
06/28/2013  09:28:00       17.933      -20.711       36.640       38.546       38.134       26.181     1485.796     1454.190      685.461        0.286        0.181       27.396       16.368        0.357      347.644       26.764      866.904
06/28/2013  09:29:00      -28.238        7.119       23.976       28.354       32.585       30.525      803.975     1061.812      931.766        0.211        0.140       29.122       25.970        0.795      347.740       26.929      866.893
06/28/2013  09:30:00       -0.825      -10.052       13.212       27.231       20.246       17.522      741.513      409.893      307.016        0.087        0.073       10.086       12.286        1.484      347.892       27.193      866.878
06/28/2013  09:31:00        8.397      -26.468       36.368       33.254       48.433       34.416     1105.802     2345.757     1184.474        0.336        0.232       27.768       23.505        0.717      348.144       27.627      866.859
06/28/2013  09:32:00       40.295      -56.136        2.762       36.008       28.725       26.013     1296.557      825.110      676.662        0.379        0.140       69.101       10.461        0.023      347.256       26.093      866.846
06/28/2013  09:33:00       20.507       15.761        5.386       28.934       35.969       29.586      837.150     1293.779      875.348        0.185        0.150       25.864       19.434        0.565      347.652       26.777      866.829
06/28/2013  09:34:00       83.413       48.118       36.179       38.561       36.344       35.723     1486.915     1320.852     1276.105        0.733        0.204       96.297       18.814        0.038      347.735       26.920      866.813
06/28/2013  09:35:00      108.868       55.640       17.246       69.611       46.091       29.000     4845.725     2124.415      840.987        1.153        0.391      122.262       26.734        0.048      347.704       26.866      866.789
06/28/2013  09:36:00       97.508       79.752       10.841       54.102       41.383       35.962     2927.055     1712.563     1293.279        1.096        0.297      125.969       20.742        0.027      347.491       26.499      866.782
06/28/2013  09:37:00       88.700       73.402       39.683       52.819       44.218       30.642     2789.892     1955.247      938.917        1.026        0.284      115.132       15.139        0.017      347.689       26.842      866.763
06/28/2013  09:38:00       23.887       26.023       22.759       53.288       45.108       29.551     2839.619     2034.699      873.249        0.376        0.287       35.324       11.212        0.101      348.002       27.381      866.754
06/28/2013  09:39:00      111.121       71.399       13.318       67.577       34.608       51.165     4566.677     1197.697     2617.890        1.300        0.419      132.083       40.769        0.095      347.874       27.159      866.737
06/28/2013  09:40:00       81.882       80.163        5.248       45.311       38.618       32.934     2053.120     1491.360     1084.624        0.889        0.231      114.589       19.848        0.030      347.685       26.834      866.735
06/28/2013  09:41:00      109.641       91.471       39.672       52.600       27.319       36.808     2766.710      746.303     1354.850        1.341        0.243      142.787       21.467        0.023      347.481       26.482      866.717
06/28/2013  09:42:00       92.341       77.579       15.830       54.884       48.837       41.625     3012.296     2385.054     1732.622        1.096        0.356      120.604       31.678        0.069      347.713       26.883      866.708
06/28/2013  09:43:00       81.828       43.079        3.363       42.426       43.064       27.277     1800.008     1854.532      744.043        0.648        0.220       92.475       19.370        0.044      347.802       27.036      866.691
06/28/2013  09:44:00      134.467       83.601        9.711       57.726       55.222       36.830     3332.313     3049.497     1356.472        1.645        0.387      158.337       21.474        0.018      347.566       26.628      866.680
06/28/2013  09:45:00      116.485       71.982       13.689       32.251       27.133       38.051     1040.137      736.221     1447.874        1.108        0.161      136.931       16.145        0.014      347.453       26.434      866.680
06/28/2013  09:46:00       91.697       60.985        9.536       43.334       29.536       33.966     1877.821      872.381     1153.696        0.806        0.195      110.125       27.148        0.061      347.528       26.562      866.672
06/28/2013  09:47:00       28.717      -18.129        7.110       29.678       25.145       28.551      880.760      632.258      815.157        0.177        0.116       33.961       16.291        0.230      347.667       26.802      866.662
06/28/2013  09:48:00       51.585       26.711       37.856       44.782       34.472       28.727     2005.413     1188.353      825.242        0.441        0.201       58.091       16.390        0.080      347.952       27.296      866.649
06/28/2013  09:49:00      123.911      100.947       31.091       36.528       29.168       28.651     1334.275      850.753      820.904        1.476        0.150      159.825       22.880        0.020      347.542       26.586      866.639
06/28/2013  09:50:00       71.680       81.134       -2.589       43.380       39.258       31.643     1881.818     1541.222     1001.296        0.808        0.221      108.263       23.152        0.046      347.730       26.912      866.633
06/28/2013  09:51:00       21.762      -13.966       19.449       23.187       56.715       29.671      537.645     3216.555      880.394        0.284        0.232       25.858       10.301        0.159      347.954       27.298      866.627
06/28/2013  09:52:00      -19.588      -59.045        7.455       22.419       16.246       15.964      502.605      263.925      254.844        0.247        0.051       62.209        8.394        0.018      347.618       26.717      866.619
06/28/2013  09:53:00      -14.480      -21.687        0.310       21.037       12.946       18.552      442.546      167.603      344.187        0.082        0.048       26.077       13.822        0.281      347.828       27.080      866.605
06/28/2013  09:54:00       -9.203       -1.477       31.994       17.727       12.453        8.705      314.258      155.083       75.779        0.083        0.027        9.321        5.437        0.340      348.900       28.934      866.585
06/28/2013  09:55:00       19.275       -0.690       27.361       26.749       28.184       19.435      715.495      794.336      377.712        0.150        0.094       19.288       10.253        0.283      348.575       28.372      866.586
06/28/2013  09:56:00       72.361       42.669       35.545       34.918       34.670       34.766     1219.280     1202.025     1208.709        0.597        0.182       84.004       14.450        0.030      348.025       27.421      866.571
06/28/2013  09:57:00       52.108       77.865       89.527       48.270       47.008       37.905     2330.006     2209.736     1436.817        1.138        0.299       93.692       27.779        0.088      347.985       27.350      866.562
06/28/2013  09:58:00      162.337      101.709       44.834       65.779       48.929       48.153     4326.895     2394.038     2318.685        2.387        0.452      191.568       13.567        0.005      347.791       27.014      866.561
06/28/2013  09:59:00       22.744      -14.262        1.000       35.425       39.329       35.187     1254.927     1546.736     1238.135        0.238        0.202       26.846       24.157        0.810      347.848       27.114      866.556
06/28/2013  10:00:00       36.004      -34.225       14.266       25.948       46.900       37.146      673.273     2199.573     1379.861        0.346        0.213       49.675       33.717        0.461      348.248       27.807      866.553
06/28/2013  10:01:00       44.609       42.098       39.269       55.546       37.729       34.071     3085.390     1423.510     1160.800        0.549        0.283       61.337       31.347        0.261      348.470       28.192      866.528
06/28/2013  10:02:00      122.313       79.860       14.840       66.813       60.707       43.462     4463.929     3685.282     1888.958        1.580        0.502      146.075       28.645        0.038      348.273       27.848      866.523
06/28/2013  10:03:00      178.909       95.095       13.229       74.705       47.098       44.809     5580.796     2218.246     2007.808        2.551        0.490      202.612       28.912        0.020      348.200       27.720      866.501
06/28/2013  10:04:00      180.179      125.174       20.612       58.949       63.514       44.019     3474.985     4034.057     1937.683        2.900        0.472      219.392       31.406        0.020      348.076       27.506      866.488
06/28/2013  10:05:00      105.941       80.300       15.829       29.562       28.046       30.902      873.920      786.600      954.956        1.027        0.131      132.934       14.122        0.011      347.834       27.092      866.491
06/28/2013  10:06:00       64.873       64.227       12.111       37.806       31.408       37.434     1429.320      986.440     1401.274        0.615        0.191       91.289       25.364        0.077      347.788       27.012      866.476
06/28/2013  10:07:00        5.952       26.415       18.595       17.297       32.173       20.031      299.176     1035.108      401.241        0.141        0.087       27.078       18.272        0.455      348.523       28.282      866.476
06/28/2013  10:08:00       -3.739        2.219       22.188       18.709       21.021       20.738      350.029      441.886      430.066        0.087        0.061        4.348       17.321       15.869      348.996       29.101      866.455
06/28/2013  10:09:00      -22.239       -3.006       18.217       29.470       19.823       20.328      868.503      392.952      413.231        0.125        0.084       22.441       12.892        0.330      348.752       28.677      866.457
06/28/2013  10:10:00       37.149       47.266       29.893       60.016       55.472       35.105     3601.922     3077.098     1232.374        0.621        0.396       60.118       20.667        0.118      348.329       27.946      866.451
06/28/2013  10:11:00       24.049      -23.694       -0.122       27.978       44.142       28.730      782.776     1948.533      825.407        0.235        0.178       33.760       10.362        0.094      348.199       27.720      866.444
06/28/2013  10:12:00       33.859       30.796       29.049       39.563       24.605       22.786     1565.241      605.428      519.182        0.281        0.134       45.769       12.606        0.076      348.827       28.808      866.444
06/28/2013  10:13:00       48.186       23.815      -19.193       30.591       62.187       27.777      935.821     3867.203      771.549        0.441        0.279       53.750       18.471        0.118      348.089       27.531      866.443
06/28/2013  10:14:00       -8.991      -30.084       13.709       13.208       19.543       13.992      174.441      381.946      195.771        0.096        0.038       31.398        7.397        0.055      348.394       28.057      866.435
06/28/2013  10:15:00       -4.516       18.921       24.335       20.264       27.969       23.516      410.642      782.246      553.011        0.136        0.087       19.453       22.786        1.372      349.139       29.347      866.424
06/28/2013  10:16:00       56.505       74.206        3.724       52.324       41.837       32.541     2737.794     1750.326     1058.898        0.713        0.277       93.270       27.647        0.088      348.616       28.440      866.415
06/28/2013  10:17:00       -9.587       30.391       20.156       30.821       31.557       24.547      949.906      995.834      602.552        0.198        0.127       31.867       18.297        0.330      348.979       29.071      866.409
06/28/2013  10:18:00       20.347       23.784       22.761       30.703       25.410       22.757      942.649      645.690      517.883        0.180        0.105       31.300       15.213        0.236      349.301       29.630      866.384
06/28/2013  10:19:00       64.216       39.601       36.574       43.878       31.121       33.577     1925.291      968.539     1127.442        0.552        0.201       75.445       10.958        0.021      348.765       28.701      866.381
06/28/2013  10:20:00       54.716       27.747       16.458       65.380       38.939       41.907     4274.555     1516.270     1756.199        0.579        0.377       61.349       42.116        0.471      348.515       28.267      866.367
06/28/2013  10:21:00       27.569       70.148       80.696       46.480       52.236       35.157     2160.428     2728.639     1236.012        0.916        0.306       75.371       20.697        0.075      348.779       28.725      866.355
06/28/2013  10:22:00       47.356       72.458       67.792       40.762       47.018       40.598     1661.513     2210.702     1648.173        0.880        0.276       86.561       12.006        0.019      348.688       28.568      866.353
06/28/2013  10:23:00       69.151        6.828       77.340       48.503       75.291       40.097     2352.498     5668.778     1607.784        1.022        0.481       69.487       41.091        0.350      348.553       28.335      866.347
06/28/2013  10:24:00       81.990       22.660       48.455       77.744       77.098       42.435     6044.054     5944.125     1800.702        1.168        0.689       85.064       34.638        0.166      348.569       28.361      866.352
06/28/2013  10:25:00       48.285       19.306       55.845       70.660       76.231       42.215     4992.834     5811.140     1782.116        0.920        0.629       52.002       33.282        0.410      348.549       28.326      866.340
06/28/2013  10:26:00       27.325      -34.133       19.103       38.580       42.491       21.742     1488.398     1805.520      472.722        0.302        0.188       43.723        9.568        0.048      348.265       27.835      866.343
06/28/2013  10:27:00       11.347       -9.510       18.696       33.941       35.067       22.893     1152.025     1229.669      524.072        0.174        0.145       14.805       15.507        1.097      348.994       29.096      866.326
06/28/2013  10:28:00       57.356       55.739       37.393       71.129       61.310       41.618     5059.310     3758.905     1732.070        0.917        0.528       79.978       40.484        0.256      349.051       29.197      866.311
06/28/2013  10:29:00      173.803       84.173        8.950       60.938       48.985       38.700     3713.461     2399.578     1497.658        2.249        0.381      193.113       25.816        0.018      348.676       28.543      866.309
06/28/2013  10:30:00       91.957       93.462       11.963       40.510       34.564       32.019     1641.086     1194.661     1025.206        1.060        0.193      131.115       18.010        0.019      348.504       28.249      866.308
06/28/2013  10:31:00       54.420       28.485       -2.748       45.864       38.795       30.983     2103.536     1505.026      959.953        0.417        0.228       61.424       25.378        0.171      348.789       28.741      866.310
06/28/2013  10:32:00       25.396       52.696        4.935       23.677       43.372       32.951      560.583     1881.173     1085.744        0.349        0.176       58.496       30.873        0.279      349.130       29.333      866.308
06/28/2013  10:33:00        0.092       12.533        1.108       36.220       24.580       18.425     1311.876      604.159      339.491        0.121        0.113       12.534       11.145        0.791      348.802       28.765      866.297
06/28/2013  10:34:00       28.848       35.160       22.470       41.759       48.514       29.196     1743.839     2353.584      852.407        0.376        0.247       45.480       18.222        0.161      349.214       29.479      866.282
06/28/2013  10:35:00       19.224      -71.634       11.791       39.246       38.667       28.108     1540.272     1495.121      790.040        0.473        0.191       74.169       25.244        0.116      348.931       28.987      866.257
06/28/2013  10:36:00        8.253      -32.416       35.871       36.782       55.487       34.697     1352.940     3078.833     1203.911        0.402        0.282       33.450       27.791        0.690      348.912       28.955      866.239
06/28/2013  10:37:00       23.519      -73.324       -2.793       44.966       51.843       37.464     2021.932     2687.665     1403.530        0.602        0.306       77.004       30.375        0.156      348.745       28.666      866.226
06/28/2013  10:38:00       39.947       69.081       75.708       61.275       60.554       33.787     3754.654     3666.769     1141.559        1.033        0.428       79.800       20.811        0.068      349.009       29.123      866.218
06/28/2013  10:39:00      123.006      114.326       12.444       36.197       31.340       46.064     1310.205      982.181     2121.905        1.638        0.221      167.931       28.954        0.030      348.474       28.197      866.222
06/28/2013  10:40:00       -9.615        3.916      -24.382       25.789       34.260       13.596      665.089     1173.755      184.839        0.136        0.101       10.382       18.133        3.051      348.650       28.501      866.208
06/28/2013  10:41:00      -18.905      -10.680       23.512       22.491       14.087       22.513      505.841      198.442      506.852        0.112        0.061       21.713       16.320        0.565      349.098       29.275      866.195
06/28/2013  10:42:00       -6.295       21.744        6.313       40.505       19.074       23.406     1640.625      363.815      547.855        0.155        0.128       22.637       10.644        0.221      349.139       29.349      866.179
06/28/2013  10:43:00       -9.614        2.488       34.978       16.341       20.276       19.511      267.027      411.118      380.682        0.119        0.053        9.931       13.457        1.836      350.147       31.099      866.160
06/28/2013  10:44:00       32.491      -27.960       37.484       36.022       42.879       29.167     1297.587     1838.642      850.697        0.361        0.199       42.865       23.952        0.312      349.236       29.517      866.149
06/28/2013  10:45:00       71.975      -93.126      -16.253       51.243       58.063       44.977     2625.874     3371.314     2022.930        1.107        0.401      117.698       31.392        0.071      349.034       29.167      866.110
06/28/2013  10:46:00       30.331       35.754       57.217       55.573       59.038       40.659     3088.349     3485.448     1653.170        0.685        0.411       46.886       46.235        0.972      349.232       29.510      866.112
06/28/2013  10:47:00       41.677      -17.241       18.597       24.634       30.313       29.201      606.858      918.905      852.703        0.238        0.119       45.102       20.081        0.198      349.003       29.112      866.097
06/28/2013  10:48:00        6.179      -30.663       16.203       30.854       45.131       24.205      951.998     2036.839      585.902        0.241        0.179       31.279       21.521        0.473      349.126       29.326      866.067
06/28/2013  10:49:00       -6.599      -25.824       17.969       30.177       38.412       36.923      910.625     1475.504     1363.327        0.239        0.187       26.653       29.684        1.240      349.384       29.772      866.057
06/28/2013  10:50:00       43.583      -55.425       18.663       61.688       42.444       37.712     3805.458     1801.484     1422.184        0.617        0.351       70.508       32.430        0.212      348.688       28.567      866.046
06/28/2013  10:51:00        9.539       12.673       35.372       26.877       42.792       28.434      722.384     1831.150      808.509        0.243        0.168       15.862       18.927        1.424      349.379       29.765      866.047
06/28/2013  10:52:00       85.994       -8.445       19.777       61.262       71.692       38.518     3752.989     5139.794     1483.605        0.911        0.519       86.408       32.967        0.146      348.651       28.502      866.041
06/28/2013  10:53:00       93.700      -11.281       47.194       80.013       85.690       54.479     6402.025     7342.730     2967.984        1.392        0.836       94.377       50.686        0.288      348.789       28.742      866.034
06/28/2013  10:54:00       44.951      -41.029       41.310       55.445       55.697       46.045     3074.146     3102.200     2120.177        0.685        0.415       60.861       25.323        0.173      348.712       28.609      866.020
06/28/2013  10:55:00       26.369      -53.647       11.711       40.495       44.543       38.211     1639.871     1984.072     1460.076        0.440        0.254       59.778       26.671        0.199      348.685       28.562      866.036
06/28/2013  10:56:00       58.738       49.003       26.130       56.238       52.021       39.161     3162.681     2706.181     1533.583        0.697        0.370       76.495       31.208        0.166      349.524       30.015      866.028
06/28/2013  10:57:00       23.505       46.185        0.112       29.875       36.538       30.833      892.545     1335.034      950.701        0.293        0.159       51.822       24.634        0.226      349.573       30.101      866.026
06/28/2013  10:58:00      178.520      105.090       19.199       97.407       59.126       54.104     9488.078     3495.941     2927.258        2.959        0.796      207.155       35.936        0.030      349.284       29.597      866.021
06/28/2013  10:59:00      174.724      108.633       17.084       39.635       43.775       45.425     1570.913     1916.215     2063.461        2.408        0.278      205.742       14.677        0.005      349.226       29.496      866.012
06/28/2013  11:00:00       61.084       54.827        3.058       49.961       47.128       34.268     2496.071     2221.020     1174.279        0.632        0.295       82.081       23.068        0.079      349.299       29.625      866.008
06/28/2013  11:01:00       69.008      -68.518       -9.109       40.099       40.019       30.917     1607.939     1601.502      955.846        0.685        0.208       97.246       26.338        0.073      348.890       28.916      866.004
06/28/2013  11:02:00        1.770      -58.251       -2.504       43.282       32.272       18.714     1873.372     1041.513      350.227        0.333        0.163       58.278       15.414        0.070      348.936       28.995      865.989
06/28/2013  11:03:00      -38.431      -25.282       -7.314       20.242       23.369       14.542      409.742      546.123      211.462        0.167        0.058       46.001        8.454        0.034      349.078       29.242      865.955
06/28/2013  11:04:00       11.884       -4.478       31.710       34.282       34.563       27.650     1175.259     1194.628      764.500        0.215        0.157       12.699       24.237        3.643      349.706       30.332      865.938
06/28/2013  11:05:00       64.439      -54.998       18.772       57.375       57.998       53.038     3291.895     3363.753     2813.014        0.850        0.473       84.718       35.600        0.177      349.803       30.500      865.940
06/28/2013  11:06:00       31.388      -38.563       37.699       61.679       82.303       50.563     3804.260     6773.708     2556.638        0.851        0.657       49.722       50.604        1.036      349.638       30.213      865.918
06/28/2013  11:07:00       43.446      -50.988       36.970       61.574       86.421       48.939     3791.314     7468.601     2395.069        0.975        0.683       66.987       55.506        0.687      349.419       29.834      865.914
06/28/2013  11:08:00       55.250      -61.624       22.056       41.213       73.035       51.505     1698.550     5334.063     2652.794        0.851        0.484       82.765       48.219        0.339      349.629       30.197      865.901
06/28/2013  11:09:00       23.529      -21.868       20.161       32.156       27.476       27.864     1033.985      754.906      776.395        0.200        0.128       32.122       18.956        0.348      349.143       29.355      865.895
06/28/2013  11:10:00       27.764      -13.811       -0.760       30.667       24.285       23.685      940.491      589.767      560.988        0.153        0.105       31.009       15.434        0.248      348.976       29.067      865.886
06/28/2013  11:11:00       28.292        5.017       32.478       45.089       43.401       34.122     2033.051     1883.658     1164.294        0.348        0.254       28.733       29.715        1.070      349.794       30.484      865.871
06/28/2013  11:12:00       53.100       30.557       23.963       61.198       41.973       35.083     3745.152     1761.762     1230.801        0.553        0.337       61.265       27.573        0.203      350.264       31.301      865.860
06/28/2013  11:13:00      151.712      103.771       26.391       35.540       38.958       33.093     1263.087     1517.695     1095.151        1.918        0.194      183.807       16.839        0.008      349.521       30.008      865.857
06/28/2013  11:14:00       76.048       65.197       24.389       39.488       48.066       38.144     1559.306     2310.349     1454.929        0.798        0.266      100.170       19.324        0.037      349.616       30.174      865.846
06/28/2013  11:15:00      -11.460       12.134       -1.077       25.187       27.815       23.927      634.394      773.664      572.518        0.113        0.099       16.691       15.323        0.843      349.923       30.707      865.845
06/28/2013  11:16:00       19.531       10.716       39.770       25.969       45.153       26.512      674.391     2038.763      702.902        0.275        0.171       22.278       26.067        1.369      349.932       30.724      865.837
06/28/2013  11:17:00       29.969        4.917       36.070       27.538       14.704       25.309      758.353      216.205      640.534        0.192        0.081       30.370       15.656        0.266      349.920       30.703      865.817
06/28/2013  11:18:00       54.808       41.068       35.443       56.052       30.496       32.240     3141.810      930.015     1039.428        0.553        0.256       68.487       28.119        0.169      349.681       30.287      865.814
06/28/2013  11:19:00       15.267      -16.810        9.159       41.316       53.240       27.897     1707.027     2834.502      778.249        0.296        0.266       22.708       19.561        0.742      349.642       30.220      865.802
06/28/2013  11:20:00       13.628      -49.003       19.507       28.626       44.174       30.307      819.450     1951.300      918.507        0.333        0.184       50.863       12.385        0.059      349.592       30.135      865.784
06/28/2013  11:21:00       87.718       41.932       31.507       89.214       77.282       41.527     7959.179     5972.491     1724.485        1.305        0.783       97.225       30.320        0.097      349.807       30.505      865.777
06/28/2013  11:22:00        4.414      -14.974        0.859       55.890       62.927       26.656     3123.727     3959.784      710.567        0.402        0.390       15.611       32.340        4.292      349.449       29.884      865.773
06/28/2013  11:23:00       13.291       -6.061       24.162       18.653       33.177       21.397      347.921     1100.708      457.852        0.135        0.095       14.608       16.058        1.208      350.024       30.883      865.759
06/28/2013  11:24:00      100.123       51.392       21.661       53.582       48.086       33.709     2871.033     2312.281     1136.326        0.973        0.316      112.542       10.678        0.009      349.825       30.539      865.754
06/28/2013  11:25:00       93.433       55.414       24.278       65.669       45.004       45.512     4312.435     2025.365     2071.373        1.040        0.420      108.630       34.933        0.103      349.474       29.929      865.737
06/28/2013  11:26:00       21.697       29.104       42.736       26.916       30.768       24.577      724.463      946.672      604.005        0.271        0.114       36.301       16.119        0.197      350.101       31.016      865.737
06/28/2013  11:27:00       10.427       21.232        4.063       24.501       31.103       21.586      600.315      967.390      465.958        0.130        0.102       23.654       12.392        0.274      350.161       31.123      865.728
06/28/2013  11:28:00       89.992       78.236       42.439       48.165       46.158       46.183     2319.820     2130.579     2132.909        1.130        0.329      119.245       29.341        0.061      350.018       30.872      865.718
06/28/2013  11:29:00       69.369       64.056       17.036       63.704       49.791       39.270     4058.176     2479.190     1542.120        0.864        0.404       94.420       11.865        0.016      350.156       31.111      865.712
06/28/2013  11:30:00      159.502       98.367       17.752       41.854       36.967       36.032     1751.754     1366.525     1298.305        1.992        0.221      187.395       27.815        0.022      349.821       30.529      865.705
06/28/2013  11:31:00       -3.172      -41.761       23.561       24.853       41.918       30.407      617.688     1757.104      924.596        0.280        0.165       41.881       23.511        0.315      350.061       30.948      865.705
06/28/2013  11:32:00       49.085      -20.101        7.771       36.186       66.517       40.954     1309.420     4424.565     1677.221        0.514        0.371       53.041       38.085        0.516      349.716       30.348      865.690
06/28/2013  11:33:00       59.413      -32.063       11.504       43.623       45.936       43.364     1902.963     2110.105     1880.474        0.529        0.295       67.513       31.552        0.218      349.613       30.172      865.692
06/28/2013  11:34:00       23.491      -12.979       16.662       47.952       66.273       33.223     2299.350     4392.078     1103.752        0.439        0.390       26.838       25.582        0.909      349.680       30.286      865.686
06/28/2013  11:35:00       40.810      -52.713       11.571       29.414       53.122       29.711      865.200     2821.985      882.766        0.457        0.228       66.664       26.464        0.158      349.579       30.111      865.688
06/28/2013  11:36:00       44.499      -45.565       -6.176       26.624       22.286       25.471      708.854      496.650      648.754        0.297        0.093       63.689       16.875        0.070      349.103       29.287      865.696
06/28/2013  11:37:00       26.961      -49.547       -9.442       21.754       26.873       22.307      473.218      722.136      497.611        0.248        0.085       56.408       15.598        0.076      349.673       30.274      865.687
06/28/2013  11:38:00        9.552       30.958       46.280       29.709       26.783       31.397      882.647      717.325      985.755        0.289        0.129       32.398       20.531        0.402      350.285       31.336      865.689
06/28/2013  11:39:00        7.190      -16.360       23.120       54.626       45.903       28.377     2983.978     2107.084      805.281        0.337        0.295       17.870       33.815        3.581      350.305       31.371      865.671
06/28/2013  11:40:00      -52.824        7.602       17.427       58.379       35.944       22.770     3408.089     1291.981      518.490        0.418        0.261       53.368       22.345        0.175      350.507       31.724      865.659
06/28/2013  11:41:00      -28.102      -31.683        6.684       39.149       38.821       30.568     1532.662     1507.098      934.375        0.291        0.199       42.350       24.351        0.331      350.323       31.403      865.649
06/28/2013  11:42:00      -70.261      -37.610       17.092       54.496       46.980       32.184     2969.792     2207.081     1035.786        0.643        0.311       79.694       32.817        0.170      350.171       31.138      865.643
06/28/2013  11:43:00      -18.232      -43.423       15.360       73.204       40.664       30.522     5358.869     1653.582      931.569        0.520        0.397       47.095       28.981        0.379      350.112       31.039      865.632
06/28/2013  11:44:00       12.742      -11.329        8.779       44.359       22.686       19.275     1967.759      514.658      371.545        0.161        0.143       17.050       13.610        0.637      350.119       31.050      865.625
06/28/2013  11:45:00       42.391        5.059      -12.926       61.477       50.899       31.438     3779.428     2590.669      988.342        0.467        0.368       42.691       31.156        0.533      350.003       30.847      865.613
06/28/2013  11:46:00      -24.008      -52.593       16.226       27.403       36.763       27.706      750.948     1351.496      767.606        0.324        0.144       57.814       14.922        0.067      350.320       31.397      865.589
06/28/2013  11:47:00        4.860      -24.328       41.404       34.163       60.115       34.450     1167.085     3613.764     1186.828        0.415        0.298       24.808       34.418        1.925      350.468       31.655      865.586
06/28/2013  11:48:00      -27.338       59.806      105.027       54.902       67.883       58.060     3014.209     4608.072     3370.911        1.317        0.550       65.758       48.729        0.549      350.666       31.998      865.568
06/28/2013  11:49:00       -7.681       84.550      124.270       31.593       57.171       38.016      998.140     3268.580     1445.234        1.418        0.286       84.898       36.534        0.185      350.459       31.638      865.559
06/28/2013  11:50:00       62.702       33.885       81.035       41.832       32.541       34.353     1749.929     1058.908     1180.094        0.782        0.199       71.272       20.401        0.082      350.135       31.077      865.552
06/28/2013  11:51:00        2.132       12.605       69.397       21.754       45.542       24.361      473.250     2074.081      593.462        0.406        0.157       12.784       21.134        2.733      350.514       31.735      865.539
06/28/2013  11:52:00       31.835       26.896       80.301       45.073       45.479       28.927     2031.615     2068.294      836.751        0.656        0.247       41.676       26.195        0.395      350.582       31.853      865.523
06/28/2013  11:53:00        9.617       37.774       42.102       41.281       45.881       36.452     1704.132     2105.107     1328.751        0.421        0.257       38.979       19.049        0.239      350.585       31.858      865.524
06/28/2013  11:54:00      -19.948        6.055       19.013       58.476       28.928       24.061     3419.479      836.817      578.911        0.281        0.242       20.846       20.670        0.983      350.712       32.080      865.492
06/28/2013  11:55:00       35.854      -38.736       37.529       33.936       48.735       35.252     1151.670     2375.107     1242.717        0.448        0.238       52.782       32.994        0.391      350.733       32.115      865.484
06/28/2013  11:56:00       21.907      -40.061       29.897       44.097       54.697       39.251     1944.525     2991.718     1540.605        0.473        0.324       45.660       35.635        0.609      350.535       31.772      865.456
06/28/2013  11:57:00       35.559      -76.246       -2.871       46.527       51.750       33.718     2164.739     2678.083     1136.924        0.653        0.299       84.130       25.135        0.089      349.737       30.386      865.440
06/28/2013  11:58:00       53.746      -63.136        6.692       39.210       36.989       24.557     1537.413     1368.176      603.048        0.521        0.175       82.914       11.096        0.018      349.698       30.317      865.432
06/28/2013  11:59:00       10.172        1.190       42.322       22.535       35.793       20.164      507.813     1281.152      406.602        0.205        0.110       10.241       21.771        4.519      350.272       31.314      865.413
06/28/2013  12:00:00       -2.209      -56.711       23.041       26.766       52.746       33.551      716.425     2782.092     1125.701        0.419        0.231       56.754       26.732        0.222      350.375       31.494      865.400
06/28/2013  12:01:00       22.538      -33.267       35.652       38.033       49.855       25.830     1446.539     2485.518      667.167        0.374        0.230       40.182       19.678        0.240      350.605       31.895      865.380
06/28/2013  12:02:00       32.267       71.406        6.424       53.320       75.285       39.610     2843.030     5667.895     1568.951        0.813        0.504       78.358       32.134        0.168      350.716       32.086      865.365
06/28/2013  12:03:00       44.087       80.258       14.746       97.986       63.461       37.506     9601.351     4027.299     1406.734        1.182        0.752       91.570       39.005        0.181      351.153       32.848      865.339
06/28/2013  12:04:00      165.869       83.506       11.369       94.855       58.364       52.723     8997.472     3406.334     2779.723        2.490        0.759      185.704       27.637        0.022      350.880       32.370      865.310
06/28/2013  12:05:00      124.574       85.903       12.123       54.776       58.739       47.770     3000.383     3450.252     2281.990        1.589        0.437      151.321       35.608        0.055      350.823       32.272      865.309
06/28/2013  12:06:00       41.125       87.935       10.674       54.589       64.067       44.825     2979.960     4104.532     2009.284        0.931        0.455       97.076       37.311        0.148      351.140       32.826      865.292
06/28/2013  12:07:00       41.670      154.587      -17.760       56.823       70.989       38.812     3228.827     5039.433     1506.375        1.786        0.489      160.105       35.814        0.050      350.548       31.793      865.287
06/28/2013  12:08:00       -0.488       84.313       21.683       40.750       66.597       37.078     1660.562     4435.158     1374.789        0.752        0.374       84.314       37.736        0.200      351.068       32.701      865.278
06/28/2013  12:09:00       -5.144       37.927       13.189       38.724       38.758       28.440     1499.519     1502.218      808.807        0.272        0.191       38.274       19.490        0.259      351.078       32.718      865.259
06/28/2013  12:10:00        7.572        9.375       32.816       34.160       33.314       24.522     1166.888     1109.842      601.335        0.205        0.144       12.051       17.134        2.021      351.343       33.180      865.246
06/28/2013  12:11:00       31.789      -24.563       37.397       35.532       33.091       29.787     1262.510     1094.996      887.290        0.313        0.162       40.173       16.139        0.161      350.628       31.935      865.225
06/28/2013  12:12:00      -10.891       18.212       36.986       14.593       22.475       21.485      212.961      505.134      461.587        0.150        0.059       21.220       18.947        0.797      351.432       33.333      865.207
06/28/2013  12:13:00       18.266       -3.904       27.463       33.933       20.588       20.203     1151.467      423.873      408.153        0.154        0.099       18.679       11.119        0.354      350.938       32.474      865.191
06/28/2013  12:14:00       -6.566       -3.006       28.764       30.048       41.071       39.048      902.901     1686.843     1524.718        0.250        0.206        7.221       13.160        3.321      351.159       32.859      865.170
06/28/2013  12:15:00      -31.703        8.144       18.724       36.367       35.873       24.230     1322.547     1286.868      587.079        0.231        0.160       32.732       17.364        0.281      351.143       32.830      865.172
06/28/2013  12:16:00       27.536      -30.823        9.009       60.556       43.350       37.881     3666.994     1879.265     1434.948        0.438        0.349       41.332       28.129        0.463      350.885       32.380      865.166
06/28/2013  12:17:00       47.482      -86.719       25.638       54.396       75.398       43.739     2958.908     5684.901     1913.075        1.049        0.528       98.867       44.707        0.204      350.967       32.523      865.152
06/28/2013  12:18:00      -18.874      -38.713       11.068       24.761       32.405       22.189      613.099     1050.113      492.355        0.207        0.108       43.069       19.640        0.208      351.050       32.669      865.131
06/28/2013  12:19:00      -37.435      -85.618        5.696       64.944       67.624       44.469     4217.682     4573.005     1977.528        0.976        0.538       93.444       22.608        0.059      350.908       32.420      865.104
06/28/2013  12:20:00      -10.363      -36.745       -0.198       46.057       45.631       29.066     2121.270     2082.152      844.843        0.325        0.252       38.179       19.887        0.271      351.074       32.710      865.099
06/28/2013  12:21:00      -72.078      -72.691        9.423       48.044       48.472       32.459     2308.257     2349.522     1053.572        0.814        0.286      102.368       31.336        0.094      350.813       32.256      865.072
06/28/2013  12:22:00      -59.352      -74.470        4.377       54.337       27.129       24.424     2952.498      735.970      596.533        0.669        0.214       95.228       18.485        0.038      350.436       31.597      865.071
06/28/2013  12:23:00        7.908      -84.359       13.185       51.321       49.398       46.110     2633.884     2440.203     2126.128        0.728        0.360       84.728       41.002        0.234      350.694       32.048      865.049
06/28/2013  12:24:00      -52.031      -25.247        2.939       31.859       28.711       20.930     1014.985      824.343      438.050        0.281        0.114       57.833       17.972        0.097      350.746       32.139      865.034
06/28/2013  12:25:00      -31.491      -71.435       -4.980       33.254       35.287       26.864     1105.798     1245.170      721.690        0.460        0.154       78.068       18.567        0.057      350.867       32.350      865.019
06/28/2013  12:26:00      -45.814      -34.153       12.205       27.352       34.858       20.285      748.110     1215.109      411.478        0.289        0.119       57.144       15.811        0.077      351.087       32.733      865.000
06/28/2013  12:27:00       24.760      -78.025        7.326       45.258       66.498       42.470     2048.289     4422.024     1803.684        0.751        0.414       81.860       35.910        0.192      351.103       32.761      864.984
06/28/2013  12:28:00       39.377      -40.418       38.059       59.094       88.084       62.643     3492.113     7758.778     3924.135        0.990        0.759       56.429       62.262        1.217      350.996       32.574      864.958
06/28/2013  12:29:00       20.199       -7.401       51.533       56.671       95.335       55.325     3211.583     9088.753     3060.810        0.924        0.768       21.512       63.716        8.773      350.992       32.567      864.953
06/28/2013  12:30:00       13.176       26.084       44.690       41.152       44.146       37.088     1693.468     1948.859     1375.520        0.393        0.251       29.223       34.503        1.394      350.803       32.238      864.955
06/28/2013  12:31:00        2.211       32.958       24.547       17.377       18.855       22.686      301.949      355.520      514.642        0.143        0.059       33.032       12.513        0.144      350.699       32.058      864.959
06/28/2013  12:32:00       -2.098        5.929       18.638       11.847       19.607       18.868      140.350      384.442      355.996        0.063        0.044        6.289       13.149        4.372      351.364       33.216      864.945
06/28/2013  12:33:00        2.766       41.491       -3.407       28.781       25.445       39.054      828.346      647.462     1525.201        0.237        0.150       41.583       17.397        0.175      350.933       32.465      864.923
06/28/2013  12:34:00      -15.844        3.294       19.876       22.060       13.520       13.082      486.635      182.798      171.149        0.075        0.042       16.182       12.526        0.599      351.482       33.421      864.892
06/28/2013  12:35:00      -32.096      123.414       -1.703       30.990       63.534       31.087      960.376     4036.587      966.398        1.111        0.298      127.520       28.735        0.051      351.369       33.224      864.883
06/28/2013  12:36:00      105.807      103.576        6.231      108.343       64.630       37.574    11738.211     4177.083     1411.838        1.964        0.866      148.064       27.734        0.035      351.479       33.415      864.848
06/28/2013  12:37:00      123.497      106.340       13.463       91.330       61.043       47.350     8341.167     3726.218     2242.040        2.052        0.715      162.971       45.924        0.079      351.504       33.457      864.842
06/28/2013  12:38:00       75.962       40.604       51.760       83.626       96.325       65.243     6993.265     9278.496     4256.593        1.531        1.026       86.133       48.740        0.320      351.503       33.457      864.826
06/28/2013  12:39:00      227.077      137.832       29.803       95.876       65.850       61.630     9192.288     4336.193     3798.317        4.439        0.866      265.635       51.166        0.037      351.196       32.919      864.809
06/28/2013  12:40:00      227.361      165.792       71.528       89.608       81.420       76.421     8029.576     6629.136     5840.159        5.239        1.025      281.389       59.012        0.044      351.128       32.799      864.787
06/28/2013  12:41:00      129.058       64.475       14.220      136.401       59.444       54.431    18605.159     3533.621     2962.748        2.305        1.255      144.267       19.479        0.018      351.244       33.003      864.791
06/28/2013  12:42:00      159.429      111.232       53.046      101.297       84.017       56.755    10260.984     7058.806     3221.093        3.057        1.027      194.397       37.370        0.037      351.288       33.080      864.752
06/28/2013  12:43:00      226.378      118.761       45.006      108.851       67.514       75.068    11848.500     4558.096     5635.255        4.470        1.102      255.639       48.514        0.036      350.914       32.428      864.743
06/28/2013  12:44:00      142.186       87.607       43.240       75.211       63.503       54.111     5656.666     4032.597     2928.039        2.119        0.631      167.009       41.419        0.062      350.908       32.419      864.736
06/28/2013  12:45:00       90.291       53.943       14.967       73.613       39.624       35.032     5418.863     1570.043     1227.262        0.975        0.411      105.177        7.028        0.004      351.123       32.795      864.726
06/28/2013  12:46:00       99.188       55.269       59.751       96.600       73.350       46.725     9331.603     5380.271     2183.205        1.668        0.845      113.547       31.555        0.077      351.158       32.857      864.711
06/28/2013  12:47:00      147.871        5.213       40.294       68.059       86.058       58.415     4632.069     7405.923     3412.319        1.948        0.773      147.963       52.204        0.124      350.706       32.068      864.699
06/28/2013  12:48:00      109.297      -83.750        7.503       56.936       67.249       45.943     3241.753     4522.455     2110.768        1.444        0.494      137.695       32.657        0.056      350.591       31.868      864.704
06/28/2013  12:49:00      131.285       68.465       17.912       91.353       75.633       41.741     8345.386     5720.310     1742.297        1.902        0.790      148.065       42.440        0.082      351.005       32.588      864.689
06/28/2013  12:50:00      -18.708       53.839      -13.576       69.546       55.387       27.886     4836.661     3067.767      777.621        0.606        0.434       56.997       22.989        0.163      351.116       32.783      864.691
06/28/2013  12:51:00       12.120       28.209        6.421       26.503       40.060       26.895      702.386     1604.820      723.341        0.201        0.152       30.702       20.371        0.440      351.486       33.429      864.672
06/28/2013  12:52:00       59.314      100.081      -10.457       38.525       74.032       36.982     1484.185     5480.774     1367.688        1.099        0.417      116.337       40.283        0.120      351.135       32.816      864.658
06/28/2013  12:53:00       15.499      154.983      -11.482       70.463      124.916       47.106     4965.006    15603.999     2218.990        2.359        1.139      155.756       62.929        0.163      351.208       32.941      864.628
06/28/2013  12:54:00       35.249      156.434      -16.617       52.500       72.711       41.230     2756.270     5286.884     1699.931        1.786        0.487      160.356       39.457        0.061      351.296       33.095      864.618
06/28/2013  12:55:00       75.187      115.692      -11.839       44.403       51.331       39.172     1971.623     2634.867     1534.433        1.266        0.307      137.977       31.095        0.051      351.224       32.970      864.602
06/28/2013  12:56:00       49.826       60.824       -1.753       57.999       51.863       29.718     3363.879     2689.810      883.162        0.656        0.347       78.627       10.132        0.017      351.480       33.417      864.590
06/28/2013  12:57:00       61.108       40.247       93.558       60.440       64.523       40.140     3652.975     4163.239     1611.241        1.177        0.471       73.170       38.487        0.277      351.186       32.903      864.591
06/28/2013  12:58:00       73.670       28.475       34.128       38.558       82.498       47.032     1486.686     6805.976     2212.020        0.895        0.525       78.982       27.656        0.123      350.838       32.299      864.582
06/28/2013  12:59:00       44.859       71.760       -1.029       32.073       39.133       38.800     1028.656     1531.409     1505.443        0.561        0.203       84.628       30.849        0.133      351.064       32.692      864.572
06/28/2013  13:00:00       46.039      -38.306       14.275       28.591       63.230       27.945      817.469     3998.031      780.922        0.469        0.280       59.892       29.307        0.239      351.032       32.638      864.556
06/28/2013  13:01:00       13.924      -57.702       -1.254       20.117       21.087       20.445      404.686      444.660      418.014        0.240        0.063       59.358        6.399        0.012      350.995       32.573      864.527
06/28/2013  13:02:00       -2.567      -34.770       21.263       17.893       21.292       22.415      320.144      453.349      502.447        0.147        0.064       34.864       17.648        0.256      351.580       33.593      864.511
06/28/2013  13:03:00       30.888       29.487       35.686       41.791       38.918       25.960     1746.471     1514.624      673.913        0.352        0.197       42.703       21.730        0.259      351.632       33.684      864.504
06/28/2013  13:04:00       41.165       60.794       13.306       42.151       72.513       34.727     1776.748     5258.206     1205.982        0.690        0.412       73.420       35.402        0.233      351.011       32.601      864.498
06/28/2013  13:05:00      119.191       88.917       19.485       97.064       73.277       55.919     9421.509     5369.535     3126.897        2.020        0.896      148.704       43.076        0.084      351.660       33.731      864.473
06/28/2013  13:06:00      240.099      153.236       36.137      106.209       81.545       69.570    11280.320     6649.615     4839.974        5.260        1.138      284.831       33.732        0.014      351.349       33.185      864.459
06/28/2013  13:07:00      199.915       64.606       23.740      141.352      105.753       68.897    19980.340    11183.682     4746.852        4.030        1.796      210.095       60.957        0.084      351.309       33.117      864.444
06/28/2013  13:08:00       59.509       62.956       27.972       94.709       69.060       53.891     8969.841     4769.343     2904.238        1.246        0.832       86.630       43.410        0.251      351.720       33.834      864.443
06/28/2013  13:09:00      141.263       76.769       36.694       74.258       41.518       39.458     5514.201     1723.741     1556.919        1.799        0.440      160.776       17.931        0.012      351.483       33.422      864.434
06/28/2013  13:10:00       21.938      -16.219        6.981       38.741       49.680       36.525     1500.868     2468.065     1334.102        0.305        0.265       27.282       26.339        0.932      351.123       32.797      864.420
06/28/2013  13:11:00       21.972      -64.786       -5.304       36.806       51.721       25.550     1354.707     2675.092      652.783        0.469        0.234       68.411       27.443        0.161      351.553       33.546      864.404
06/28/2013  13:12:00       16.446      -68.371       18.572       28.307       78.417       29.156      801.281     6149.174      850.058        0.654        0.390       70.321       41.189        0.343      351.215       32.955      864.394
06/28/2013  13:13:00        1.959      -23.450       26.724       46.604       42.951       31.197     2171.908     1844.784      973.270        0.313        0.249       23.532       32.456        1.902      351.617       33.657      864.366
06/28/2013  13:14:00      -67.239      -52.898       -7.027       22.760       26.700       18.628      518.017      712.908      347.021        0.447        0.079       85.552        8.444        0.010      351.185       32.903      864.366
06/28/2013  13:15:00       -9.320        7.254       26.943       30.281       16.934       18.616      916.962      286.757      346.546        0.121        0.078       11.810       13.540        1.314      351.927       34.199      864.364
06/28/2013  13:16:00       55.390       42.859       12.521       57.052       34.297       32.699     3254.970     1176.291     1069.238        0.528        0.275       70.035       21.638        0.095      351.256       33.028      864.342
06/28/2013  13:17:00        7.668        6.781       11.948       41.101       36.699       30.387     1689.278     1346.797      923.370        0.210        0.198       10.236       19.075        3.473      351.634       33.687      864.320
06/28/2013  13:18:00      100.891       30.464       20.054       61.266       87.622       46.663     3753.521     7677.614     2177.411        1.256        0.680      105.390       37.868        0.129      351.288       33.081      864.302
06/28/2013  13:19:00       45.081       30.933       36.026       37.242       39.529       34.157     1386.935     1562.573     1166.698        0.420        0.206       54.673       24.966        0.209      351.383       33.248      864.279
06/28/2013  13:20:00       94.377       63.198       23.363       68.477       52.438       45.164     4689.165     2749.720     2039.777        1.146        0.474      113.582       18.532        0.027      351.541       33.524      864.275
06/28/2013  13:21:00      183.651      116.864       44.942       52.435       42.798       43.854     2749.471     1831.639     1923.175        2.795        0.325      217.680       30.706        0.020      351.517       33.480      864.265
06/28/2013  13:22:00      187.202      108.955       53.785       95.230       83.913       61.155     9068.735     7041.401     3739.881        3.483        0.993      216.601       55.815        0.066      351.522       33.488      864.239
06/28/2013  13:23:00       79.171       71.287       16.141       72.059       52.956       49.730     5192.468     2804.320     2473.094        1.104        0.523      106.536       35.434        0.111      351.784       33.946      864.225
06/28/2013  13:24:00      -13.828      111.401        0.054       42.738       59.545       41.906     1826.528     3545.588     1756.100        0.986        0.356      112.256       25.214        0.050      351.798       33.973      864.211
06/28/2013  13:25:00      -19.820       43.699       -2.391       28.315       34.208       27.538      801.736     1170.181      758.336        0.252        0.137       47.984       20.496        0.182      352.097       34.495      864.201
06/28/2013  13:26:00      -36.291      -22.476        3.567       30.967       30.740       23.398      958.949      944.939      547.478        0.214        0.123       42.687       19.763        0.214      351.977       34.286      864.180
06/28/2013  13:27:00      -34.580       22.943       -0.556       52.021       37.301       29.660     2706.155     1391.395      879.708        0.335        0.249       41.499       19.700        0.225      352.234       34.734      864.159
06/28/2013  13:28:00     -116.125        0.991      -18.314       75.219       81.712       29.293     5657.878     6676.814      858.065        1.350        0.660      116.129       19.128        0.027      351.916       34.177      864.155
06/28/2013  13:29:00     -153.974      -86.457       -7.217       86.117       87.715       41.075     7416.092     7693.878     1687.148        2.401        0.840      176.586       41.861        0.056      351.618       33.656      864.136
06/28/2013  13:30:00     -160.555      -24.533       -7.743       67.286       55.170       32.000     4527.398     3043.681     1024.015        1.752        0.430      162.419       29.594        0.033      351.718       33.833      864.127
06/28/2013  13:31:00     -124.893       -2.481        5.233       72.336       72.395       32.493     5232.457     5240.974     1055.797        1.358        0.576      124.918       35.659        0.081      351.802       33.979      864.103
06/28/2013  13:32:00      -97.079      -25.339       10.987       63.226       61.460       35.058     3997.536     3777.317     1229.028        0.959        0.450      100.332       34.350        0.117      351.803       33.980      864.099
06/28/2013  13:33:00       -1.183       34.022       22.908       29.603       22.032       19.781      876.320      485.395      391.278        0.172        0.088       34.042        7.242        0.045      351.672       33.754      864.085
06/28/2013  13:34:00      -20.367       -8.640       22.797       34.966       41.317       31.121     1222.622     1707.103      968.528        0.245        0.195       22.124       32.766        2.193      352.240       34.747      864.064
06/28/2013  13:35:00       51.820      -19.526       40.001       64.985      108.486       54.697     4223.090    11769.238     2991.800        1.182        0.949       55.376       55.000        0.986      351.801       33.978      864.033
06/28/2013  13:36:00      148.119     -160.395       -3.621      101.833      168.936       91.100    10370.002    28539.362     8299.271        4.743        2.360      218.325       99.178        0.206      352.022       34.362      863.978
06/28/2013  13:37:00       54.884     -169.781      -18.249       91.443      113.844       61.915     8361.867    12960.458     3833.499        2.866        1.258      178.431       53.811        0.091      351.901       34.151      864.011
06/28/2013  13:38:00       46.902     -137.821      -11.257       94.503       92.619       61.934     8930.725     8578.202     3835.773        2.133        1.067      145.583       45.796        0.099      352.029       34.373      864.008
06/28/2013  13:39:00      170.081     -296.957      -22.011      118.459      127.815       70.618    14032.470    16336.772     4986.927        7.647        1.768      342.214       71.361        0.043      351.816       34.000      863.974
06/28/2013  13:40:00       70.942      -57.744       21.545      101.071      104.341       39.153    10215.336    10887.117     1532.922        1.573        1.132       91.472       51.722        0.320      351.791       33.961      864.031
06/28/2013  13:41:00       44.831      -22.290       26.306       51.181       65.182       36.589     2619.531     4248.663     1338.725        0.570        0.410       50.066       35.752        0.510      351.888       34.131      864.017
06/28/2013  13:42:00      -42.621      -88.695       -6.128       61.706       54.363       42.517     3807.666     2955.370     1807.657        0.914        0.429       98.404       33.098        0.113      351.943       34.225      864.001
06/28/2013  13:43:00      -93.970      -40.943        1.603       64.690       41.266       38.119     4184.821     1702.859     1453.072        0.892        0.367      102.502       18.390        0.032      352.154       34.594      863.984
06/28/2013  13:44:00      -25.132      -70.031       -1.672       61.062       51.691       36.209     3728.538     2672.004     1311.095        0.662        0.386       74.404       32.402        0.190      352.118       34.532      863.980
06/28/2013  13:45:00      -29.071      -98.689       -8.537       69.559       41.538       36.387     4838.436     1725.434     1324.043        0.927        0.394      102.882       25.068        0.059      351.979       34.288      863.976
06/28/2013  13:46:00      -26.921      -91.083       -5.768       61.492       46.121       41.704     3781.207     2127.180     1739.220        0.835        0.382       94.978       21.420        0.051      351.808       33.990      863.960
06/28/2013  13:47:00      -65.407        1.365       11.461       67.534       64.519       30.584     4560.840     4162.692      935.396        0.703        0.483       65.421       34.465        0.278      352.291       34.834      863.960
06/28/2013  13:48:00      -91.853       83.140        8.956       92.221       48.638       43.608     8504.760     2365.620     1901.640        1.410        0.639      123.892       51.414        0.172      352.009       34.341      863.931
06/28/2013  13:49:00     -146.727       32.555      -22.983       58.846       46.450       33.528     3462.883     2157.560     1124.136        1.493        0.337      150.295       36.736        0.060      351.715       33.828      863.920
06/28/2013  13:50:00      -92.396        8.270       -0.369       62.249       50.733       32.507     3874.956     2573.861     1056.727        0.805        0.375       92.766       30.851        0.111      351.984       34.299      863.907
06/28/2013  13:51:00      -38.626      -16.787       -1.917       57.566       33.461       35.270     3313.870     1119.662     1243.997        0.373        0.284       42.117       40.560        0.927      352.057       34.428      863.900
06/28/2013  13:52:00       51.128       25.760       23.091       29.734       31.687       38.442      884.139     1004.052     1477.770        0.359        0.168       57.251       20.810        0.132      352.074       34.455      863.897
06/28/2013  13:53:00       85.698       50.970       22.459       79.697      123.377       54.435     6351.544    15221.918     2963.184        1.749        1.227       99.710       34.966        0.123      351.926       34.196      863.864
06/28/2013  13:54:00       18.171     -153.815       -1.244       74.745       90.939       39.246     5586.756     8269.827     1540.279        1.969        0.770      154.884       38.016        0.060      351.847       34.055      863.868
06/28/2013  13:55:00        6.790      -47.120       15.801       36.513       69.074       26.134     1333.222     4771.243      682.990        0.465        0.339       47.607       20.057        0.177      351.935       34.211      863.848
06/28/2013  13:56:00        5.324       61.604        3.413       64.969       39.862       34.179     4220.991     1589.006     1168.177        0.541        0.349       61.833       26.376        0.182      352.203       34.681      863.839
06/28/2013  13:57:00       24.930        7.602       46.071       33.783       37.529       25.577     1141.297     1408.447      654.162        0.300        0.160       26.063       19.662        0.569      352.010       34.344      863.834
06/28/2013  13:58:00       43.673       99.759       45.015       73.458       80.744       71.379     5396.052     6519.592     5095.031        1.544        0.851      108.900       41.275        0.144      351.711       33.820      863.814
06/28/2013  13:59:00       38.142      175.872      -11.337       48.268       68.619       57.368     2329.792     4708.586     3291.034        2.142        0.516      179.960       47.743        0.070      352.097       34.492      863.818
06/28/2013  14:00:00       46.096      176.461      -18.084       60.052       75.328       52.992     3606.249     5674.321     2808.134        2.284        0.604      182.382       53.332        0.086      351.985       34.297      863.803
06/28/2013  14:01:00       21.698      149.478      -22.717       25.548       63.262       34.369      652.720     4002.101     1181.211        1.458        0.292      151.044       39.947        0.070      351.901       34.151      863.793
06/28/2013  14:02:00       37.299       86.103        0.560       48.105       50.532       40.561     2314.081     2553.508     1645.223        0.766        0.326       93.834       27.656        0.087      352.151       34.590      863.777
06/28/2013  14:03:00        0.048       49.585        6.144       29.987       50.091       31.571      899.218     2509.099      996.744        0.345        0.220       49.585       22.506        0.206      352.455       35.122      863.760
06/28/2013  14:04:00      -34.964      108.614        5.247       58.332       46.850       33.208     3402.680     2194.905     1102.753        0.987        0.335      114.102       32.569        0.081      352.194       34.664      863.748
06/28/2013  14:05:00        7.847       45.940       26.370       68.289       33.868       44.187     4663.365     1147.031     1952.500        0.531        0.388       46.605       35.994        0.596      352.457       35.125      863.730
06/28/2013  14:06:00      143.516      125.794       11.870      107.164       62.268       50.990    11484.037     3877.265     2599.948        2.726        0.898      190.843       30.725        0.026      352.306       34.857      863.714
06/28/2013  14:07:00      236.690      159.065       13.493       80.700       60.746       61.110     6512.519     3690.098     3734.416        4.772        0.697      285.173       29.068        0.010      351.957       34.246      863.677
06/28/2013  14:08:00      182.643      142.185       37.928      106.939       66.362       65.546    11435.873     4403.862     4296.264        3.757        1.007      231.463       27.810        0.014      352.207       34.683      863.653
06/28/2013  14:09:00      151.429      132.866        8.998       64.470       54.145       46.844     4156.410     2931.660     2194.378        2.497        0.464      201.455       36.277        0.032      352.053       34.415      863.648
06/28/2013  14:10:00       79.443       65.442       63.272       72.923       55.580       60.377     5317.720     3089.095     3645.404        1.332        0.603      102.926       20.485        0.040      352.240       34.746      863.631
06/28/2013  14:11:00      123.232      119.943        9.935      105.105       73.107       54.269    11047.153     5344.674     2945.145        2.450        0.967      171.967       51.654        0.090      352.140       34.566      863.611
06/28/2013  14:12:00      235.360      145.528       23.544       95.968       75.564       64.574     9209.951     5709.868     4169.769        4.810        0.954      276.718       57.032        0.042      352.290       34.829      863.594
06/28/2013  14:13:00      159.410      135.348       11.396       90.445       68.799       55.574     8180.227     4733.268     3088.459        2.993        0.800      209.118       36.063        0.030      352.076       34.455      863.596
06/28/2013  14:14:00       84.548       69.808       34.961       57.491       49.587       45.616     3305.230     2458.861     2080.836        1.054        0.392      109.643       24.546        0.050      352.041       34.397      863.579
06/28/2013  14:15:00      130.297       66.142       20.036       61.684       37.912       38.572     3804.969     1437.330     1487.800        1.424        0.337      146.123       23.513        0.026      351.735       33.862      863.557
06/28/2013  14:16:00      138.233       92.293       21.276       74.804       59.606       51.307     5595.634     3552.844     2632.393        1.993        0.589      166.212       24.346        0.021      352.112       34.520      863.546
06/28/2013  14:17:00       82.006      128.136       13.367       83.469       80.622       62.715     6967.066     6499.875     3933.146        2.036        0.870      152.131       51.132        0.113      352.338       34.915      863.525
06/28/2013  14:18:00       63.677       97.791        8.160       71.168       76.246       65.708     5064.889     5813.409     4317.559        1.444        0.760      116.695       58.177        0.249      352.528       35.248      863.517
06/28/2013  14:19:00       77.337       75.638        2.337       47.923       57.801       34.934     2296.629     3340.925     1220.394        0.928        0.343      108.177       29.833        0.076      352.172       34.626      863.512
06/28/2013  14:20:00        5.300      223.317      -29.171       59.305       95.129       32.413     3517.068     9049.608     1050.612        3.218        0.681      223.380       44.483        0.040      352.252       34.762      863.485
06/28/2013  14:21:00      -83.928      162.742       -1.254      101.622       83.398       57.069    10326.974     6955.263     3256.862        2.703        1.027      183.109       50.478        0.076      352.453       35.115      863.469
06/28/2013  14:22:00     -117.073      110.214       -3.702       74.220       78.874       55.225     5508.669     6221.175     3049.816        2.032        0.739      160.790       51.094        0.101      352.340       34.919      863.443
06/28/2013  14:23:00     -114.409      134.608      -34.206       49.904       54.183       29.116     2490.384     2935.829      847.749        1.933        0.314      176.660       30.271        0.029      352.135       34.559      863.443
06/28/2013  14:24:00      -81.269      100.556      -14.954       52.988       42.999       39.037     2807.694     1848.950     1523.874        1.156        0.309      129.290       37.553        0.084      352.362       34.959      863.436
06/28/2013  14:25:00      -34.207       21.253        2.540       66.878       39.225       39.484     4472.677     1538.604     1558.994        0.460        0.379       40.271       48.996        1.480      352.215       34.702      863.423
06/28/2013  14:26:00        3.089       88.004       13.437       36.433       62.616       33.927     1327.349     3920.732     1151.071        0.717        0.320       88.058       27.415        0.097      352.469       35.145      863.399
06/28/2013  14:27:00     -145.653      -16.864       -3.833       87.515       53.987       36.112     7658.843     2914.595     1304.081        1.669        0.594      146.626       43.926        0.090      352.470       35.145      863.372
06/28/2013  14:28:00      -66.854       -3.376       18.265       50.854       40.807       31.811     2586.090     1665.172     1011.954        0.504        0.263       66.939       31.165        0.217      352.798       35.723      863.358
06/28/2013  14:29:00     -121.346        8.351       -4.938       62.457       44.025       31.789     3900.839     1938.177     1010.516        1.083        0.342      121.633       23.759        0.038      352.627       35.422      863.334
06/28/2013  14:30:00     -192.601      -43.200      -17.695       55.225       68.793       30.131     3049.788     4732.424      907.852        2.398        0.435      197.387       17.091        0.007      352.195       34.664      863.320
06/28/2013  14:31:00     -121.066       41.043      -13.139       59.521       43.529       28.244     3542.714     1894.745      797.699        1.137        0.312      127.834       27.026        0.045      352.548       35.285      863.286
06/28/2013  14:32:00      -63.638       95.565        4.580       50.533       57.238       39.079     2553.542     3276.242     1527.184        1.028        0.368      114.815       32.827        0.082      352.687       35.526      863.276
06/28/2013  14:33:00      -67.332      103.321       -4.753       50.096       48.455       34.646     2509.618     2347.870     1200.373        1.064        0.303      123.324       35.111        0.081      352.526       35.245      863.260
06/28/2013  14:34:00       -9.602       46.697        7.091       19.752       38.518       28.191      390.142     1483.614      794.761        0.250        0.133       47.674       16.372        0.118      352.675       35.506      863.251
06/28/2013  14:35:00     -112.945       30.667      -13.555       84.946       67.925       33.072     7215.757     4613.814     1093.783        1.340        0.646      117.034       36.386        0.097      352.734       35.609      863.218
06/28/2013  14:36:00     -107.760      106.743       -4.761       65.517       52.410       40.421     4292.465     2746.835     1633.873        1.585        0.434      151.678       37.053        0.060      352.837       35.789      863.214
06/28/2013  14:37:00     -126.188      149.947      -20.987       70.177       81.345       39.477     4924.748     6616.965     1558.414        2.597        0.655      195.978       35.286        0.032      352.446       35.102      863.208
06/28/2013  14:38:00      -46.477       84.561       -1.692       30.284       67.979       28.393      917.091     4621.127      806.170        0.783        0.317       96.492        7.351        0.006      352.624       35.415      863.219
06/28/2013  14:39:00     -126.468      133.813      -19.306       90.527       73.809       43.565     8195.085     5447.833     1897.926        2.490        0.777      184.120       39.699        0.046      352.548       35.280      863.197
06/28/2013  14:40:00     -177.698        6.296      -22.072       66.340       72.137       37.387     4401.044     5203.752     1397.772        2.155        0.550      177.810       35.409        0.040      352.554       35.293      863.179
06/28/2013  14:41:00      -21.835       22.187       -1.089       74.153       40.869       51.569     5498.682     1670.243     2659.325        0.540        0.491       31.129       53.344        2.937      352.900       35.901      863.180
06/28/2013  14:42:00        3.540      122.773        7.229       40.019       56.986       37.510     1601.516     3247.409     1406.980        1.070        0.313      122.824       34.840        0.080      352.480       35.165      863.169
06/28/2013  14:43:00       39.253       58.540       -4.195       33.316       33.566       24.675     1109.930     1126.658      608.842        0.391        0.142       70.482       17.587        0.062      352.669       35.496      863.162
06/28/2013  14:44:00       25.649       80.438        4.560       34.526       45.295       32.129     1192.028     2051.637     1032.271        0.571        0.214       84.428       25.432        0.091      352.774       35.678      863.150
06/28/2013  14:45:00      -39.968       49.590       11.820       58.371       58.070       33.910     3407.184     3372.180     1149.901        0.606        0.396       63.692       36.630        0.331      352.707       35.563      863.135
06/28/2013  14:46:00      -20.686      -15.161       13.413       35.523       41.120       34.178     1261.897     1690.849     1168.127        0.248        0.206       25.647       18.388        0.514      352.906       35.911      863.123
06/28/2013  14:47:00      -43.240       -9.275       13.167       44.952       44.690       29.808     2020.707     1997.214      888.492        0.352        0.245       44.223       33.049        0.558      352.739       35.618      863.095
06/28/2013  14:48:00     -115.730      -49.012       -7.521       50.203       41.985       30.174     2520.388     1762.773      910.470        1.052        0.260      125.681       22.634        0.032      352.660       35.480      863.073
06/28/2013  14:49:00      -16.133      -11.643        9.168       36.111       33.580       26.375     1304.012     1127.646      695.651        0.180        0.156       19.895       26.989        1.840      352.802       35.728      863.061
06/28/2013  14:50:00      -44.276       15.814        4.903       69.320       37.813       25.764     4805.271     1429.851      663.767        0.457        0.345       47.015       25.910        0.304      352.627       35.421      863.040
06/28/2013  14:51:00      -39.924       38.177        7.070       57.747       56.071       28.900     3334.704     3143.989      835.182        0.521        0.366       55.240       25.559        0.214      352.630       35.427      863.013
06/28/2013  14:52:00     -183.804       55.081       -4.546       84.839       56.657       34.883     7197.615     3210.036     1216.830        2.423        0.581      191.880       26.976        0.020      352.687       35.525      862.977
06/28/2013  14:53:00     -221.140       62.377      -13.129       75.703       56.072       41.677     5731.019     3144.090     1736.960        3.179        0.531      229.769       33.016        0.021      352.612       35.392      862.963
06/28/2013  14:54:00     -179.027       59.259      -12.479       50.446       43.688       34.673     2544.811     1908.635     1202.228        2.069        0.283      188.580       24.723        0.017      352.424       35.065      862.952
06/28/2013  14:55:00     -113.996       40.953        5.200       69.188       60.452       39.308     4787.036     3654.487     1545.129        1.234        0.499      121.129       29.711        0.060      352.938       35.966      862.928
06/28/2013  14:56:00     -265.819     -107.999       -4.369       84.681       99.004       46.718     7170.846     9801.783     2182.615        5.075        0.958      286.921       37.852        0.017      352.742       35.618      862.903
06/28/2013  14:57:00     -221.963      -59.083       -6.805       99.092       79.658       47.244     9819.259     6345.401     2232.026        3.560        0.920      229.692       54.912        0.057      352.772       35.673      862.900
06/28/2013  14:58:00     -177.566      -69.081       -4.188       64.016       41.759       22.601     4098.015     1743.800      510.811        2.133        0.318      190.531       15.210        0.006      352.472       35.149      862.893
06/28/2013  14:59:00     -262.997      -53.130       -9.299       74.700       52.851       37.783     5580.132     2793.261     1427.538        4.094        0.490      268.310       38.321        0.020      352.554       35.288      862.863
06/28/2013  15:00:00     -210.275       -2.388       -4.402       88.308       70.977       40.875     7798.236     5037.788     1670.805        2.937        0.725      210.288       37.748        0.032      352.751       35.636      862.841
06/28/2013  15:01:00     -112.602      -31.214       -3.327       77.448       52.390       42.089     5998.255     2744.759     1771.471        1.209        0.526      116.848       38.918        0.111      352.789       35.705      862.856
06/28/2013  15:02:00      -30.716       -1.520       16.370       37.904       36.191       24.054     1436.692     1309.762      578.605        0.227        0.166       30.754       23.689        0.593      352.827       35.773      862.861
06/28/2013  15:03:00       16.004      -51.288       18.029       51.953       45.829       33.302     2699.126     2100.279     1109.047        0.456        0.295       53.727       32.389        0.363      352.939       35.967      862.852
06/28/2013  15:04:00      -56.561     -116.371       -7.641       50.301       76.724       34.490     2530.224     5886.542     1189.554        1.320        0.480      129.388       34.642        0.072      352.651       35.462      862.843
06/28/2013  15:05:00       -4.647      -15.438       18.400       41.055       39.071       28.015     1685.533     1526.522      784.819        0.230        0.200       16.123       24.559        2.320      353.169       36.371      862.817
06/28/2013  15:06:00        3.998      -66.235       12.511       56.728       55.876       35.011     3218.095     3122.097     1225.775        0.606        0.378       66.356       31.168        0.221      352.673       35.502      862.810
06/28/2013  15:07:00       76.018      -85.784       14.760       58.362       85.985       38.505     3406.143     7393.356     1482.604        1.282        0.614      114.620       38.057        0.110      352.523       35.239      862.784
06/28/2013  15:08:00       74.049      -81.836       16.348       62.344       83.956       40.802     3886.764     7048.683     1664.787        1.252        0.630      110.365       41.228        0.140      352.585       35.349      862.769
06/28/2013  15:09:00       43.017      -45.181       22.958       46.954       64.346       42.796     2204.665     4140.397     1831.513        0.630        0.409       62.384       48.204        0.597      352.477       35.159      862.731
06/28/2013  15:10:00       27.229       23.114       46.955       34.507       41.237       30.888     1190.759     1700.469      954.054        0.366        0.192       35.716       26.273        0.541      351.800       33.977      862.729
06/28/2013  15:11:00       56.873      -31.549       24.583       38.342       44.087       30.735     1470.143     1943.696      944.635        0.460        0.218       65.038       22.609        0.121      352.086       34.476      862.721
06/28/2013  15:12:00      112.382        3.721       22.909       57.099       43.443       41.961     3260.278     1887.294     1760.689        1.004        0.345      112.444       30.920        0.076      352.080       34.465      862.709
06/28/2013  15:13:00       80.810       24.923       35.047       52.033       47.091       39.704     2707.464     2217.563     1576.444        0.744        0.325       84.566       33.769        0.159      351.583       33.597      862.673
06/28/2013  15:14:00       21.754      -54.228        7.159       44.433       40.534       36.886     1974.274     1642.983     1360.561        0.422        0.249       58.429       23.252        0.158      351.501       33.455      862.649
06/28/2013  15:15:00        5.071      -63.383        5.174       44.665       63.589       46.622     1994.948     4043.620     2173.580        0.614        0.411       63.586       23.934        0.142      352.191       34.659      862.646
06/28/2013  15:16:00       22.592      -85.960      -12.478       53.955       65.297       34.588     2911.130     4263.759     1196.318        0.821        0.419       88.879       35.230        0.157      352.680       35.515      862.647
06/28/2013  15:17:00       42.110      -86.684       -2.525       43.926       55.034       31.974     1929.471     3028.767     1022.330        0.764        0.299       96.372       34.018        0.125      352.592       35.361      862.642
06/28/2013  15:18:00       19.711      -55.223        8.245       30.606       47.680       35.711      936.711     2273.417     1275.255        0.399        0.224       58.635       34.196        0.340      352.436       35.089      862.635
06/28/2013  15:19:00       34.762      -58.525       -6.596       43.851       28.158       29.714     1922.948      792.890      882.918        0.414        0.180       68.070       17.610        0.067      352.001       34.328      862.630
06/28/2013  15:20:00      -21.708      -45.686        0.590       38.970       52.951       34.459     1518.644     2803.850     1187.403        0.403        0.275       50.581       30.741        0.369      352.608       35.389      862.615
06/28/2013  15:21:00      -26.816      -58.986       11.075       57.410       64.922       35.350     3295.945     4214.849     1249.596        0.654        0.438       64.795       33.563        0.268      353.008       36.090      862.617
06/28/2013  15:22:00       -6.932       -8.715       41.616       40.270       48.110       31.102     1621.684     2314.608      967.344        0.338        0.245       11.136       30.533        7.518      353.242       36.500      862.610
06/28/2013  15:23:00      112.403       37.678       25.138       74.695       47.180       54.201     5579.362     2225.954     2937.751        1.271        0.537      118.550       35.395        0.089      352.255       34.771      862.576
06/28/2013  15:24:00       93.905      103.982       67.204       44.557       36.947       43.706     1985.364     1365.092     1910.246        1.470        0.263      140.108       27.115        0.037      352.412       35.045      862.545
06/28/2013  15:25:00       31.303        7.129       44.454       79.120       51.854       45.407     6260.001     2688.820     2061.838        0.701        0.551       32.104       38.626        1.448      352.749       35.636      862.525
06/28/2013  15:26:00       91.341      -35.566       34.722       58.190       47.455       39.775     3386.114     2251.954     1582.036        0.902        0.361       98.021       36.208        0.136      352.440       35.096      862.522
06/28/2013  15:27:00       41.998       52.605       94.592       60.139       77.847       59.608     3616.642     6060.168     3553.129        1.335        0.661       67.314       62.881        0.873      352.534       35.257      862.512
06/28/2013  15:28:00       -6.032      123.594      134.127       71.711      105.905       75.363     5142.510    11215.777     5679.541        2.767        1.102      123.741       80.053        0.419      351.750       33.886      862.471
06/28/2013  15:29:00      -25.767      -17.249       11.346       52.501       55.292       31.205     2756.364     3057.244      973.779        0.394        0.339       31.007       31.269        1.017      352.573       35.329      862.497
06/28/2013  15:30:00      -47.271     -100.080       13.594      124.451       96.435       38.150    15488.155     9299.696     1455.403        1.933        1.312      110.683       22.584        0.042      352.934       35.957      862.489
06/28/2013  15:31:00     -225.308      -56.646        1.118      108.946       95.654       43.014    11869.311     9149.696     1850.175        3.842        1.143      232.320       49.701        0.046      352.798       35.717      862.482
06/28/2013  15:32:00      -59.380       23.537       22.072       63.139       38.617       27.608     3986.570     1491.284      762.193        0.540        0.312       63.875       24.151        0.143      352.732       35.605      862.472
06/28/2013  15:33:00     -109.987      -26.314       -2.363       61.262       47.346       36.921     3753.013     2241.663     1363.140        1.007        0.368      113.091       40.486        0.128      352.783       35.694      862.460
06/28/2013  15:34:00     -120.900        2.104       27.720       74.528       64.388       47.582     5554.431     4145.856     2264.014        1.367        0.598      120.918       40.911        0.114      353.016       36.103      862.443
06/28/2013  15:35:00      -25.139      -51.472       16.529       73.617       66.519       39.671     5419.453     4424.783     1573.756        0.748        0.571       57.283       32.381        0.320      352.880       35.865      862.447
06/28/2013  15:36:00      -32.399      -84.724       -5.271       49.019       72.215       34.598     2402.880     5215.023     1197.050        0.853        0.441       90.708       30.444        0.113      352.943       35.976      862.449
06/28/2013  15:37:00      -51.861      -51.956       14.536       76.028       46.451       36.297     5780.217     2157.673     1317.503        0.743        0.463       73.409       35.632        0.236      353.158       36.354      862.441
06/28/2013  15:38:00      -78.696      -58.074        6.690       73.606       47.064       38.365     5417.892     2214.996     1471.888        0.936        0.455       97.804       41.007        0.176      352.927       35.948      862.449
06/28/2013  15:39:00      -63.309      -37.546        3.787       56.957       29.545       28.178     3244.096      872.920      793.997        0.517        0.246       73.605       21.983        0.089      352.980       36.039      862.446
06/28/2013  15:40:00       -9.035      -54.074       11.206       28.378       59.655       32.415      805.319     3558.660     1050.733        0.427        0.271       54.823       34.280        0.391      352.907       35.913      862.445
06/28/2013  15:41:00       74.482       43.222       20.330       35.413       23.714       35.284     1254.102      562.332     1244.970        0.544        0.153       86.115       25.864        0.090      352.313       34.871      862.419
06/28/2013  15:42:00       56.752       19.702       23.501       31.710       34.718       28.675     1005.525     1205.331      822.267        0.360        0.152       60.075       18.965        0.100      352.350       34.937      862.402
06/28/2013  15:43:00       55.193      -15.072       21.819       32.243       28.093       24.258     1039.608      789.227      588.454        0.308        0.121       57.214       18.502        0.105      351.809       33.993      862.403
06/28/2013  15:44:00       47.005      -66.163       13.135       50.921       71.917       38.356     2592.926     5172.068     1471.189        0.800        0.462       81.160       42.171        0.270      352.231       34.729      862.389
06/28/2013  15:45:00       45.121      -78.455       12.673       63.514      105.196       60.414     4034.040    11066.301     3649.870        1.355        0.938       90.505       58.560        0.419      352.587       35.352      862.355
06/28/2013  15:46:00       42.141       26.967       65.321       61.853       62.403       53.313     3825.790     3894.129     2842.284        0.866        0.528       50.031       50.527        1.020      351.791       33.959      862.348
06/28/2013  15:47:00      124.783      111.938      104.109      123.325       75.036       59.660    15209.034     5630.349     3559.363        3.166        1.220      167.633       52.121        0.097      352.653       35.464      862.328
06/28/2013  15:48:00      204.004      116.980       14.633      122.818       83.044       57.986    15084.361     6896.228     3362.373        4.042        1.267      235.163       19.120        0.007      352.640       35.441      862.323
06/28/2013  15:49:00      178.460      104.884       15.613       65.781       52.167       43.444     4327.141     2721.366     1887.388        2.601        0.447      206.999       39.175        0.036      352.504       35.204      862.312
06/28/2013  15:50:00       62.604       57.653       25.122       65.218       46.268       40.195     4253.367     2140.712     1615.642        0.794        0.400       85.107       26.564        0.097      352.843       35.799      862.313
06/28/2013  15:51:00       14.872       55.848        1.683       45.720       46.993       34.415     2090.274     2208.373     1184.382        0.441        0.274       57.794       28.841        0.249      352.994       36.064      862.323
06/28/2013  15:52:00       35.967       58.643        0.383       70.625       42.344       41.857     4987.925     1792.974     1752.024        0.663        0.427       68.794       23.611        0.118      352.793       35.713      862.325
06/28/2013  15:53:00       -6.600        9.596       24.075       17.281       31.077       18.288      298.618      965.805      334.457        0.116        0.080       11.647       15.712        1.820      353.054       36.170      862.331
06/28/2013  15:54:00       19.711       33.278       23.102       25.365       15.323       22.442      643.399      234.804      503.648        0.171        0.069       38.677        6.431        0.028      352.080       34.464      862.330
06/28/2013  15:55:00       14.048       10.686        4.795       18.996       24.629       20.593      360.863      606.592      424.070        0.086        0.070       17.650       12.417        0.495      351.740       33.870      862.322
06/28/2013  15:56:00      -25.115       64.453        5.478       68.913      118.053       36.607     4748.997    13936.468     1340.074        1.242        1.001       69.173       34.943        0.255      352.337       34.914      862.311
06/28/2013  15:57:00      -42.961       99.519       -1.589       84.780       51.261       37.763     7187.625     2627.647     1426.023        1.149        0.562      108.396       42.671        0.155      352.787       35.701      862.295
06/28/2013  15:58:00       -6.369      146.390        4.417       45.056       72.814       42.938     2030.064     5301.923     1843.660        1.533        0.459      146.529       35.174        0.058      352.775       35.680      862.276
06/28/2013  15:59:00       16.747      192.549      -10.065       54.249       88.029       48.893     2942.917     7749.187     2390.487        2.527        0.654      193.276       45.450        0.055      352.879       35.861      862.253
06/28/2013  16:00:00      -46.173      154.631      -10.881       37.170       72.020       32.886     1381.609     5186.840     1081.503        1.690        0.382      161.377       36.140        0.050      352.948       35.983      862.244
06/28/2013  16:01:00       -3.259       68.954        2.148       35.950       39.069       26.323     1292.378     1526.395      692.916        0.414        0.176       69.031       12.565        0.033      352.981       36.042      862.251
06/28/2013  16:02:00        7.102       88.767       18.942       45.244       67.779       29.028     2047.048     4594.059      842.613        0.788        0.374       89.050       30.397        0.117      352.706       35.560      862.230
06/28/2013  16:03:00      -17.239       68.794       24.096       40.746       63.791       29.329     1660.216     4069.334      860.172        0.610        0.329       70.921       34.441        0.236      353.205       36.435      862.231
06/28/2013  16:04:00       29.361        4.908       21.017       29.157       31.419       22.622      850.157      987.140      511.734        0.184        0.117       29.768       15.759        0.280      353.165       36.364      862.241
06/28/2013  16:05:00      -23.743      -76.315       -7.609       41.061       59.640       28.116     1685.966     3556.989      790.498        0.624        0.302       79.923       28.849        0.130      352.977       36.035      862.237
06/28/2013  16:06:00       52.643      -72.054       19.507       59.687       44.473       34.087     3562.484     1977.857     1161.908        0.752        0.335       89.236       35.327        0.157      353.070       36.197      862.226
06/28/2013  16:07:00       -4.164       17.323        7.361       25.132       23.931       30.111      631.620      572.691      906.654        0.124        0.106       17.816       15.371        0.744      352.969       36.021      862.218
06/28/2013  16:08:00       10.255      -55.206        3.450       30.974       41.655       23.127      959.358     1735.099      534.849        0.320        0.161       56.151       17.469        0.097      353.014       36.098      862.223
06/28/2013  16:09:00     -154.496      -17.288        1.958      167.453      107.328       60.357    28040.501    11519.300     3643.014        3.368        2.160      155.460       83.947        0.292      353.307       36.610      862.219
06/28/2013  16:10:00     -135.375     -107.739       -2.485      110.746       94.629       52.646    12264.700     8954.739     2771.595        2.696        1.200      173.015       49.855        0.083      352.997       36.068      862.224
06/28/2013  16:11:00     -176.040     -151.888      -12.932      104.683       96.416       49.179    10958.608     9296.099     2418.560        3.845        1.134      232.508       53.970        0.054      352.921       35.933      862.230
06/28/2013  16:12:00     -119.644     -101.987       20.101      110.263       78.599       58.613    12157.880     6177.754     3435.466        2.344        1.089      157.213       62.268        0.157      352.923       35.936      862.233
06/28/2013  16:13:00      -61.064      -51.095       17.854       81.460       78.798       39.128     6635.669     6209.164     1530.997        1.051        0.719       79.622       40.363        0.257      352.998       36.072      862.234
06/28/2013  16:14:00      -55.972       43.677       -7.712       37.813       60.313       26.703     1429.798     3637.630      713.063        0.544        0.289       70.997       21.645        0.093      352.912       35.922      862.226
06/28/2013  16:15:00      -28.724       90.329       -1.761       36.956       63.142       30.263     1365.763     3986.961      915.850        0.763        0.313       94.786       25.604        0.073      352.903       35.906      862.211
06/28/2013  16:16:00       10.603        8.377       11.822       29.314       27.420       16.456      859.313      751.861      270.805        0.110        0.094       13.513       10.181        0.568      353.136       36.314      862.210
06/28/2013  16:17:00       49.560       78.145       -5.305       56.988       60.477       41.631     3247.662     3657.451     1733.149        0.861        0.432       92.536       35.655        0.148      352.811       35.744      862.204
06/28/2013  16:18:00       56.739       21.374       15.467       27.155       33.214       27.906      737.389     1103.172      778.729        0.327        0.131       60.631       10.041        0.027      352.136       34.563      862.200
06/28/2013  16:19:00       60.087        1.267        6.850       23.245       15.345       24.925      540.339      235.470      621.266        0.253        0.070       60.100       15.382        0.066      351.887       34.129      862.198
06/28/2013  16:20:00       -8.590       10.520        4.955       31.842       14.504       19.437     1013.927      210.357      377.809        0.091        0.080       13.582       20.596        2.299      352.544       35.277      862.187
06/28/2013  16:21:00      -48.275       21.530      -19.065       23.522       39.343       13.135      553.264     1547.837      172.526        0.272        0.114       52.858        8.861        0.028      353.117       36.280      862.193
06/28/2013  16:22:00      -94.898      -65.709       -6.662       87.027       39.929       27.947     7573.649     1594.323      781.056        1.166        0.497      115.426       33.977        0.087      353.161       36.356      862.196
06/28/2013  16:23:00     -137.691     -108.134        4.495       76.787       72.606       45.300     5896.316     5271.686     2052.122        2.194        0.661      175.076       29.548        0.028      353.293       36.586      862.179
06/28/2013  16:24:00     -156.011     -160.665       15.578      153.110       99.529       53.839    23442.603     9906.065     2898.611        4.331        1.812      223.948       67.461        0.091      353.214       36.447      862.171
06/28/2013  16:25:00     -312.437     -220.310      -17.622      109.161      117.380       71.905    11916.211    13777.973     5170.335        8.866        1.543      382.300       66.879        0.031      352.993       36.058      862.193
06/28/2013  16:26:00     -260.974      -98.291      -19.764      126.840       78.839       39.385    16088.348     6215.653     1551.187        5.100        1.193      278.870       42.571        0.023      352.759       35.650      862.204
06/28/2013  16:27:00      -59.194      -42.231        3.517       59.585       60.646       29.369     3550.341     3677.908      862.556        0.669        0.405       72.715       25.702        0.125      353.084       36.223      862.170
06/28/2013  16:28:00      -12.451      -80.164       19.285       62.662       84.216       51.133     3926.482     7092.252     2614.581        1.029        0.682       81.125       19.533        0.058      353.103       36.255      862.099
06/28/2013  16:29:00       86.041     -187.276      -46.402       83.511      122.984       50.803     6974.027    15125.070     2580.913        3.465        1.234      206.095       43.688        0.045      352.764       35.660      862.030
06/28/2013  16:30:00       48.308     -158.355      -46.638       90.585       94.694       62.814     8205.568     8966.938     3945.593        2.535        1.056      165.559       55.541        0.113      352.721       35.584      862.008
06/28/2013  16:31:00       48.139     -231.192      -40.633       83.198       74.283       68.101     6921.878     5518.016     4637.792        3.724        0.854      236.150       48.311        0.042      352.794       35.710      862.013
06/28/2013  16:32:00       30.228     -103.797       14.539       69.912       52.458       60.867     4887.685     2751.840     3704.842        1.162        0.567      108.108       31.164        0.083      352.824       35.767      862.019
06/28/2013  16:33:00       35.798     -146.429      -31.568       59.957       60.187       31.344     3594.901     3622.503      982.450        1.596        0.410      150.742       15.620        0.011      352.924       35.942      862.015
06/28/2013  16:34:00       29.487      -27.484       11.640       32.870       47.884       48.444     1080.412     2292.906     2346.819        0.374        0.286       40.309       41.796        1.075      352.774       35.679      862.001
06/28/2013  16:35:00       40.470       22.435       39.172       33.575       32.731       29.401     1127.310     1071.294      864.438        0.337        0.153       46.273       19.976        0.186      352.126       34.545      861.980
06/28/2013  16:36:00       24.349        0.512       35.105       31.743       30.349       21.719     1007.627      921.075      471.698        0.211        0.120       24.355       14.877        0.373      352.399       35.023      861.957
06/28/2013  16:37:00       38.700       26.491        4.480       52.744       44.597       21.941     2781.948     1988.868      481.418        0.373        0.263       46.898       12.465        0.071      352.121       34.538      861.942
06/28/2013  16:38:00      101.831      -16.883       20.740       67.485       34.360       34.913     4554.251     1180.606     1218.922        0.902        0.348      103.221       33.745        0.107      352.451       35.113      861.916
06/28/2013  16:39:00       26.603       20.422       16.746       32.645       25.403       29.967     1065.728      645.290      898.031        0.201        0.130       33.537       17.754        0.280      352.743       35.626      861.901
06/28/2013  16:40:00       38.457      -17.617       11.646       32.373       31.375       30.833     1047.983      984.391      950.702        0.245        0.149       42.300       23.736        0.315      352.464       35.137      861.893
06/28/2013  16:41:00       49.414       47.716       25.231       26.195       31.373       30.723      686.200      984.237      943.911        0.398        0.131       68.691       20.325        0.088      352.174       34.629      861.878
06/28/2013  16:42:00       16.770       85.731       -3.122       36.062       50.998       24.554     1300.500     2600.822      602.905        0.607        0.225       87.356       23.852        0.075      352.773       35.678      861.835
06/28/2013  16:43:00       15.393      -14.119       34.135       40.995       47.795       29.212     1680.599     2284.350      853.316        0.321        0.241       20.888       19.019        0.829      352.610       35.392      861.807
06/28/2013  16:44:00       45.291     -114.800        4.279       54.780       46.465       34.849     3000.888     2159.043     1214.470        1.081        0.319      123.411       34.837        0.080      352.742       35.623      861.804
06/28/2013  16:45:00        4.745      -59.041        4.061       36.932       34.543       33.254     1363.965     1193.215     1105.829        0.359        0.183       59.231       28.289        0.228      352.872       35.852      861.821
06/28/2013  16:46:00      -95.800       -9.942       -4.027       53.493       38.300       32.963     2861.457     1466.880     1086.585        0.735        0.271       96.315       28.807        0.089      352.876       35.857      861.825
06/28/2013  16:47:00      -81.780      -12.629      -14.800       29.921       27.151       17.690      895.263      737.174      312.922        0.451        0.097       82.750       12.636        0.023      352.834       35.784      861.831
06/28/2013  16:48:00       64.662        4.871       19.200       39.540       19.685       26.285     1563.420      387.506      690.918        0.361        0.132       64.845       21.158        0.106      351.943       34.226      861.833
06/28/2013  16:49:00       59.203       -1.654        3.506       20.798       21.761       22.514      432.559      473.542      506.872        0.247        0.071       59.226        4.527        0.006      351.832       34.032      861.822
06/28/2013  16:50:00       56.085       -7.655       12.847       21.347       37.096       27.747      455.675     1376.144      769.911        0.298        0.130       56.604       19.711        0.121      352.223       34.717      861.803
06/28/2013  16:51:00       -7.103       12.006       48.424       22.384       36.052       20.010      501.043     1299.774      400.407        0.237        0.110       13.950       16.353        1.374      351.730       33.854      861.783
06/28/2013  16:52:00        7.413       22.395       31.795       33.045       27.255       26.092     1091.952      742.854      680.785        0.204        0.126       23.590       25.282        1.149      351.447       33.359      861.779
06/28/2013  16:53:00       45.938       -8.966       20.559       31.753       27.437       26.117     1008.248      752.783      682.107        0.253        0.122       46.805       19.884        0.180      351.418       33.309      861.764
06/28/2013  16:54:00       16.578      -83.014       18.120       44.072       41.092       43.884     1942.354     1688.586     1925.835        0.652        0.278       84.653       33.340        0.155      352.195       34.667      861.755
06/28/2013  16:55:00      -58.686      -70.449       18.299       96.788       76.641       46.684     9368.001     5873.866     2179.374        1.308        0.871       91.690       47.006        0.263      352.611       35.394      861.755
06/28/2013  16:56:00     -190.984     -171.299      -10.879      115.766       79.827       48.661    13401.705     6372.418     2367.938        4.404        1.107      256.551       50.675        0.039      352.811       35.739      861.765
06/28/2013  16:57:00     -219.365     -155.907       -0.504       88.926       74.575       46.674     7907.918     5561.439     2178.468        4.403        0.782      269.124       45.211        0.028      352.807       35.731      861.770
06/28/2013  16:58:00      -15.898      -69.982        5.671       56.804       35.581       32.642     3226.660     1266.034     1065.531        0.537        0.278       71.765       18.727        0.068      352.780       35.690      861.781
06/28/2013  16:59:00       -0.018      -17.977       -4.712       47.216       29.518       23.634     2229.391      871.292      558.548        0.200        0.183       17.977       15.303        0.725      352.599       35.372      861.780
06/28/2013  17:00:00       42.852      -31.076      -14.802       28.580       23.120       28.533      816.793      534.545      814.153        0.259        0.108       52.934       16.786        0.101      351.653       33.721      861.776
06/28/2013  17:01:00        7.587      -33.958        8.477       47.574       38.669       28.152     2263.278     1495.290      792.521        0.292        0.228       34.796       22.360        0.413      351.339       33.171      861.776
06/28/2013  17:02:00       14.469      -94.089       -5.137       43.050       51.609       32.917     1853.339     2663.471     1083.513        0.734        0.280       95.195       23.538        0.061      352.596       35.367      861.781
06/28/2013  17:03:00        7.895      -36.868        3.552       26.583       55.267       29.067      706.636     3054.441      844.893        0.302        0.230       37.704       27.611        0.536      352.711       35.569      861.790
06/28/2013  17:04:00       15.468      -61.960       14.032       29.700       37.968       27.393      882.096     1441.582      750.403        0.367        0.154       63.862       19.817        0.096      352.488       35.179      861.800
06/28/2013  17:05:00       -2.648      -22.629       28.859       28.938       43.684       35.161      837.402     1908.269     1236.301        0.267        0.199       22.783       26.496        1.352      352.591       35.359      861.801
06/28/2013  17:06:00      -20.376       -5.610        9.713       32.014       37.443       29.945     1024.864     1402.012      896.691        0.193        0.166       21.134       28.220        1.783      352.657       35.474      861.798
06/28/2013  17:07:00      -44.062      -45.486        6.883       28.424       29.087       25.554      807.898      846.059      653.016        0.318        0.115       63.328       21.520        0.115      352.795       35.716      861.801
06/28/2013  17:08:00      -66.555       -8.589        0.155       49.325       31.253       23.515     2432.914      976.742      552.950        0.423        0.198       67.107       24.844        0.137      352.928       35.949      861.795
06/28/2013  17:09:00      -52.204        9.624        9.934       56.369       33.958       28.240     3177.481     1153.124      797.525        0.402        0.256       53.084       32.876        0.384      352.317       34.880      861.802
06/28/2013  17:10:00      -83.141      -24.470       15.608       64.621       48.253       35.359     4175.896     2328.315     1250.241        0.775        0.388       86.667       30.794        0.126      352.560       35.304      861.816
06/28/2013  17:11:00      -29.509      -80.668       18.959       51.726       49.901       29.398     2675.555     2490.062      864.216        0.688        0.301       85.896       26.327        0.094      352.869       35.846      861.830
06/28/2013  17:12:00     -118.134      -95.088        3.966       80.931       65.894       46.149     6549.829     4342.054     2129.699        1.801        0.651      151.649       48.686        0.103      352.872       35.850      861.815
06/28/2013  17:13:00        6.448       32.271       28.087       55.280       41.066       32.668     3055.911     1686.452     1067.216        0.384        0.290       32.908       28.092        0.729      352.326       34.896      861.829
06/28/2013  17:14:00     -165.509      -73.991       -8.201       92.289       96.005       51.215     8517.202     9217.055     2622.946        2.664        1.018      181.295       41.490        0.052      352.945       35.977      861.841
06/28/2013  17:15:00     -142.777     -221.603       -3.331      125.386       84.965       42.799    15721.742     7219.006     1831.735        4.713        1.239      263.616       42.220        0.026      352.714       35.569      861.865
06/28/2013  17:16:00      -85.223     -172.809        3.736       70.080       89.034       38.841     4911.149     7927.041     1508.611        2.574        0.717      192.681       29.107        0.023      352.782       35.690      861.852
06/28/2013  17:17:00     -103.108     -137.387       11.415       83.128       51.272       45.267     6910.307     2628.792     2049.130        2.061        0.579      171.775       45.096        0.069      352.804       35.732      861.868
06/28/2013  17:18:00      -64.376     -145.080       -4.981       69.240       62.338       34.271     4794.112     3886.067     1174.492        1.753        0.493      158.722       28.894        0.033      352.800       35.725      861.880
06/28/2013  17:19:00      -18.994     -141.488        1.346       51.584       66.034       44.330     2660.861     4360.444     1965.144        1.468        0.449      142.757       24.280        0.029      352.769       35.672      861.905
06/28/2013  17:20:00      -28.416     -199.208       19.572       43.421      111.233       37.678     1885.388    12372.891     1419.660        2.827        0.784      201.224       45.741        0.052      352.882       35.867      861.956
06/28/2013  17:21:00      -49.706     -138.020       -7.039       53.132       52.561       34.467     2823.051     2762.648     1187.989        1.417        0.339      146.697       24.420        0.028      352.938       35.966      861.999
06/28/2013  17:22:00      -76.956     -123.662       -0.209      117.448      104.752       39.802    13794.046    10972.891     1584.161        2.378        1.318      145.652       51.422        0.125      352.818       35.753      862.024
06/28/2013  17:23:00       12.335      -94.114       28.852       39.795       88.202       31.023     1583.643     7779.566      962.432        1.008        0.516       94.919       24.694        0.068      352.976       36.032      862.080
06/28/2013  17:24:00     -158.196     -147.279       -4.044      173.515      129.479       51.733    30107.492    16764.686     2676.347        4.813        2.477      216.141       65.741        0.093      352.932       35.954      862.105
06/28/2013  17:25:00       42.729      -78.336       49.319      112.200      123.707       59.119    12588.884    15303.378     3495.007        2.088        1.569       89.232       43.648        0.239      352.945       35.976      862.143
06/28/2013  17:26:00      151.126     -227.018      -31.898      107.675      157.535       61.193    11593.976    24817.350     3744.612        5.777        2.008      272.720       91.442        0.112      353.061       36.178      862.203
06/28/2013  17:27:00       37.392     -147.311       40.814      104.967      136.007       86.499    11018.157    18497.897     7482.014        3.087        1.850      151.983       93.163        0.376      352.679       35.510      862.283
06/28/2013  17:28:00      129.436     -143.448       45.302      139.758      146.322       78.065    19532.330    21410.123     6094.197        4.320        2.352      193.212       87.790        0.206      352.483       35.167      862.289
06/28/2013  17:29:00       -0.050     -167.421       10.200      175.681      116.802       67.794    30863.753    13642.666     4596.053        3.861        2.455      167.421       56.612        0.114      352.431       35.076      862.350
06/28/2013  17:30:00       24.724     -145.849       -1.711      130.427      135.755       84.341    17011.231    18429.541     7113.374        3.221        2.128      147.930       74.309        0.252      352.087       34.475      862.331
06/28/2013  17:31:00       77.794     -194.934       -6.509      101.376      106.288       65.372    10277.103    11297.218     4273.549        3.497        1.292      209.884       59.726        0.081      352.006       34.331      862.378
06/28/2013  17:32:00       21.860      -34.317       51.525       74.966      146.687       81.854     5619.918    21516.945     6700.138        1.907        1.692       40.688       89.116        4.797      351.910       34.167      862.359
06/28/2013  17:33:00        1.868      -72.128       34.016       88.847      118.085       70.255     7893.764    13943.977     4935.828        1.656        1.339       72.152       60.019        0.692      351.760       33.905      862.353
06/28/2013  17:34:00       43.013      -95.617       53.883      114.158      167.439      109.509    13032.110    28035.811    11992.323        3.347        2.653      104.846      111.579        1.133      351.661       33.729      862.338
06/28/2013  17:35:00      128.209     -146.718        8.553      114.552      118.296       69.483    13122.145    13994.041     4827.879        3.498        1.597      194.843       75.845        0.152      351.561       33.556      862.384
06/28/2013  17:36:00       67.651      -13.808      116.376      135.230      230.298      136.290    18287.098    53037.369    18575.071        5.409        4.495       69.046      152.674        4.889      351.360       33.207      862.363
06/28/2013  17:37:00      -11.589     -127.214       49.962      122.301      169.215      136.647    14957.421    28633.842    18672.482        4.053        3.113      127.741      106.941        0.701      351.389       33.257      862.358
06/28/2013  17:38:00      -46.770     -223.121       38.026      267.434      236.823      145.920    71520.762    56085.009    21292.722       10.113        7.445      227.970      149.605        0.431      351.354       33.196      862.473
06/28/2013  17:39:00      158.532     -312.140       59.283      252.675      295.306      146.074    63844.591    87205.452    21337.572       14.920        8.619      350.091      174.459        0.248      351.143       32.826      862.426
06/28/2013  17:40:00       43.131     -326.204       -8.429      152.661      175.345       87.526    23305.232    30745.706     7660.802        8.501        3.086      329.043       69.171        0.044      351.073       32.704      862.491
06/28/2013  17:41:00      101.593     -192.450       12.364      159.396      166.586      106.799    25407.020    27750.923    11406.010        5.602        3.228      217.619       93.968        0.186      350.882       32.374      862.521
06/28/2013  17:42:00       39.080     -354.435        2.008      206.214      230.330      115.199    42524.156    53051.788    13270.860       11.798        5.442      356.583       98.513        0.076      350.672       32.007      862.501
06/28/2013  17:43:00       46.239     -400.692       -4.598      186.458      262.915      136.330    34766.606    69124.108    18585.979       14.257        6.124      403.351      102.630        0.065      350.570       31.827      862.536
06/28/2013  17:44:00       45.883     -377.375       -7.574      184.999      277.870      115.321    34224.621    77211.936    13298.939       13.463        6.237      380.154       96.143        0.064      350.206       31.197      862.629
06/28/2013  17:45:00       35.673     -479.331      -25.244      253.380      228.948       99.160    64201.522    52417.376     9832.776       17.903        6.323      480.657       78.471        0.027      349.879       30.627      862.758
06/28/2013  17:46:00     -283.383     -426.931       -4.414      217.182      251.661      113.982    47167.909    63333.092    12991.871       19.302        6.175      512.422      109.927        0.046      348.939       28.998      862.837
06/28/2013  17:47:00     -447.321     -442.166       14.330      311.228      320.368      134.404    96862.892   102635.337    18064.428       30.664       10.878      628.973      156.494        0.062      348.602       28.414      862.956
06/28/2013  17:48:00     -622.538     -458.197      -34.644      272.612      205.985      113.080    74317.242    42429.900    12787.026       36.409        6.477      772.980      124.214        0.026      348.741       28.654      863.122
06/28/2013  17:49:00     -382.008     -341.843        9.597      249.595      163.675       99.365    62297.565    26789.433     9873.387       18.090        4.948      512.627      112.639        0.048      348.376       28.022      863.199
06/28/2013  17:50:00     -532.003     -344.851       13.541      269.579      205.663      115.129    72672.824    42297.330    13254.605       26.515        6.411      633.995      123.028        0.038      348.262       27.829      863.174
06/28/2013  17:51:00     -489.092     -395.177       15.207      303.918      200.008      130.365    92366.014    40003.047    16995.122       27.246        7.468      628.789      150.030        0.057      347.237       26.058      863.331
06/28/2013  17:52:00     -579.806     -345.423       17.987      309.195      229.816      126.269    95601.595    52815.326    15943.887       31.006        8.218      674.902      142.114        0.044      346.463       24.725      863.384
06/28/2013  17:53:00     -480.255     -391.476       22.842      266.234      237.309      123.741    70880.688    56315.748    15311.747       26.344        7.125      619.595      116.748        0.036      346.678       25.095      863.495
06/28/2013  17:54:00     -422.036     -286.921        7.495      295.583      211.923      124.966    87369.049    44911.318    15616.420       20.417        7.395      510.331      144.200        0.080      346.902       25.481      863.448
06/28/2013  17:55:00     -284.404     -381.317        7.054      226.574      182.646      116.528    51335.992    33359.638    13578.699       16.229        4.914      475.698      111.088        0.055      346.948       25.559      863.490
06/28/2013  17:56:00     -386.601     -271.910        3.722      214.136      166.873       93.800    45854.290    27846.442     8798.500       15.294        4.125      472.648       93.201        0.039      347.301       26.168      863.470
06/28/2013  17:57:00     -220.772     -212.509        5.451      177.724      143.239       81.692    31585.881    20517.370     6673.645        7.634        2.939      306.432       73.295        0.057      347.155       25.917      863.460
06/28/2013  17:58:00     -230.156      -81.937       -1.812      121.666      115.282       64.160    14802.539    13289.932     4116.529        4.594        1.610      244.306       52.634        0.046      347.044       25.725      863.367
06/28/2013  17:59:00      -48.650      -49.595        9.270       70.257       47.588       26.094     4936.015     2264.660      680.912        0.640        0.394       69.472       31.012        0.199      346.705       25.145      863.244
06/28/2013  18:00:00     -318.797     -120.177      -16.340       96.066       76.049       45.745     9228.695     5783.472     2092.576        6.672        0.855      340.696       43.191        0.016      346.649       25.044      863.243
06/28/2013  18:01:00     -162.439      -95.253       10.043       95.160       68.937       39.482     9055.367     4752.370     1558.810        2.546        0.768      188.307       44.693        0.056      346.598       24.958      863.276
06/28/2013  18:02:00     -298.357      -96.936       -4.107      105.390       66.481       40.190    11106.976     4419.750     1615.275        5.778        0.857      313.709       44.002        0.020      346.125       24.145      863.376
06/28/2013  18:03:00     -194.280      -17.661       -5.063       94.700       75.795       43.959     8968.061     5744.835     1932.401        2.736        0.832      195.081       43.687        0.050      346.241       24.344      863.503
06/28/2013  18:04:00     -130.721       94.671      -20.974       74.053       50.647       36.821     5483.838     2565.110     1355.789        1.795        0.470      161.402       30.722        0.036      347.058       25.751      863.571
06/28/2013  18:05:00       22.181       61.374       19.370       54.021       44.184       28.833     2918.312     1952.265      831.344        0.517        0.285       65.259       26.938        0.170      346.992       25.638      863.618
06/28/2013  18:06:00      107.267       46.935       -2.227       37.589       37.798       22.702     1412.961     1428.693      515.385        0.853        0.168      117.086       17.351        0.022      346.815       25.334      863.642
06/28/2013  18:07:00       85.984       83.832       10.679       47.409       46.636       47.598     2247.633     2174.955     2265.612        1.061        0.334      120.088       30.539        0.065      346.819       25.342      863.631
06/28/2013  18:08:00       59.707       41.805       13.605       35.616       43.138       36.345     1268.515     1860.907     1320.925        0.497        0.223       72.887       14.167        0.038      346.722       25.174      863.680
06/28/2013  18:09:00       70.141       65.994       53.623       59.090       41.031       35.249     3491.649     1683.567     1242.479        0.928        0.321       96.307       17.180        0.032      347.031       25.705      863.712
06/28/2013  18:10:00      152.197      113.577       56.730       72.612       39.271       58.951     5272.431     1542.198     3475.254        2.478        0.514      189.905       52.833        0.077      347.475       26.469      863.715
06/28/2013  18:11:00       -5.010       50.909       87.924       29.985       67.883       56.752      899.117     4608.104     3220.841        0.954        0.436       51.155       53.400        1.090      347.018       25.684      863.703
06/28/2013  18:12:00       12.097       45.735       13.885       46.030       81.161       29.116     2118.799     6587.046      847.741        0.599        0.478       47.308       38.151        0.650      346.716       25.163      863.772
06/28/2013  18:13:00       65.336      115.499        8.727       60.050       56.447       38.457     3606.036     3186.300     1478.921        1.298        0.414      132.698       41.307        0.097      346.817       25.338      863.844
06/28/2013  18:14:00      204.229      122.145       26.127       75.088       44.896       40.661     5638.168     2015.627     1653.341        3.331        0.465      237.968       29.449        0.015      347.138       25.889      863.883
06/28/2013  18:15:00      200.183      118.805       57.365       71.153       51.530       50.870     5062.801     2655.344     2587.741        3.389        0.515      232.783       29.197        0.016      347.207       26.006      863.905
06/28/2013  18:16:00      244.846      149.983       45.297       65.802       67.475       49.291     4329.931     4552.845     2429.601        4.790        0.566      287.132       26.508        0.009      348.373       28.019      863.934
06/28/2013  18:17:00      188.469      113.413       35.765       55.595       47.316       44.974     3090.791     2238.809     2022.662        2.851        0.368      219.961       23.998        0.012      348.181       27.687      863.968
06/28/2013  18:18:00      219.407      111.441       42.219       62.555       65.550       46.825     3913.150     4296.741     2192.564        3.637        0.520      246.087       30.231        0.015      348.167       27.661      863.988
06/28/2013  18:19:00      186.702      118.676       59.852       75.849       55.610       64.461     5753.020     3092.428     4155.220        3.276        0.650      221.227       48.346        0.048      348.294       27.884      864.006
06/28/2013  18:20:00      166.735       85.224       42.945       64.656       48.681       40.594     4180.407     2369.805     1647.859        2.255        0.410      187.253       19.663        0.011      348.682       28.554      864.029
06/28/2013  18:21:00      161.188       86.137       18.448       38.793       36.494       33.192     1504.869     1331.831     1101.699        1.884        0.197      182.760       19.241        0.011      349.175       29.410      863.990
06/28/2013  18:22:00      152.671       87.428       33.170       43.416       27.764       27.301     1884.973      770.864      745.320        1.773        0.170      175.932       23.263        0.017      349.705       30.329      863.929
06/28/2013  18:23:00       99.130       67.295       30.287       83.712       52.998       32.413     7007.617     2808.776     1050.623        1.307        0.543      119.814       34.148        0.081      349.314       29.651      863.817
06/28/2013  18:24:00       32.990      129.773      -10.231       52.906      138.668       37.628     2799.009    19228.711     1415.899        2.073        1.172      133.901       55.796        0.174      349.006       29.116      863.676
06/28/2013  18:25:00       52.104      259.917      -33.359       61.669       88.931       44.956     3803.036     7908.725     2021.022        4.256        0.687      265.088       46.578        0.031      349.376       29.753      863.556
06/28/2013  18:26:00      -23.670      220.866      -22.836      100.935      119.696       55.988    10187.799    14327.029     3134.657        3.875        1.382      222.131       64.281        0.084      349.109       29.291      863.458
06/28/2013  18:27:00      -54.922      287.962      -25.774       54.786      100.784       50.469     3001.556    10157.416     2547.087        5.115        0.785      293.152       58.466        0.040      349.180       29.416      863.393
06/28/2013  18:28:00       -7.187      298.572      -44.971       47.730       61.149       32.483     2278.193     3739.185     1055.135        4.914        0.354      298.658       28.183        0.009      349.340       29.691      863.390
06/28/2013  18:29:00        4.511      202.093      -31.332       40.736       69.784       28.876     1659.397     4869.864      833.827        2.460        0.368      202.144       32.999        0.027      349.238       29.518      863.437
06/28/2013  18:30:00       -1.094       68.793        5.899       41.819       38.280       29.819     1748.848     1465.387      889.190        0.444        0.205       68.802       30.036        0.191      348.765       28.700      863.551
06/28/2013  18:31:00        8.068       -2.541        1.317       46.844       59.784       29.584     2194.370     3574.126      875.223        0.336        0.332        8.458       25.813        9.313      348.488       28.221      863.717
06/28/2013  18:32:00       31.641     -183.004      -38.445       71.647       74.095       41.940     5133.292     5490.074     1758.961        2.417        0.619      185.719       39.288        0.045      347.866       27.143      863.781
06/28/2013  18:33:00       56.183     -131.778        6.156       72.618       96.044       50.828     5273.401     9224.482     2583.535        1.882        0.854      143.255       49.790        0.121      347.559       26.613      863.848
06/28/2013  18:34:00       38.458       10.499       18.046       50.101       60.393       42.116     2510.155     3647.312     1773.772        0.492        0.397       39.865       18.897        0.225      347.847       27.112      863.890
06/28/2013  18:35:00      -72.900       56.119       -8.429       32.607       50.492       24.308     1063.199     2549.488      590.876        0.637        0.210       91.998       26.106        0.081      348.020       27.412      863.917
06/28/2013  18:36:00      -62.171       91.732       -9.249       43.914       79.115       33.683     1928.414     6259.123     1134.548        1.084        0.466      110.815       37.574        0.115      348.021       27.414      863.905
06/28/2013  18:37:00      -38.970      -16.104        3.140       66.985       35.909       30.535     4486.963     1289.422      932.358        0.425        0.335       42.166       28.149        0.446      347.925       27.247      863.892
06/28/2013  18:38:00     -141.261       50.517      -17.672       41.482       91.605       26.132     1720.762     8391.519      682.874        1.680        0.540      150.022       24.459        0.027      347.894       27.195      863.951
06/28/2013  18:39:00       -3.308      232.101       38.684      156.252      150.666      101.381    24414.702    22700.131    10278.034        5.637        2.870      232.125       99.684        0.184      348.943       29.004      863.794
06/28/2013  18:40:00      -61.812      397.432      -30.268      131.687      187.324       85.455    17341.513    35090.153     7302.546       11.120        2.987      402.210      102.955        0.066      350.262       31.294      863.687
06/28/2013  18:41:00       82.436      251.744       -8.845      123.981      210.064       77.988    15371.336    44126.897     6082.174        6.790        3.279      264.898       76.762        0.084      349.870       30.613      863.672
06/28/2013  18:42:00      110.186       97.743       64.000      122.516       56.843       44.476    15010.081     3231.087     1978.097        2.300        1.011      147.291       49.269        0.112      349.881       30.633      863.719
06/28/2013  18:43:00      125.539       71.828       54.529       69.818       49.941       53.623     4874.533     2494.104     2875.407        1.707        0.512      144.635       42.532        0.086      349.912       30.686      863.737
06/28/2013  18:44:00      101.727       48.557       32.726       63.989       53.595       50.517     4094.598     2872.455     2551.949        1.165        0.476      112.722       24.616        0.048      349.651       30.234      863.698
06/28/2013  18:45:00       81.143       89.658       10.586       80.620       61.850       61.037     6499.546     3825.363     3725.542        1.439        0.703      120.924       40.399        0.112      349.239       29.522      863.656
06/28/2013  18:46:00       85.431      123.442        6.837       66.311       57.030       47.365     4397.118     3252.412     2243.401        1.624        0.495      150.122       34.784        0.054      348.841       28.831      863.631
06/28/2013  18:47:00       45.967      208.026      -29.736       60.747       73.460       49.976     3690.213     5396.441     2497.646        2.893        0.579      213.044       47.000        0.049      348.703       28.590      863.633
06/28/2013  18:48:00       23.291      213.024      -22.266       42.061       86.719       40.388     1769.151     7520.229     1631.201        2.867        0.546      214.293       39.117        0.033      349.433       29.855      863.614
06/28/2013  18:49:00      -67.681      206.433      -23.213       67.058       78.296       45.081     4496.773     6130.269     2032.327        3.019        0.633      217.245       35.524        0.027      349.231       29.504      863.621
06/28/2013  18:50:00     -102.768      249.174      -32.558       74.952       90.484       50.489     5617.751     8187.279     2549.174        4.503        0.818      269.535       38.450        0.020      349.379       29.758      863.623
06/28/2013  18:51:00     -185.110       89.177      -36.891       42.653       59.106       24.541     1819.307     3493.496      602.278        2.475        0.296      205.471       29.903        0.021      349.015       29.130      863.617
06/28/2013  18:52:00      -96.459       69.300      -20.241       74.666       62.069       30.629     5575.001     3852.524      938.159        1.244        0.518      118.772       33.787        0.081      348.688       28.566      863.618
06/28/2013  18:53:00     -148.566       12.993      -12.540       65.970       37.078       35.228     4352.046     1374.809     1241.034        1.468        0.348      149.133       39.823        0.071      348.582       28.382      863.612
06/28/2013  18:54:00      -72.334       82.613      -15.164       32.921       51.037       25.843     1083.817     2604.825      667.858        0.832        0.218      109.805       27.780        0.064      348.687       28.566      863.618
06/28/2013  18:55:00      -77.602       60.622      -17.136       31.405       42.389       20.547      986.267     1796.801      422.159        0.660        0.160       98.474       18.636        0.036      348.654       28.507      863.628
06/28/2013  18:56:00      -49.483       74.697        0.779       93.333       91.364       48.406     8711.135     8347.328     2343.154        1.371        0.970       89.600       36.998        0.171      348.837       28.823      863.637
06/28/2013  18:57:00      -33.653      103.866       -0.309       41.698       59.993       34.288     1738.690     3599.200     1175.674        0.922        0.326      109.182       29.484        0.073      348.941       29.004      863.656
06/28/2013  18:58:00      -11.167       50.162       12.230       38.747       45.870       30.031     1501.356     2104.031      901.842        0.365        0.225       51.390       28.293        0.303      348.917       28.963      863.651
06/28/2013  18:59:00      -26.523      215.197      -11.323       64.397       96.088       44.961     4146.969     9232.913     2021.500        3.127        0.770      216.825       43.205        0.040      349.137       29.340      863.630
06/28/2013  19:00:00      -33.387      335.791      -34.538       90.589      116.761       51.915     8206.358    13633.112     2695.210        6.979        1.227      337.447       54.038        0.026      349.235       29.510      863.635
06/28/2013  19:01:00      -27.769      376.076      -39.468      105.933      164.755       68.567    11221.802    27144.261     4701.471        9.341        2.153      377.100       76.767        0.041      349.285       29.597      863.622
06/28/2013  19:02:00       36.046      333.080      -37.895      103.420      131.304       73.216    10695.668    17240.852     5360.620        7.348        1.665      335.025       80.894        0.058      349.304       29.631      863.615
06/28/2013  19:03:00       16.314      388.869      -35.455       98.603      136.068       73.144     9722.637    18514.595     5350.103        9.316        1.679      389.211       73.888        0.036      349.188       29.429      863.615
06/28/2013  19:04:00       37.233      218.678        5.298       89.807      137.807       85.887     8065.231    18990.770     7376.589        4.183        1.722      221.825       79.989        0.130      349.088       29.257      863.619
06/28/2013  19:05:00      -13.366      333.589      -42.361       78.517       83.568       58.458     6164.880     6983.613     3417.280        6.491        0.828      333.856       45.989        0.019      349.058       29.201      863.616
06/28/2013  19:06:00      -48.181      347.086      -42.122       61.207       90.495       45.344     3746.319     8189.325     2056.034        6.928        0.700      350.414       44.348        0.016      349.028       29.151      863.611
06/28/2013  19:07:00      -14.346      352.686      -43.442       60.025       96.150       47.843     3603.057     9244.796     2288.908        7.081        0.757      352.977       55.464        0.025      348.955       29.025      863.595
06/28/2013  19:08:00       18.488      324.839      -49.274       49.371       75.579       37.953     2437.481     5712.224     1440.399        5.894        0.480      325.365       35.424        0.012      348.877       28.891      863.575
06/28/2013  19:09:00      -47.381      306.853      -37.091       52.362       62.396       27.522     2741.806     3893.251      757.466        5.258        0.370      310.490       24.161        0.006      348.993       29.090      863.536
06/28/2013  19:10:00      -69.435      201.675      -18.945       63.683       75.359       39.674     4055.545     5679.038     1574.051        2.858        0.565      213.293       41.008        0.037      348.812       28.777      863.506
06/28/2013  19:11:00      -99.147      112.347      -18.222       42.480       63.344       34.742     1804.579     4012.515     1206.976        1.490        0.351      149.840       25.948        0.030      348.791       28.744      863.489
06/28/2013  19:12:00     -116.228      148.665      -22.534       61.452      107.142       45.634     3776.363    11479.328     2082.429        2.672        0.867      188.707       50.740        0.072      348.703       28.589      863.496
06/28/2013  19:13:00     -172.522      288.961      -41.049      105.088      148.935       72.041    11043.479    22181.670     5189.931        7.667        1.921      336.545       79.945        0.056      348.567       28.354      863.497
06/28/2013  19:14:00     -136.211      319.995      -50.137       93.470      126.029       51.072     8736.657    15883.325     2608.305        7.534        1.361      347.779       48.488        0.019      348.480       28.203      863.486
06/28/2013  19:15:00     -161.431      212.535      -24.403      103.868      112.420       77.479    10788.644    12638.332     6003.019        5.062        1.471      266.892       67.270        0.064      348.379       28.030      863.455
06/28/2013  19:16:00     -114.662      383.270      -37.189       78.639      114.821       47.789     6184.029    13183.779     2283.824        9.153        1.083      400.054       45.883        0.013      348.537       28.302      863.475
06/28/2013  19:17:00     -122.024      247.580      -31.155      121.870       94.523       57.305    14852.239     8934.640     3283.820        5.211        1.354      276.018       68.909        0.062      348.384       28.037      863.466
06/28/2013  19:18:00     -217.439      312.189      -53.530       81.501      138.977       61.112     6642.383    19314.539     3734.674        8.864        1.485      380.449       46.374        0.015      348.415       28.091      863.465
06/28/2013  19:19:00     -234.135      253.174      -41.254      101.120      131.887       74.360    10225.155    17394.283     5529.353        7.688        1.657      344.843       75.718        0.048      348.373       28.017      863.463
06/28/2013  19:20:00     -307.225      351.012      -71.692      112.411      151.272       66.481    12636.267    22883.069     4419.659       13.133        1.997      466.473       64.006        0.019      348.332       27.947      863.464
06/28/2013  19:21:00     -239.902      283.914      -47.733      130.226      112.705       77.927    16958.772    12702.492     6072.556        8.808        1.787      371.699       82.698        0.049      348.355       27.986      863.451
06/28/2013  19:22:00     -215.602      309.162      -49.181      100.817      123.341       61.627    10164.154    15212.929     3797.932        8.682        1.459      376.916       68.475        0.033      348.380       28.032      863.438
06/28/2013  19:23:00     -199.801      248.475      -37.161      120.181      111.587       75.601    14443.423    12451.676     5715.495        6.782        1.631      318.843       79.309        0.062      348.379       28.026      863.404
06/28/2013  19:24:00     -236.675      370.657      -71.995      105.116      117.527       63.156    11049.299    13812.608     3988.673       11.371        1.443      439.774       61.196        0.019      348.357       27.991      863.372
06/28/2013  19:25:00     -271.014      363.648      -78.218      129.085      119.668       71.089    16662.873    14320.423     5053.642       12.391        1.802      453.529       79.260        0.031      348.438       28.130      863.342
06/28/2013  19:26:00     -171.039      291.149      -34.738       75.287      110.159       60.754     5668.162    12134.947     3691.092        6.836        1.075      337.671       54.309        0.026      348.425       28.109      863.274
06/28/2013  19:27:00     -150.482      283.244      -26.324      121.116      122.692       65.530    14669.024    15053.232     4294.225        6.878        1.701      320.737       69.456        0.047      348.556       28.334      863.248
06/28/2013  19:28:00     -178.382      197.312      -23.228       85.760      109.743       65.950     7354.808    12043.585     4349.367        4.751        1.187      265.993       57.585        0.047      348.693       28.572      863.237
06/28/2013  19:29:00      -97.441      264.912      -22.219       72.717      134.746       58.513     5287.829    18156.465     3423.754        5.351        1.343      282.264       64.010        0.051      348.668       28.529      863.261
06/28/2013  19:30:00      -94.701      282.690      -31.868       90.838      114.869       53.608     8251.478    13194.983     2873.849        5.710        1.216      298.130       50.077        0.028      348.559       28.339      863.268
06/28/2013  19:31:00     -151.184      157.746      -12.749       96.197      103.094       66.451     9253.851    10628.303     4415.676        3.610        1.215      218.495       64.700        0.088      348.727       28.631      863.308
06/28/2013  19:32:00     -126.502      184.183      -21.445       71.998       84.971       52.981     5183.666     7220.106     2806.959        3.280        0.761      223.442       47.885        0.046      348.860       28.861      863.314
06/28/2013  19:33:00     -115.774      165.288      -10.417       84.412      112.113       55.729     7125.376    12569.363     3105.720        3.181        1.140      201.802       36.185        0.032      348.839       28.827      863.301
06/28/2013  19:34:00     -115.147      214.345      -11.798       93.971      159.378       56.555     8830.641    25401.311     3198.429        4.838        1.872      243.316       46.579        0.037      348.845       28.836      863.301
06/28/2013  19:35:00     -263.994      285.858      -47.082      145.166      165.641       83.961    21073.243    27437.000     7049.393       10.458        2.778      389.112       82.426        0.045      348.981       29.070      863.306
06/28/2013  19:36:00     -184.815      233.263      -33.231      112.903      120.388       63.648    12747.163    14493.359     4051.089        6.048        1.565      297.604       60.996        0.042      348.935       28.992      863.281
06/28/2013  19:37:00     -176.414      237.082      -21.165      112.585      151.513       75.274    12675.310    22956.067     5666.223        6.453        2.065      295.516       78.273        0.070      348.914       28.955      863.248
06/28/2013  19:38:00     -222.414      291.152      -45.694      113.298      137.944       67.984    12836.477    19028.464     4621.804        8.640        1.824      366.384       62.020        0.029      348.886       28.907      863.223
06/28/2013  19:39:00     -244.767      313.157      -51.534      140.620      130.045       87.320    19773.990    16911.615     7624.868       10.246        2.216      397.465       78.036        0.039      348.869       28.875      863.188
06/28/2013  19:40:00     -246.937      246.552      -49.673      120.760      135.740       74.223    14582.879    18425.419     5509.004        8.137        1.926      348.950       74.107        0.045      348.817       28.785      863.166
06/28/2013  19:41:00     -196.876      247.471      -30.633      122.894      141.269       62.511    15102.813    19957.057     3907.595        6.995        1.948      316.231       59.889        0.036      348.778       28.718      863.109
06/28/2013  19:42:00     -152.177      254.490      -29.700      121.349      155.494       72.561    14725.627    24178.507     5265.055        6.648        2.208      296.518       81.671        0.076      348.740       28.654      863.072
06/28/2013  19:43:00     -166.226      239.019      -35.563       92.522       93.400       51.243     8560.402     8723.648     2625.803        5.296        0.995      291.138       49.193        0.029      348.726       28.630      863.019
06/28/2013  19:44:00     -242.666      208.341      -25.693      129.881      112.534       83.169    16869.005    12664.011     6917.015        6.969        1.823      319.833       78.272        0.060      348.720       28.620      862.976
06/28/2013  19:45:00     -145.663      242.990      -30.643      102.260      123.028       67.785    10457.121    15135.808     4594.814        5.569        1.509      283.305       68.579        0.059      348.667       28.527      862.951
06/28/2013  19:46:00     -136.301      236.135      -21.133       80.747      113.007       58.017     6520.091    12770.471     3365.970        4.872        1.133      272.649       46.599        0.029      348.666       28.524      862.930
06/28/2013  19:47:00     -181.928      200.493      -39.384       85.011       84.521       58.357     7226.819     7143.726     3405.534        4.631        0.889      270.731       52.518        0.038      348.692       28.572      862.917
06/28/2013  19:48:00     -197.979      214.260      -27.586      107.297       91.043       64.832    11512.715     8288.860     4203.172        5.493        1.200      291.724       55.842        0.037      348.723       28.624      862.908
06/28/2013  19:49:00     -195.627      286.667      -50.588      104.640      130.349       59.911    10949.567    16990.771     3589.380        7.726        1.576      347.056       66.522        0.037      348.783       28.727      862.906
06/28/2013  19:50:00     -167.946      179.603      -36.779       86.391      123.446       57.815     7463.484    15238.928     3342.580        4.393        1.302      245.893       62.414        0.064      348.798       28.752      862.907
06/28/2013  19:51:00     -184.505      247.068      -27.005      107.955      144.404       65.900    11654.295    20852.430     4342.797        6.632        1.842      308.358       68.318        0.049      348.827       28.803      862.908
06/28/2013  19:52:00     -119.681      153.718      -26.004       64.056       72.737       39.808     4103.125     5290.710     1584.709        2.480        0.549      194.815       37.017        0.036      348.767       28.702      862.890
06/28/2013  19:53:00      -86.458       75.314       -9.663       53.866       77.540       35.252     2901.572     6012.451     1242.690        1.170        0.508      114.661       32.589        0.081      348.761       28.692      862.859
06/28/2013  19:54:00     -134.500      120.704      -16.250       96.102      112.359       58.216     9235.571    12624.578     3389.109        2.908        1.262      180.720       58.202        0.104      348.821       28.795      862.817
06/28/2013  19:55:00     -172.812       67.078      -25.517      140.159       72.059       44.889    19644.685     5192.529     2015.000        3.093        1.343      185.374       44.648        0.058      348.806       28.769      862.777
06/28/2013  19:56:00     -207.738       78.165      -19.351      118.953       89.691       56.075    14149.810     8044.387     3144.418        3.748        1.267      221.957       62.897        0.080      348.829       28.808      862.733
06/28/2013  19:57:00     -153.323       42.258       -4.419       87.168       68.262       39.426     7598.195     4659.709     1554.435        1.956        0.691      159.040       40.893        0.066      348.820       28.793      862.723
06/28/2013  19:58:00     -137.407       80.476      -22.459       81.856      106.106       47.469     6700.418    11258.538     2253.288        2.303        1.011      159.239       38.663        0.059      348.804       28.766      862.726
06/28/2013  19:59:00     -133.716       29.147      -27.116       61.053       75.441       48.677     3727.491     5691.390     2369.468        1.562        0.589      136.856       33.771        0.061      348.769       28.706      862.722
06/28/2013  20:00:00     -168.708       86.644      -28.614       81.816       71.712       53.319     6693.892     5142.656     2842.867        2.573        0.734      189.656       52.436        0.076      348.805       28.767      862.725
06/28/2013  20:01:00     -184.554      104.532      -36.149       68.993       73.225       41.259     4760.023     5361.939     1702.283        2.906        0.591      212.101       33.774        0.025      348.850       28.845      862.729
06/28/2013  20:02:00     -132.922      -12.607      -20.669       55.474       81.629       40.690     3077.316     6663.249     1655.682        1.482        0.570      133.519       26.048        0.038      348.695       28.578      862.737
06/28/2013  20:03:00     -171.582      -12.875      -22.362       72.844       74.473       43.729     5306.263     5546.232     1912.209        2.143        0.638      172.064       32.087        0.035      348.674       28.541      862.739
06/28/2013  20:04:00     -154.846      -38.026      -14.335       45.175       45.373       36.655     2040.800     2058.669     1343.571        1.553        0.272      159.447       29.110        0.033      348.691       28.570      862.759
06/28/2013  20:05:00     -148.707       38.323      -27.745       71.259       98.126       56.895     5077.871     9628.654     3237.003        2.114        0.897      153.566       45.986        0.090      348.617       28.441      862.764
06/28/2013  20:06:00     -198.237       47.332      -31.568       65.313       58.483       37.528     4265.724     3420.211     1408.345        2.581        0.455      203.809       33.205        0.027      348.604       28.418      862.787
06/28/2013  20:07:00     -216.002       39.150      -18.017       78.284       85.500       43.864     6128.320     7310.238     1924.090        3.194        0.768      219.521       33.952        0.024      348.607       28.424      862.811
06/28/2013  20:08:00     -160.089       46.601      -17.064       79.430       59.335       41.073     6309.204     3520.688     1687.027        1.980        0.576      166.733       42.421        0.065      348.560       28.342      862.834
06/28/2013  20:09:00     -174.243       23.214      -37.218       66.007       89.032       35.132     4356.906     7926.687     1234.254        2.290        0.676      175.782       37.501        0.046      348.537       28.303      862.855
06/28/2013  20:10:00     -159.555      -10.304      -19.492       69.584       81.552       45.045     4841.977     6650.781     2029.015        1.973        0.676      159.887       38.225        0.057      348.480       28.204      862.869
06/28/2013  20:11:00     -159.685       65.109      -21.777       60.389       84.522       39.145     3646.889     7143.945     1532.314        2.127        0.616      172.448       30.665        0.032      348.434       28.124      862.879
06/28/2013  20:12:00     -200.274      -31.924      -14.487       75.974       98.046       45.647     5772.062     9613.045     2083.639        2.940        0.873      202.803       33.670        0.028      348.491       28.224      862.894
06/28/2013  20:13:00     -180.956      -63.304      -17.311       56.675       52.541       41.296     3212.002     2760.572     1705.365        2.236        0.384      191.710       30.592        0.025      348.424       28.109      862.908
06/28/2013  20:14:00      -90.469      -19.165       -6.457       46.737       53.342       28.684     2184.317     2845.415      822.786        0.722        0.293       92.477       19.823        0.046      348.418       28.101      862.907
06/28/2013  20:15:00     -117.334      -38.440       -3.581       43.651       59.373       28.066     1905.425     3525.097      787.693        1.074        0.311      123.471       10.519        0.007      348.412       28.088      862.913
06/28/2013  20:16:00      -67.964       18.039       -2.782       49.588       41.699       31.517     2459.008     1738.803      993.292        0.507        0.260       70.317       27.998        0.159      348.463       28.179      862.911
06/28/2013  20:17:00     -148.300        8.220      -19.667       46.005       89.798       27.778     2116.488     8063.596      771.642        1.670        0.548      148.528       13.440        0.008      348.541       28.311      862.893
06/28/2013  20:18:00     -128.379       63.639      -14.846       45.461       43.748       33.326     2066.676     1913.898     1110.607        1.292        0.255      143.287        9.400        0.004      348.634       28.474      862.887
06/28/2013  20:19:00     -106.345       11.572       -9.191       50.895       60.350       33.812     2590.276     3642.118     1143.265        0.945        0.369      106.972       30.218        0.080      348.539       28.306      862.918
06/28/2013  20:20:00     -111.761       35.411        5.553       79.515      126.012       48.589     6322.633    15879.046     2360.886        1.916        1.228      117.237       49.547        0.179      348.633       28.469      862.916
06/28/2013  20:21:00      -66.656       -6.485       -1.451       45.175       44.025       26.914     2040.792     1938.164      724.364        0.459        0.235       66.971       18.440        0.076      348.411       28.087      862.933
06/28/2013  20:22:00      -84.384       -9.722        5.850       62.129       42.207       30.427     3860.047     1781.469      925.778        0.691        0.328       84.942       32.090        0.143      348.667       28.530      862.962
06/28/2013  20:23:00      -47.841      -33.945        4.415       42.569       39.060       17.301     1812.142     1525.657      299.330        0.355        0.182       58.660       14.852        0.064      348.558       28.340      862.983
06/28/2013  20:24:00       37.820      -17.833       20.132       24.747       24.290       20.972      612.413      589.993      439.824        0.190        0.082       41.813       19.203        0.211      348.045       27.454      863.011
06/28/2013  20:25:00       42.289      -15.028       12.138       22.606       21.480       19.976      511.047      461.396      399.046        0.177        0.069       44.880       15.829        0.124      347.812       27.052      863.040
06/28/2013  20:26:00       35.130       -2.196       32.180       26.238       18.704       17.858      688.413      349.846      318.913        0.182        0.068       35.198       11.450        0.106      347.596       26.680      863.083
06/28/2013  20:27:00       45.758        5.611       32.004       27.690       16.319       17.966      766.736      266.318      322.774        0.225        0.068       46.101       10.052        0.048      347.594       26.676      863.111
06/28/2013  20:28:00       52.671       20.780       11.485       24.048       19.421       18.136      578.317      377.161      328.897        0.231        0.064       56.622       11.939        0.044      347.996       27.370      863.129
06/28/2013  20:29:00       38.525       45.438        8.738       22.661       19.110       15.065      513.521      365.182      226.952        0.237        0.055       59.572        7.466        0.016      348.204       27.730      863.145
06/28/2013  20:30:00       21.928       61.676       -9.620       22.217       25.406       18.753      493.596      645.452      351.684        0.293        0.075       65.458       18.610        0.081      348.364       28.006      863.176
06/28/2013  20:31:00       34.561       59.516       -0.265       36.505       35.858       27.884     1332.590     1285.819      777.522        0.407        0.170       68.823       24.034        0.122      348.387       28.045      863.208
06/28/2013  20:32:00       13.350      108.211       -9.955       34.513       59.765       26.816     1191.124     3571.863      719.116        0.873        0.274      109.032       32.098        0.087      348.556       28.338      863.245
06/28/2013  20:33:00       38.794      120.790       -9.767       45.871       44.943       29.665     2104.165     2019.847      880.029        1.060        0.250      126.866       27.875        0.048      348.456       28.166      863.267
06/28/2013  20:34:00       -2.392      232.671      -11.293       54.661       93.079       56.326     2987.799     8663.728     3172.646        3.454        0.741      232.683       51.892        0.050      348.306       27.903      863.291
06/28/2013  20:35:00     -160.712      200.759      -26.542      109.955      159.008       52.554    12090.007    25283.604     2761.898        5.348        2.007      257.163       45.275        0.031      348.121       27.583      863.320
06/28/2013  20:36:00     -146.038      272.470      -27.622      108.597      129.778       66.301    11793.205    16842.415     4395.788        6.467        1.652      309.139       50.837        0.027      347.850       27.112      863.332
06/28/2013  20:37:00     -153.216      319.126      -49.349      117.219      186.232       58.095    13740.260    34682.211     3375.039        8.976        2.590      354.000       52.530        0.022      347.543       26.585      863.309
06/28/2013  20:38:00     -166.170      186.506      -36.856       94.370      119.734       57.733     8905.608    14336.194     3333.145        4.516        1.329      249.794       48.617        0.038      347.481       26.478      863.337
06/28/2013  20:39:00     -183.900      222.661      -42.542       77.882       99.589       50.888     6065.577     9917.966     2589.539        5.189        0.929      288.786       42.565        0.022      347.402       26.340      863.331
06/28/2013  20:40:00     -260.859      301.049      -65.221      115.460      161.555       64.444    13331.056    26099.933     4153.088       10.325        2.179      398.343       77.564        0.038      347.439       26.406      863.322
06/28/2013  20:41:00     -169.057      151.803      -29.339       70.278       86.571       43.253     4938.978     7494.468     1870.861        3.339        0.715      227.210       42.641        0.035      347.403       26.343      863.310
06/28/2013  20:42:00     -176.150      185.783      -22.925      104.882      111.353       58.441    11000.223    12399.494     3415.396        4.644        1.341      256.016       53.151        0.043      347.393       26.326      863.313
06/28/2013  20:43:00     -218.494      284.093      -55.718       97.914      101.287       59.005     9587.122    10259.053     3481.571        7.744        1.166      358.397       57.479        0.026      347.392       26.324      863.310
06/28/2013  20:44:00     -228.409      300.892      -58.708      104.903      114.301       62.829    11004.633    13064.691     3947.437        8.708        1.401      377.765       51.809        0.019      347.418       26.368      863.284
06/28/2013  20:45:00     -151.571      242.806      -34.048       87.803      123.442       66.557     7709.280    15237.809     4429.851        5.523        1.369      286.231       66.051        0.053      347.400       26.337      863.287
06/28/2013  20:46:00     -177.649      150.021      -28.123      104.823       79.661       48.143    10987.797     6345.850     2317.714        3.725        0.983      232.520       46.066        0.039      347.382       26.308      863.289
06/28/2013  20:47:00     -193.038      298.405      -47.074      101.886      111.770       72.616    10380.822    12492.585     5273.031        7.833        1.407      355.400       70.925        0.040      347.409       26.352      863.306
06/28/2013  20:48:00     -195.201      198.137      -32.641       80.873       91.269       52.846     6540.415     8329.991     2792.678        4.804        0.883      278.139       37.521        0.018      347.273       26.118      863.309
06/28/2013  20:49:00     -236.995      138.220      -38.190      100.469       85.162       57.505    10093.974     7252.632     3306.772        4.869        1.033      274.356       42.953        0.025      347.292       26.152      863.319
06/28/2013  20:50:00     -171.570      119.694      -24.649       95.370       73.992       42.367     9095.488     5474.779     1794.956        3.036        0.818      209.196       36.556        0.031      347.245       26.072      863.319
06/28/2013  20:51:00     -156.291      113.591      -12.271      104.352       86.068       58.135    10889.430     7407.679     3379.644        2.957        1.084      193.210       48.891        0.064      347.292       26.154      863.321
06/28/2013  20:52:00     -132.921       77.388       -4.197       60.946       71.902       49.854     3714.400     5169.944     2485.432        1.752        0.568      153.809       41.748        0.074      347.250       26.081      863.317
06/28/2013  20:53:00     -145.724      101.403      -28.829       94.627       69.298       40.411     8954.294     4802.193     1633.076        2.387        0.769      177.533       30.679        0.030      347.221       26.033      863.317
06/28/2013  20:54:00     -208.566      182.149      -29.946      111.313      129.830       63.391    12390.646    16855.814     4018.372        5.541        1.663      276.908       82.432        0.089      347.505       26.519      863.322
06/28/2013  20:55:00     -126.264       99.573       12.190       94.748       93.022       52.984     8977.111     8653.128     2807.265        2.322        1.022      160.802       55.450        0.119      347.552       26.602      863.307
06/28/2013  20:56:00     -134.521       64.788      -20.087       78.642       68.096       43.012     6184.570     4637.070     1850.065        1.768        0.634      149.310       39.793        0.071      347.515       26.539      863.297
06/28/2013  20:57:00     -143.915      130.696      -38.827       49.572       82.360       37.180     2457.361     6783.103     1382.366        2.496        0.531      194.404       27.051        0.019      347.550       26.599      863.303
06/28/2013  20:58:00      -93.022        4.269       -2.368       62.222       84.018       37.268     3871.542     7059.036     1388.891        1.050        0.616       93.120       26.813        0.083      347.496       26.507      863.314
06/28/2013  20:59:00     -138.013      -42.225       -8.751       58.437       53.414       29.632     3414.900     2853.039      878.066        1.403        0.357      144.328       29.645        0.042      347.419       26.374      863.335
06/28/2013  21:00:00     -121.843      -29.013      -11.682       66.677       49.507       27.040     4445.803     2450.975      731.141        1.172        0.381      125.249       19.025        0.023      347.386       26.313      863.380
06/28/2013  21:01:00     -112.274      -23.160       -3.102       75.386       54.425       31.093     5683.088     2962.110      966.794        1.138        0.481      114.638       27.107        0.056      347.345       26.245      863.397
06/28/2013  21:02:00     -102.215      -39.830      -19.174       55.579       57.705       29.004     3088.989     3329.858      841.258        0.983        0.363      109.701       27.536        0.063      347.330       26.221      863.402
06/28/2013  21:03:00     -155.219      -19.195      -16.507       60.949       52.829       28.404     3714.752     2790.876      806.777        1.602        0.366      156.401       34.904        0.050      347.329       26.220      863.430
06/28/2013  21:04:00      -93.532      -31.638       -6.540       51.703       52.739       25.856     2673.229     2781.414      668.533        0.796        0.306       98.738       26.830        0.074      347.358       26.269      863.441
06/28/2013  21:05:00      -93.420        8.070       -6.421       52.020       46.911       31.860     2706.121     2200.648     1015.083        0.738        0.296       93.767       17.575        0.035      347.379       26.304      863.462
06/28/2013  21:06:00     -195.104       -7.555       -4.671       79.787       65.357       27.011     6365.901     4271.519      729.571        2.475        0.568      195.251       22.528        0.013      347.291       26.152      863.500
06/28/2013  21:07:00     -215.806     -117.293       -4.713       86.653       78.643       50.551     7508.659     6184.747     2555.436        3.830        0.812      245.621       39.517        0.026      347.198       25.991      863.522
06/28/2013  21:08:00     -238.445     -120.317       -6.476       91.488       92.991       46.802     8370.100     8647.380     2190.471        4.529        0.960      267.081       45.540        0.029      347.217       26.022      863.560
06/28/2013  21:09:00     -216.529       61.677      -28.574       98.554       88.023       40.600     9712.858     7747.963     1648.399        3.530        0.955      225.142       32.474        0.021      347.341       26.236      863.576
06/28/2013  21:10:00     -158.958      120.840      -19.353       67.089       64.117       53.913     4500.883     4110.933     2906.599        2.588        0.576      199.674       38.214        0.037      347.398       26.338      863.558
06/28/2013  21:11:00     -157.957       54.752      -26.319       82.540       62.112       34.121     6812.897     3857.955     1164.209        2.024        0.592      167.177       35.384        0.045      347.462       26.447      863.545
06/28/2013  21:12:00     -179.531       56.717      -15.114       77.389       56.678       34.766     5988.992     3212.404     1208.669        2.304        0.521      188.277       27.774        0.022      347.508       26.526      863.539
06/28/2013  21:13:00     -147.541       14.294      -17.749       49.363       59.550       28.170     2436.657     3546.235      793.571        1.453        0.339      148.232       27.500        0.034      347.456       26.437      863.512
06/28/2013  21:14:00      -70.878       27.282      -11.655       44.764       39.887       25.251     2003.848     1590.986      637.604        0.507        0.212       75.948       20.843        0.075      347.529       26.565      863.473
06/28/2013  21:15:00     -115.721       31.002      -15.618       41.124       59.811       25.276     1691.161     3577.353      638.863        1.025        0.295      119.801       25.217        0.044      347.652       26.777      863.435
06/28/2013  21:16:00     -127.201       54.575      -15.608       33.621       55.535       26.934     1130.339     3084.122      725.466        1.217        0.247      138.415       18.895        0.019      347.560       26.618      863.414
06/28/2013  21:17:00     -100.880       -9.874       -7.110       34.728       28.853       21.457     1206.028      832.473      460.408        0.641        0.125      101.362       16.377        0.026      347.540       26.582      863.388
06/28/2013  21:18:00      -83.757       11.019      -11.764       19.795       32.295       20.361      391.859     1042.976      414.585        0.456        0.092       84.479       14.605        0.030      347.454       26.434      863.377
06/28/2013  21:19:00      -72.788      108.413      -13.620       44.584       51.200       27.024     1987.728     2621.465      730.276        1.129        0.267      130.581       29.625        0.051      347.438       26.406      863.360
06/28/2013  21:20:00      -71.280       81.588      -13.566       39.414       41.326       24.885     1553.487     1707.838      619.260        0.790        0.194      108.340       25.296        0.055      347.451       26.429      863.345
06/28/2013  21:21:00      -91.371       12.847      -24.561       32.978       34.931       26.399     1087.520     1220.148      696.905        0.606        0.150       92.270       16.349        0.031      347.469       26.459      863.359
06/28/2013  21:22:00      -10.554      -17.742       16.512       49.475       45.926       24.754     2447.824     2109.230      612.743        0.293        0.258       20.643       26.779        1.683      347.410       26.358      863.340
06/28/2013  21:23:00      -99.126      -27.948      -11.680       58.224       34.355       23.565     3390.040     1180.252      555.303        0.793        0.256      102.991       18.478        0.032      347.493       26.502      863.355
06/28/2013  21:24:00     -112.530        0.716       -7.043       33.297       40.656       19.813     1108.719     1652.871      392.560        0.793        0.158      112.532       18.193        0.026      347.555       26.610      863.364
06/28/2013  21:25:00      -89.374       97.055      -21.756       29.220       33.613       22.980      853.784     1129.846      528.088        1.020        0.126      131.937       16.454        0.016      347.703       26.864      863.364
06/28/2013  21:26:00      -26.412       76.921       -9.282       26.846       23.348       14.410      720.722      545.134      207.641        0.409        0.074       81.329       12.079        0.022      347.548       26.596      863.365
06/28/2013  21:27:00      -34.598      125.643      -21.110       21.747       25.226       11.613      472.934      636.356      134.859        0.934        0.062      130.320        4.809        0.001      347.600       26.687      863.367
06/28/2013  21:28:00      -66.362       46.730      -10.737       22.699       38.367       12.741      515.241     1472.046      162.331        0.443        0.107       81.165       12.222        0.023      347.430       26.395      863.408
06/28/2013  21:29:00      -14.782      -11.575        3.061       24.114       20.678        9.773      581.491      427.564       95.518        0.073        0.055       18.775        8.090        0.186      347.475       26.473      863.392
06/28/2013  21:30:00      -17.757       -1.223        4.492       12.795       10.037        8.494      163.723      100.732       72.153        0.034        0.017       17.799        4.587        0.066      347.499       26.513      863.386
06/28/2013  21:31:00        6.922       18.871       15.005       18.465       13.997       11.643      340.972      195.916      135.552        0.065        0.034       20.100       12.342        0.377      347.407       26.354      863.376
06/28/2013  21:32:00      -14.974       73.431       -5.721       15.698       24.966        9.882      246.414      623.319       97.644        0.331        0.048       74.942        8.501        0.013      347.430       26.392      863.370
06/28/2013  21:33:00      -35.024      125.423      -15.150       22.335       19.616       15.705      498.866      384.782      246.651        0.916        0.057      130.222       11.751        0.008      347.413       26.364      863.369
06/28/2013  21:34:00      -68.662       96.135      -21.262       24.134       23.705       17.357      582.470      561.949      301.257        0.793        0.072      118.137       10.016        0.007      347.389       26.324      863.378
06/28/2013  21:35:00      -52.589       95.448       -8.968       28.961       20.851       19.493      838.726      434.765      379.974        0.680        0.083      108.977       14.654        0.018      347.595       26.678      863.359
06/28/2013  21:36:00      -41.129       40.261      -11.798       15.727       23.052        9.035      247.353      531.416       81.630        0.216        0.043       57.555        3.974        0.005      347.678       26.821      863.347
06/28/2013  21:37:00      -16.094       22.597       -0.070       14.528       22.023       10.735      211.062      485.021      115.240        0.079        0.041       27.743       11.727        0.179      347.510       26.531      863.331
06/28/2013  21:38:00      -38.444       44.448       -2.727       38.423       33.697       20.383     1476.326     1135.482      415.463        0.324        0.151       58.767       27.123        0.213      347.790       27.014      863.329
06/28/2013  21:39:00      -13.334       -4.958        5.592       23.766        8.583       10.002      564.834       73.660      100.048        0.049        0.037       14.226       13.292        0.873      347.624       26.729      863.326
06/28/2013  21:40:00      -41.459       -6.639       -3.979       18.347       12.220        8.632      336.596      149.330       74.517        0.117        0.028       41.987        5.955        0.020      347.581       26.653      863.305
06/28/2013  21:41:00     -139.521        2.614       -2.677       65.229       35.916       26.583     4254.884     1289.986      706.675        1.286        0.313      139.546       29.701        0.045      347.893       27.191      863.281
06/28/2013  21:42:00     -128.638       31.037       -0.117       51.001       47.445       25.216     2601.133     2251.032      635.863        1.150        0.274      132.329       24.536        0.034      348.103       27.555      863.259
06/28/2013  21:43:00     -212.864      -16.614      -24.101      103.351       71.776       39.739    10681.392     5151.805     1579.219        3.179        0.871      213.512       41.438        0.038      348.182       27.689      863.237
06/28/2013  21:44:00     -245.314      -26.226       -2.931      146.145       86.646       55.260    21358.311     7507.539     3053.625        4.639        1.596      246.712       57.284        0.054      348.417       28.095      863.196
06/28/2013  21:45:00     -207.155      -43.387        3.264       91.376       87.701       49.704     8349.643     7691.534     2470.441        3.166        0.926      211.650       52.725        0.062      348.383       28.035      863.175
06/28/2013  21:46:00     -201.365      -77.200        4.876      107.042      107.825       51.264    11457.957    11626.283     2628.025        3.612        1.286      215.656       62.629        0.084      348.434       28.126      863.172
06/28/2013  21:47:00     -220.062      -26.446        1.387      120.973       84.263       61.985    14634.417     7100.220     3842.122        3.735        1.279      221.645       69.429        0.098      348.668       28.530      863.171
06/28/2013  21:48:00     -307.938     -103.696      -11.262      105.889      109.392       56.937    11212.567    11966.659     3241.864        6.606        1.321      324.929       59.459        0.033      348.789       28.738      863.182
06/28/2013  21:49:00     -247.837      -65.868       -0.215       97.354       71.708       47.155     9477.743     5141.976     2223.605        4.130        0.842      256.440       53.279        0.043      348.824       28.797      863.197
06/28/2013  21:50:00     -188.033      -85.625       -2.419       84.706       59.380       41.001     7175.077     3526.038     1681.095        2.754        0.619      206.611       41.800        0.041      348.864       28.867      863.217
06/28/2013  21:51:00     -186.847      -75.288        6.180       84.629       78.972       47.678     7161.988     6236.610     2273.239        2.814        0.784      201.445       45.544        0.051      348.849       28.842      863.236
06/28/2013  21:52:00     -172.696      -50.154       -2.220       80.784       56.512       38.652     6526.002     3193.569     1493.971        2.178        0.561      179.831       43.574        0.059      348.836       28.820      863.277
06/28/2013  21:53:00     -139.628      -63.205        3.434       81.171       88.770       50.004     6588.703     7880.200     2500.404        2.023        0.848      153.267       47.378        0.096      348.831       28.812      863.310
06/28/2013  21:54:00     -149.230      -32.034       -9.597       57.694       60.257       31.696     3328.594     3630.958     1004.642        1.567        0.398      152.629       33.931        0.049      348.787       28.735      863.345
06/28/2013  21:55:00     -131.464      -38.755        6.019       79.812       51.668       42.498     6370.009     2669.627     1806.047        1.483        0.542      137.057       37.076        0.073      348.710       28.603      863.377
06/28/2013  21:56:00     -193.294       -5.831       -6.657       71.854       74.890       42.612     5162.943     5608.444     1815.775        2.501        0.629      193.381       47.204        0.060      348.771       28.707      863.403
06/28/2013  21:57:00     -271.270      -78.437      -16.040      113.932       76.689       50.676    12980.578     5881.270     2568.026        5.071        1.071      282.382       49.569        0.031      348.854       28.849      863.444
06/28/2013  21:58:00     -293.106      -38.966       -9.349      136.683       98.308       55.624    18682.177     9664.451     3094.029        5.947        1.572      295.685       59.190        0.040      348.891       28.914      863.472
06/28/2013  21:59:00     -207.875       -0.366       -8.839       83.936       75.127       49.126     7045.268     5644.133     2413.347        2.919        0.755      207.875       39.503        0.036      348.835       28.820      863.508
06/28/2013  22:00:00     -145.701      -31.370        5.938      116.980       61.402       43.080    13684.394     3770.261     1855.877        2.078        0.966      149.040       58.119        0.152      348.796       28.752      863.522
06/28/2013  22:01:00     -162.333      -24.018       -3.511       98.866       48.897       37.000     9774.529     2390.918     1369.011        2.024        0.677      164.101       32.952        0.040      348.751       28.674      863.534
06/28/2013  22:02:00     -231.160      -49.015       -2.165       96.045       81.040       48.374     9224.712     6567.495     2340.061        3.698        0.907      236.300       51.270        0.047      348.796       28.750      863.531
06/28/2013  22:03:00     -248.290      -50.750       -6.793      110.590       88.117       54.417    12230.076     7764.690     2961.171        4.361        1.148      253.423       56.293        0.049      348.885       28.903      863.551
06/28/2013  22:04:00     -224.151     -102.226       -4.819       82.037       80.164       49.872     6730.146     6426.303     2487.221        3.818        0.782      246.361       44.219        0.032      348.872       28.881      863.561
06/28/2013  22:05:00     -204.962      -98.283        2.121      116.660       84.897       53.394    13609.654     7207.483     2850.894        3.767        1.183      227.308       53.765        0.056      348.856       28.856      863.568
06/28/2013  22:06:00     -278.102      -41.158      -21.965      129.587       93.450       57.054    16792.677     8732.876     3255.190        5.414        1.439      281.131       65.161        0.054      348.861       28.863      863.572
06/28/2013  22:07:00     -232.829      -17.930      -18.872       93.969       77.021       47.939     8830.190     5932.230     2298.185        3.597        0.853      233.519       27.951        0.014      348.819       28.792      863.581
06/28/2013  22:08:00     -214.954      -36.827      -11.286       89.304       63.139       38.122     7975.192     3986.516     1453.282        3.055        0.671      218.086       43.110        0.039      348.778       28.720      863.579
06/28/2013  22:09:00     -171.945      -12.345       -2.234       83.813       68.992       41.198     7024.617     4759.839     1697.268        2.160        0.674      172.388       42.005        0.059      348.735       28.645      863.582
06/28/2013  22:10:00     -225.146      -38.200      -13.630       92.326       56.158       36.590     8524.118     3153.709     1338.855        3.267        0.651      228.363       39.260        0.030      348.748       28.667      863.581
06/28/2013  22:11:00     -221.277      -66.176        1.982       86.198       82.180       49.588     7430.025     6753.565     2458.957        3.499        0.832      230.960       49.045        0.045      348.696       28.577      863.578
06/28/2013  22:12:00     -269.863      -11.832      -19.890       99.706       66.817       44.008     9941.381     4464.547     1936.694        4.485        0.817      270.122       43.986        0.027      348.761       28.689      863.581
06/28/2013  22:13:00     -180.355      -48.697       -6.159      109.104       76.288       47.090    11903.745     5819.844     2217.428        2.744        0.997      186.813       41.148        0.049      348.648       28.496      863.578
06/28/2013  22:14:00     -223.568      -71.494       -1.711       71.988       68.202       38.224     5182.247     4651.543     1461.066        3.319        0.565      234.721       36.554        0.024      348.602       28.413      863.591
06/28/2013  22:15:00     -166.248      -60.581       -3.202       70.561       63.216       38.443     4978.856     3996.323     1477.872        2.088        0.523      176.942       36.513        0.043      348.565       28.351      863.597
06/28/2013  22:16:00     -214.207      -64.419       -3.184       89.541       54.453       39.076     8017.598     2965.102     1526.957        3.127        0.625      223.684       42.137        0.035      348.581       28.379      863.594
06/28/2013  22:17:00     -176.102      -47.981        3.969       92.734       66.205       42.134     8599.522     4383.036     1775.281        2.404        0.738      182.522       46.611        0.065      348.540       28.309      863.588
06/28/2013  22:18:00     -195.564      -29.290       -1.849       82.083       57.648       39.855     6737.545     3323.237     1588.383        2.538        0.582      197.745       35.500        0.032      348.503       28.243      863.580
06/28/2013  22:19:00     -223.688      -15.328       -5.448       88.774       85.478       49.818     7880.834     7306.475     2481.799        3.398        0.883      224.213       46.978        0.044      348.543       28.313      863.572
06/28/2013  22:20:00     -250.601     -105.499       -5.054      110.441       75.545       48.995    12197.177     5707.067     2400.489        4.713        1.015      271.902       47.554        0.031      348.535       28.298      863.565
06/28/2013  22:21:00     -222.952      -58.840       -6.204       85.067       75.924       47.435     7236.447     5764.492     2250.049        3.423        0.763      230.586       44.637        0.037      348.494       28.228      863.570
06/28/2013  22:22:00     -277.029      -10.367       -7.446       83.175       82.419       50.792     6918.032     6792.951     2579.842        4.660        0.815      277.223       45.118        0.026      348.533       28.294      863.571
06/28/2013  22:23:00     -345.231      -17.326      -22.845      136.326       77.494       55.177    18584.756     6005.359     3044.476        7.382        1.382      345.666       64.433        0.035      348.576       28.370      863.578
06/28/2013  22:24:00     -256.930      -48.836      -18.157       69.539       53.675       42.610     4835.670     2880.982     1815.651        3.913        0.477      261.530       35.367        0.018      348.428       28.113      863.589
06/28/2013  22:25:00     -265.598      -72.221        2.426       96.918       90.869       50.655     9393.066     8257.113     2565.957        4.799        1.011      275.242       54.648        0.039      348.502       28.240      863.597
06/28/2013  22:26:00     -245.130      -37.527        0.907      119.631       86.139       53.161    14311.510     7419.952     2826.084        4.302        1.228      247.986       59.727        0.058      348.540       28.307      863.606
06/28/2013  22:27:00     -275.178      -41.098       -0.177       96.402      102.509       60.391     9293.428    10508.168     3647.048        5.043        1.172      278.230       53.323        0.037      348.578       28.371      863.618
06/28/2013  22:28:00     -326.088      -28.658      -21.266       91.720       64.137       57.990     8412.480     4113.584     3362.879        6.174        0.794      327.345       47.923        0.021      348.618       28.442      863.623
06/28/2013  22:29:00     -276.336      -60.271       -5.047      120.545       87.072       52.291    14531.100     7581.541     2734.342        5.243        1.242      282.833       58.271        0.042      348.557       28.335      863.625
06/28/2013  22:30:00     -349.057      -31.065      -31.073       71.156       93.341       37.649     5063.189     8712.482     1417.420        6.948        0.760      350.437       29.078        0.007      348.632       28.466      863.638
06/28/2013  22:31:00     -283.327      -66.228      -21.107      103.858       82.048       44.079    10786.434     6731.901     1942.945        5.228        0.973      290.964       48.130        0.027      348.634       28.470      863.647
06/28/2013  22:32:00     -226.267      -47.495      -27.947       76.430       71.196       46.114     5841.619     5068.884     2126.511        3.363        0.652      231.198       29.716        0.017      348.540       28.309      863.660
06/28/2013  22:33:00     -266.638      -25.824      -23.823       77.185       79.583       51.492     5957.496     6333.533     2651.386        4.363        0.747      267.886       42.645        0.025      348.510       28.254      863.667
06/28/2013  22:34:00     -240.076      -24.364      -10.129      106.922       63.724       44.703    11432.319     4060.726     1998.365        3.791        0.875      241.309       50.072        0.043      348.495       28.230      863.678
06/28/2013  22:35:00     -214.969      -63.992      -10.876       53.061       58.892       37.586     2815.457     3468.311     1412.704        2.906        0.385      224.291       28.824        0.017      348.459       28.167      863.693
06/28/2013  22:36:00     -165.541      -30.876      -21.610       63.857       69.250       31.079     4077.769     4795.495      965.892        1.933        0.492      168.396       23.756        0.020      348.373       28.020      863.698
06/28/2013  22:37:00     -103.675       -0.286       -2.127       63.287       52.180       32.617     4005.200     2722.798     1063.892        0.927        0.390      103.675       19.201        0.034      348.336       27.958      863.697
06/28/2013  22:38:00     -119.527        7.143      -26.125       59.857       39.331       31.652     3582.851     1546.925     1001.839        1.057        0.307      119.740       24.750        0.043      348.320       27.929      863.689
06/28/2013  22:39:00     -121.353      -42.490      -16.487       56.056       75.456       35.156     3142.240     5693.578     1235.916        1.344        0.504      128.576       20.997        0.027      348.242       27.794      863.705
06/28/2013  22:40:00     -150.383       -2.492      -12.814       53.359       60.342       31.296     2847.192     3641.156      979.470        1.513        0.373      150.403       28.471        0.036      348.232       27.777      863.706
06/28/2013  22:41:00      -82.887       21.899       -9.511       60.792       55.446       39.065     3695.698     3074.261     1526.047        0.787        0.415       85.731       29.487        0.118      348.195       27.714      863.703
06/28/2013  22:42:00     -137.656      -36.360      -16.487       38.691       38.781       29.217     1496.994     1503.970      853.647        1.220        0.193      142.377        7.206        0.003      348.245       27.799      863.701
06/28/2013  22:43:00     -128.121      -81.212       -5.409       65.189       65.066       29.400     4249.542     4233.544      864.369        1.619        0.467      151.692       26.572        0.031      348.203       27.728      863.713
06/28/2013  22:44:00     -127.064      -33.896       -8.981       54.128       46.175       28.429     2929.862     2132.164      808.189        1.162        0.294      131.508       28.624        0.047      348.176       27.681      863.726
06/28/2013  22:45:00     -152.870      -38.805      -12.354       72.829       59.030       27.050     5304.126     3484.562      731.723        1.727        0.476      157.718       29.824        0.036      348.142       27.621      863.739
06/28/2013  22:46:00     -148.105      -22.572      -12.673       49.264       46.122       25.614     2426.984     2127.206      656.065        1.391        0.261      149.815       28.096        0.035      348.137       27.612      863.743
06/28/2013  22:47:00     -166.230      -33.789      -10.585       75.380       66.069       38.413     5682.202     4365.161     1475.591        2.020        0.576      169.629       34.637        0.042      348.195       27.712      863.739
06/28/2013  22:48:00     -105.962       -2.321      -20.511       52.250       63.603       30.782     2730.031     4045.317      947.522        0.969        0.386      105.988       24.681        0.054      348.174       27.679      863.734
06/28/2013  22:49:00     -112.183       21.317      -15.156       50.107       79.368       25.806     2510.704     6299.302      665.947        1.137        0.474      114.190       23.831        0.044      348.182       27.689      863.720
06/28/2013  22:50:00     -126.544       35.850      -23.073       85.532       64.705       38.747     7315.786     4186.745     1501.297        1.541        0.650      131.524       44.350        0.114      348.056       27.471      863.716
06/28/2013  22:51:00     -172.488       71.572      -21.900       78.288       55.543       43.947     6129.043     3085.031     1931.356        2.325        0.557      186.748       38.397        0.042      348.034       27.435      863.715
06/28/2013  22:52:00     -190.724       77.901      -35.970       60.426       77.898       37.897     3651.255     6068.050     1436.178        2.744        0.558      206.019       34.223        0.028      347.991       27.359      863.716
06/28/2013  22:53:00     -205.517      -87.706       -9.473       92.050       66.521       44.902     8473.294     4425.009     2016.221        3.246        0.746      223.450       44.839        0.040      347.987       27.352      863.726
06/28/2013  22:54:00     -212.102      -53.091      -20.572       79.292       56.395       39.907     6287.294     3180.430     1592.580        2.964        0.553      218.645       37.643        0.030      348.012       27.394      863.740
06/28/2013  22:55:00     -226.135      -79.293      -31.266       75.350       65.520       43.284     5677.647     4292.816     1873.488        3.512        0.592      239.634       31.760        0.018      348.029       27.425      863.739
06/28/2013  22:56:00     -217.152      -88.622       -5.617       91.128       83.015       40.647     8304.266     6891.427     1652.174        3.594        0.842      234.540       38.230        0.027      347.973       27.328      863.735
06/28/2013  22:57:00     -166.139      -56.765       -8.284       98.511       68.044       47.791     9704.416     4629.953     2283.961        2.375        0.831      175.569       45.079        0.066      347.935       27.261      863.729
06/28/2013  22:58:00     -205.059      -61.779      -14.538       90.588      100.300       56.858     8206.231    10060.143     3232.820        3.378        1.075      214.164       55.134        0.066      347.993       27.360      863.728
06/28/2013  22:59:00     -178.166      -65.195      -16.685       87.501       80.512       39.726     7656.364     6482.155     1578.130        2.599        0.786      189.719       40.692        0.046      348.034       27.434      863.724
06/28/2013  23:00:00     -207.498      -73.998      -22.365       90.268       64.295       41.118     8148.265     4133.872     1690.696        3.150        0.699      220.298       31.169        0.020      348.037       27.438      863.728
06/28/2013  23:01:00     -163.822       -2.468      -10.841       80.122       68.043       40.769     6419.578     4629.875     1662.088        1.983        0.636      163.840       32.070        0.038      347.994       27.365      863.731
06/28/2013  23:02:00     -190.647      -43.247       -8.265      105.067       65.592       49.891    11039.101     4302.361     2489.082        2.805        0.892      195.490       49.097        0.063      347.937       27.266      863.752
06/28/2013  23:03:00     -254.884       -1.402      -16.211      101.808       99.763       50.075    10364.798     9952.746     2507.543        4.402        1.141      254.888       47.633        0.035      348.024       27.414      863.749
06/28/2013  23:04:00     -233.375      -44.552      -14.754       83.931       77.638       52.593     7044.495     6027.648     2766.059        3.625        0.792      237.589       51.502        0.047      348.000       27.372      863.752
06/28/2013  23:05:00     -168.850      -80.979        6.363      104.020      102.054       53.807    10820.132    10415.066     2895.198        2.961        1.207      187.264       57.495        0.094      347.960       27.306      863.736
06/28/2013  23:06:00     -248.631      -49.258      -16.673       74.884       93.170       44.267     5607.656     8680.628     1959.612        4.038        0.812      253.463       36.519        0.021      347.982       27.342      863.729
06/28/2013  23:07:00     -283.321      -30.844      -19.389       76.335       84.917       37.052     5826.976     7210.884     1372.853        4.800        0.721      284.995       35.507        0.016      347.912       27.221      863.721
06/28/2013  23:08:00     -250.660       -8.906      -18.745       95.075       71.615       46.807     9039.227     5128.694     2190.933        3.981        0.818      250.818       51.512        0.042      347.981       27.340      863.726
06/28/2013  23:09:00     -230.365       -0.040      -14.940      102.824       81.011       55.131    10572.702     6562.766     3039.474        3.673        1.009      230.365       54.852        0.057      347.931       27.255      863.714
06/28/2013  23:10:00     -273.160      -63.735      -21.966       63.623       90.626       40.077     4047.944     8213.070     1606.132        4.651        0.693      280.497       30.546        0.012      347.858       27.126      863.705
06/28/2013  23:11:00     -329.072      -31.378      -29.998       90.107       91.233       44.992     8119.323     8323.436     2024.275        6.432        0.923      330.565       27.212        0.007      347.879       27.163      863.698
06/28/2013  23:12:00     -288.615      -71.611      -20.467      116.511       87.065       52.424    13574.810     7580.377     2748.291        5.637        1.195      297.366       51.539        0.030      347.945       27.279      863.683
06/28/2013  23:13:00     -317.424      -45.880      -21.639       95.172       77.197       50.832     9057.655     5959.324     2583.924        6.046        0.880      320.723       49.434        0.024      348.000       27.372      863.674
06/28/2013  23:14:00     -326.545      -95.727       -8.338      110.635       84.270       54.897    12240.129     7101.508     3013.679        6.911        1.118      340.287       54.245        0.025      348.065       27.485      863.665
06/28/2013  23:15:00     -280.630     -126.032      -18.079      127.589       87.999       55.156    16278.856     7743.882     3042.157        6.101        1.353      307.632       62.243        0.041      348.042       27.447      863.638
06/28/2013  23:16:00     -308.419      -69.039      -10.922      117.729       92.180       56.450    13860.171     8497.159     3186.626        6.277        1.277      316.052       65.303        0.043      348.054       27.467      863.631
06/28/2013  23:17:00     -359.238      -70.179       -9.282      106.170      110.433       64.271    11272.053    12195.389     4130.748        8.083        1.380      366.028       53.615        0.021      348.127       27.592      863.624
06/28/2013  23:18:00     -263.519      -90.878       -6.138      123.137       90.447       60.252    15162.785     8180.733     3630.352        5.235        1.349      278.749       58.250        0.044      348.088       27.526      863.624
06/28/2013  23:19:00     -279.844      -74.077       -4.319      137.282       90.718       47.585    18846.249     8229.758     2264.312        5.657        1.467      289.483       50.214        0.030      348.070       27.495      863.636
06/28/2013  23:20:00     -288.972      -15.525      -16.262      129.268       93.913       52.894    16710.264     8819.628     2797.826        5.616        1.416      289.389       57.177        0.039      348.063       27.482      863.640
06/28/2013  23:21:00     -374.314     -102.073      -18.044      105.328       97.536       55.370    11094.072     9513.189     3065.805        8.726        1.184      387.982       57.072        0.022      348.156       27.642      863.644
06/28/2013  23:22:00     -304.049      -48.581      -13.264      116.511       97.053       54.492    13574.756     9419.301     2969.362        6.047        1.298      307.905       59.329        0.037      348.041       27.443      863.655
06/28/2013  23:23:00     -253.106      -58.744       -2.981      116.291      119.409       55.120    13523.502    14258.533     3038.227        4.917        1.541      259.834       58.859        0.051      348.028       27.421      863.670
06/28/2013  23:24:00     -242.206      -39.151       -5.248      119.320      100.821       54.174    14237.369    10164.919     2934.831        4.378        1.367      245.350       54.929        0.050      348.025       27.416      863.689
06/28/2013  23:25:00     -326.660     -101.793       -6.190      103.360      105.920       55.792    10683.294    11219.111     3112.705        7.106        1.251      342.152       50.740        0.022      348.098       27.542      863.689
06/28/2013  23:26:00     -315.359      -54.795      -18.833      122.460      117.228       58.030    14996.525    13742.362     3367.424        6.745        1.605      320.084       57.413        0.032      348.032       27.429      863.698
06/28/2013  23:27:00     -301.643      -87.663       -7.516      121.063       96.677       56.477    14656.290     9346.400     3189.656        6.296        1.360      314.123       52.869        0.028      348.063       27.482      863.710
06/28/2013  23:28:00     -227.244      -62.354        1.513      108.277       98.894       59.954    11723.936     9779.966     3594.436        4.031        1.255      235.644       59.751        0.064      348.035       27.435      863.721
06/28/2013  23:29:00     -280.045      -38.778      -15.503      114.235       88.272       51.671    13049.598     7791.997     2669.920        5.184        1.176      282.717       55.852        0.039      348.027       27.422      863.734
06/28/2013  23:30:00     -260.713      -50.573       -5.458      113.974       79.963       54.388    12990.052     6394.126     2958.085        4.645        1.117      265.573       58.754        0.049      348.043       27.448      863.740
06/28/2013  23:31:00     -348.401      -78.606      -11.323      111.520       85.161       49.857    12436.804     7252.334     2485.761        7.493        1.109      357.158       46.730        0.017      348.054       27.467      863.734
06/28/2013  23:32:00     -275.656      -51.619      -10.148      139.032       90.178       54.681    19329.912     8132.099     2989.998        5.460        1.523      280.447       59.440        0.045      347.982       27.344      863.735
06/28/2013  23:33:00     -285.662      -58.912        7.477      140.826      108.122       57.854    19831.884    11690.385     3347.056        5.999        1.743      291.673       62.523        0.046      348.032       27.429      863.734
06/28/2013  23:34:00     -273.529      -74.634       -3.911      120.146       86.545       58.933    14435.035     7489.996     3473.052        5.290        1.270      283.529       61.038        0.046      348.071       27.497      863.724
06/28/2013  23:35:00     -278.449      -57.900       -2.299      114.222       95.071       52.141    13046.762     9038.488     2718.676        5.284        1.240      284.405       54.496        0.037      348.044       27.450      863.736
06/28/2013  23:36:00     -337.565      -75.661      -10.232      120.335       91.268       56.897    14480.498     8329.803     3237.276        7.291        1.302      345.941       57.436        0.028      348.123       27.585      863.735
06/28/2013  23:37:00     -332.343      -46.913      -16.068      110.511       76.131       50.487    12212.586     5795.982     2548.947        6.673        1.028      335.638       49.140        0.021      348.156       27.642      863.733
06/28/2013  23:38:00     -245.079      -68.556       -6.897      126.688      103.444       54.453    16049.813    10700.567     2965.133        4.726        1.486      254.487       60.815        0.057      348.134       27.606      863.729
06/28/2013  23:39:00     -253.027      -65.364      -14.709       92.578      111.256       49.916     8570.722    12377.983     2491.576        4.597        1.172      261.333       42.293        0.026      348.151       27.634      863.724
06/28/2013  23:40:00     -350.612      -89.375      -21.013      142.972      105.325       58.756    20441.111    11093.295     3452.217        8.317        1.749      361.824       70.350        0.038      348.258       27.820      863.730
06/28/2013  23:41:00     -277.683      -71.219      -12.740      127.194       96.582       51.542    16178.334     9328.011     2656.530        5.525        1.408      286.671       53.260        0.035      348.220       27.755      863.743
06/28/2013  23:42:00     -298.296      -67.435       -0.654      128.277      108.142       62.665    16454.899    11694.716     3926.878        6.280        1.604      305.824       62.301        0.042      348.208       27.733      863.747
06/28/2013  23:43:00     -194.321      -27.563       -7.329       83.221       69.595       44.336     6925.768     4843.530     1965.676        2.615        0.687      196.266       42.627        0.047      348.126       27.592      863.750
06/28/2013  23:44:00     -221.135      -59.015       -2.354      124.113       87.908       47.581    15404.135     7727.736     2263.994        3.889        1.270      228.875       51.573        0.051      348.117       27.576      863.762
06/28/2013  23:45:00     -236.332      -53.006       -8.894      117.202       83.043       50.317    13736.405     6896.120     2531.792        4.095        1.158      242.203       54.342        0.050      348.172       27.672      863.774
06/28/2013  23:46:00     -229.499      -89.918       -4.598      103.486       99.374       51.784    10709.291     9875.280     2681.561        4.202        1.163      246.486       55.342        0.050      348.177       27.679      863.775
06/28/2013  23:47:00     -357.114      -86.982      -11.227      137.944       84.893       62.131    19028.650     7206.761     3860.249        8.265        1.505      367.554       65.305        0.032      348.264       27.831      863.776
06/28/2013  23:48:00     -301.341      -57.030       -3.209      145.029       88.277       62.429    21033.350     7792.881     3897.331        6.339        1.636      306.690       69.221        0.051      348.228       27.768      863.787
06/28/2013  23:49:00     -338.829      -68.859      -13.951      117.770      103.410       63.494    13869.805    10693.624     4031.538        7.416        1.430      345.755       61.491        0.032      348.238       27.784      863.792
06/28/2013  23:50:00     -333.247      -91.489      -19.903      108.172       99.789       54.330    11701.142     9957.751     2951.798        7.221        1.231      345.578       51.794        0.022      348.226       27.764      863.787
06/28/2013  23:51:00     -261.275      -61.337       -9.352      134.125      102.867       56.131    17989.564    10581.520     3150.695        5.191        1.586      268.378       59.744        0.050      348.172       27.671      863.798
06/28/2013  23:52:00     -308.587      -83.025      -18.424      136.465       80.138       44.923    18622.645     6422.050     2018.050        6.476        1.353      319.560       46.382        0.021      348.183       27.689      863.801
06/28/2013  23:53:00     -331.675      -58.243       -1.640      121.977      100.732       58.743    14878.293    10146.955     3450.759        7.093        1.424      336.750       60.532        0.032      348.207       27.731      863.811
06/28/2013  23:54:00     -364.697      -68.578      -10.370      163.780      106.007       53.375    26823.954    11237.463     2848.940        8.935        2.046      371.089       57.343        0.024      348.228       27.768      863.815
06/28/2013  23:55:00     -310.861      -12.442       -9.545      161.721      116.755       64.791    26153.781    13631.688     4197.846        7.042        2.199      311.110       76.720        0.061      348.246       27.800      863.815
06/28/2013  23:56:00     -284.951      -56.399       -3.764      100.898       95.190       54.769    10180.493     9061.124     2999.684        5.331        1.112      290.479       51.491        0.031      348.203       27.724      863.814
06/28/2013  23:57:00     -341.241     -107.614      -13.010      128.570       98.246       59.863    16530.342     9652.279     3583.555        7.897        1.488      357.808       56.228        0.025      348.228       27.766      863.815
06/28/2013  23:58:00     -249.840      -71.465       -3.185      129.792       83.619       52.409    16846.058     6992.165     2746.655        4.706        1.329      259.860       61.653        0.056      348.262       27.827      863.818
06/28/2013  23:59:00     -260.283      -30.937       -6.786      128.224       97.647       65.573    16441.386     9534.978     4299.869        4.951        1.514      262.115       75.336        0.083      348.207       27.731      863.815
